<?xml version="1.0" encoding="UTF-8" standalone="no" ?>
<gpx xmlns="http://www.topografix.com/GPX/1/1" xmlns:xsi="http://www.w3.org/2001/XMLSchema-instance" xsi:schemaLocation="http://www.topografix.com/GPX/1/1 http://www.topografix.com/GPX/1/1/gpx.xsd" version="1.1" creator="VisuGPX - https://www.visugpx.com">
  <metadata>
    <name>VTT La Crête des Melèzes à partir de Turriers 04</name>
    <desc><![CDATA[De Turriers franchir par la route le col des Sagnes qui conduit à Bayons , puis en arrivant à Bayons prendre à Gauche la piste de la Combe la suivre en prenant à gauche à chaque croisement , jusqu'à la crête des Melezes , suivre la piste à gauche en descente jusqu'à un pré que l'on traverse sur la gauche jusqu'au sentier de descente qui mène à une piste que l'on prend à droite jusqu'aux Dorats puis Turriers par la route]]></desc>
  </metadata>
  <trk>
    <name><![CDATA[Turriers/Crête des Melezes]]></name>
    <trkseg>
      <trkpt lat="44.39789" lon="6.17127">
        <ele>940.306885</ele>
        <time>2011-06-28T07:42:59Z</time>
      </trkpt>
      <trkpt lat="44.39794" lon="6.17123">
        <ele>938.864746</ele>
        <time>2011-06-28T07:43:02Z</time>
      </trkpt>
      <trkpt lat="44.39792" lon="6.17124">
        <ele>941.268066</ele>
        <time>2011-06-28T07:43:04Z</time>
      </trkpt>
      <trkpt lat="44.39792" lon="6.17116">
        <ele>941.268066</ele>
        <time>2011-06-28T07:43:51Z</time>
      </trkpt>
      <trkpt lat="44.39793" lon="6.17112">
        <ele>942.229492</ele>
        <time>2011-06-28T07:43:54Z</time>
      </trkpt>
      <trkpt lat="44.39804" lon="6.17084">
        <ele>943.190674</ele>
        <time>2011-06-28T07:44:07Z</time>
      </trkpt>
      <trkpt lat="44.39815" lon="6.17056">
        <ele>945.113281</ele>
        <time>2011-06-28T07:44:17Z</time>
      </trkpt>
      <trkpt lat="44.39816" lon="6.17041">
        <ele>946.074707</ele>
        <time>2011-06-28T07:44:23Z</time>
      </trkpt>
      <trkpt lat="44.39777" lon="6.17029">
        <ele>945.113281</ele>
        <time>2011-06-28T07:44:33Z</time>
      </trkpt>
      <trkpt lat="44.39759" lon="6.17025">
        <ele>943.190674</ele>
        <time>2011-06-28T07:44:36Z</time>
      </trkpt>
      <trkpt lat="44.39732" lon="6.1701">
        <ele>941.748779</ele>
        <time>2011-06-28T07:44:40Z</time>
      </trkpt>
      <trkpt lat="44.39701" lon="6.1699">
        <ele>939.825928</ele>
        <time>2011-06-28T07:44:45Z</time>
      </trkpt>
      <trkpt lat="44.39691" lon="6.16985">
        <ele>938.864746</ele>
        <time>2011-06-28T07:44:47Z</time>
      </trkpt>
      <trkpt lat="44.39691" lon="6.16985">
        <ele>936.941895</ele>
        <time>2011-06-28T07:44:49Z</time>
      </trkpt>
      <trkpt lat="44.39691" lon="6.16985">
        <ele>937.90332</ele>
        <time>2011-06-28T07:44:50Z</time>
      </trkpt>
      <trkpt lat="44.39691" lon="6.16985">
        <ele>936.461426</ele>
        <time>2011-06-28T07:44:52Z</time>
      </trkpt>
      <trkpt lat="44.39636" lon="6.16992">
        <ele>935.019531</ele>
        <time>2011-06-28T07:44:55Z</time>
      </trkpt>
      <trkpt lat="44.39619" lon="6.16988">
        <ele>935.019531</ele>
        <time>2011-06-28T07:44:58Z</time>
      </trkpt>
      <trkpt lat="44.39584" lon="6.16996">
        <ele>934.058105</ele>
        <time>2011-06-28T07:45:05Z</time>
      </trkpt>
      <trkpt lat="44.39575" lon="6.16999">
        <ele>933.09668</ele>
        <time>2011-06-28T07:45:07Z</time>
      </trkpt>
      <trkpt lat="44.39566" lon="6.17003">
        <ele>934.058105</ele>
        <time>2011-06-28T07:45:09Z</time>
      </trkpt>
      <trkpt lat="44.3951" lon="6.17029">
        <ele>936.461426</ele>
        <time>2011-06-28T07:45:24Z</time>
      </trkpt>
      <trkpt lat="44.39498" lon="6.17036">
        <ele>937.422607</ele>
        <time>2011-06-28T07:45:29Z</time>
      </trkpt>
      <trkpt lat="44.39462" lon="6.1706">
        <ele>938.864746</ele>
        <time>2011-06-28T07:45:45Z</time>
      </trkpt>
      <trkpt lat="44.39446" lon="6.17072">
        <ele>940.787354</ele>
        <time>2011-06-28T07:45:55Z</time>
      </trkpt>
      <trkpt lat="44.39421" lon="6.17094">
        <ele>944.1521</ele>
        <time>2011-06-28T07:46:15Z</time>
      </trkpt>
      <trkpt lat="44.394" lon="6.17112">
        <ele>946.55542</ele>
        <time>2011-06-28T07:46:31Z</time>
      </trkpt>
      <trkpt lat="44.39377" lon="6.17117">
        <ele>950.881104</ele>
        <time>2011-06-28T07:46:50Z</time>
      </trkpt>
      <trkpt lat="44.39376" lon="6.17116">
        <ele>950.881104</ele>
        <time>2011-06-28T07:46:51Z</time>
      </trkpt>
      <trkpt lat="44.39372" lon="6.1711">
        <ele>950.881104</ele>
        <time>2011-06-28T07:46:55Z</time>
      </trkpt>
      <trkpt lat="44.39368" lon="6.17087">
        <ele>952.803711</ele>
        <time>2011-06-28T07:47:07Z</time>
      </trkpt>
      <trkpt lat="44.39366" lon="6.17071">
        <ele>954.726318</ele>
        <time>2011-06-28T07:47:17Z</time>
      </trkpt>
      <trkpt lat="44.39364" lon="6.17065">
        <ele>955.207031</ele>
        <time>2011-06-28T07:47:21Z</time>
      </trkpt>
      <trkpt lat="44.39351" lon="6.17034">
        <ele>958.091309</ele>
        <time>2011-06-28T07:47:40Z</time>
      </trkpt>
      <trkpt lat="44.39342" lon="6.17027">
        <ele>960.013672</ele>
        <time>2011-06-28T07:47:49Z</time>
      </trkpt>
      <trkpt lat="44.39326" lon="6.17002">
        <ele>961.936523</ele>
        <time>2011-06-28T07:48:06Z</time>
      </trkpt>
      <trkpt lat="44.39327" lon="6.16986">
        <ele>963.858887</ele>
        <time>2011-06-28T07:48:15Z</time>
      </trkpt>
      <trkpt lat="44.39334" lon="6.16955">
        <ele>965.781738</ele>
        <time>2011-06-28T07:48:33Z</time>
      </trkpt>
      <trkpt lat="44.39342" lon="6.16926">
        <ele>968.184814</ele>
        <time>2011-06-28T07:48:49Z</time>
      </trkpt>
      <trkpt lat="44.39344" lon="6.16918">
        <ele>968.665527</ele>
        <time>2011-06-28T07:48:54Z</time>
      </trkpt>
      <trkpt lat="44.39352" lon="6.16877">
        <ele>970.107422</ele>
        <time>2011-06-28T07:49:14Z</time>
      </trkpt>
      <trkpt lat="44.39349" lon="6.1684">
        <ele>972.030273</ele>
        <time>2011-06-28T07:49:33Z</time>
      </trkpt>
      <trkpt lat="44.39348" lon="6.16827">
        <ele>972.510986</ele>
        <time>2011-06-28T07:49:39Z</time>
      </trkpt>
      <trkpt lat="44.39349" lon="6.16823">
        <ele>972.991699</ele>
        <time>2011-06-28T07:49:41Z</time>
      </trkpt>
      <trkpt lat="44.39352" lon="6.16793">
        <ele>975.875488</ele>
        <time>2011-06-28T07:49:58Z</time>
      </trkpt>
      <trkpt lat="44.3935" lon="6.16769">
        <ele>978.278809</ele>
        <time>2011-06-28T07:50:12Z</time>
      </trkpt>
      <trkpt lat="44.39333" lon="6.16739">
        <ele>981.643311</ele>
        <time>2011-06-28T07:50:32Z</time>
      </trkpt>
      <trkpt lat="44.39315" lon="6.1671">
        <ele>984.527344</ele>
        <time>2011-06-28T07:50:53Z</time>
      </trkpt>
      <trkpt lat="44.3929" lon="6.16693">
        <ele>988.372803</ele>
        <time>2011-06-28T07:51:14Z</time>
      </trkpt>
      <trkpt lat="44.39266" lon="6.16687">
        <ele>991.256592</ele>
        <time>2011-06-28T07:51:33Z</time>
      </trkpt>
      <trkpt lat="44.39265" lon="6.16685">
        <ele>991.256592</ele>
        <time>2011-06-28T07:51:36Z</time>
      </trkpt>
      <trkpt lat="44.39258" lon="6.16654">
        <ele>994.621094</ele>
        <time>2011-06-28T07:51:53Z</time>
      </trkpt>
      <trkpt lat="44.39258" lon="6.1663">
        <ele>996.543945</ele>
        <time>2011-06-28T07:52:05Z</time>
      </trkpt>
      <trkpt lat="44.39258" lon="6.16616">
        <ele>997.505127</ele>
        <time>2011-06-28T07:52:13Z</time>
      </trkpt>
      <trkpt lat="44.39258" lon="6.16613">
        <ele>998.466309</ele>
        <time>2011-06-28T07:52:17Z</time>
      </trkpt>
      <trkpt lat="44.39259" lon="6.166">
        <ele>998.466309</ele>
        <time>2011-06-28T07:52:22Z</time>
      </trkpt>
      <trkpt lat="44.39259" lon="6.16591">
        <ele>999.427734</ele>
        <time>2011-06-28T07:52:27Z</time>
      </trkpt>
      <trkpt lat="44.39259" lon="6.16588">
        <ele>999.908447</ele>
        <time>2011-06-28T07:52:29Z</time>
      </trkpt>
      <trkpt lat="44.39265" lon="6.16551">
        <ele>1001.831055</ele>
        <time>2011-06-28T07:52:47Z</time>
      </trkpt>
      <trkpt lat="44.3927" lon="6.16531">
        <ele>1003.753662</ele>
        <time>2011-06-28T07:53:00Z</time>
      </trkpt>
      <trkpt lat="44.3927" lon="6.1653">
        <ele>1003.753662</ele>
        <time>2011-06-28T07:53:01Z</time>
      </trkpt>
      <trkpt lat="44.39288" lon="6.16497">
        <ele>1006.156982</ele>
        <time>2011-06-28T07:53:21Z</time>
      </trkpt>
      <trkpt lat="44.39288" lon="6.16495">
        <ele>1007.118408</ele>
        <time>2011-06-28T07:53:24Z</time>
      </trkpt>
      <trkpt lat="44.39286" lon="6.16489">
        <ele>1007.599121</ele>
        <time>2011-06-28T07:53:30Z</time>
      </trkpt>
      <trkpt lat="44.3928" lon="6.16484">
        <ele>1008.079834</ele>
        <time>2011-06-28T07:53:33Z</time>
      </trkpt>
      <trkpt lat="44.39254" lon="6.16507">
        <ele>1010.002197</ele>
        <time>2011-06-28T07:53:51Z</time>
      </trkpt>
      <trkpt lat="44.39223" lon="6.16537">
        <ele>1012.405518</ele>
        <time>2011-06-28T07:54:17Z</time>
      </trkpt>
      <trkpt lat="44.39208" lon="6.16552">
        <ele>1013.366943</ele>
        <time>2011-06-28T07:54:30Z</time>
      </trkpt>
      <trkpt lat="44.39187" lon="6.16558">
        <ele>1015.289551</ele>
        <time>2011-06-28T07:54:45Z</time>
      </trkpt>
      <trkpt lat="44.3918" lon="6.16549">
        <ele>1016.731445</ele>
        <time>2011-06-28T07:54:52Z</time>
      </trkpt>
      <trkpt lat="44.39176" lon="6.1653">
        <ele>1018.654053</ele>
        <time>2011-06-28T07:55:04Z</time>
      </trkpt>
      <trkpt lat="44.39175" lon="6.16521">
        <ele>1019.134766</ele>
        <time>2011-06-28T07:55:08Z</time>
      </trkpt>
      <trkpt lat="44.39172" lon="6.16492">
        <ele>1021.057617</ele>
        <time>2011-06-28T07:55:24Z</time>
      </trkpt>
      <trkpt lat="44.3917" lon="6.16481">
        <ele>1021.057617</ele>
        <time>2011-06-28T07:55:29Z</time>
      </trkpt>
      <trkpt lat="44.39168" lon="6.16462">
        <ele>1022.499512</ele>
        <time>2011-06-28T07:55:40Z</time>
      </trkpt>
      <trkpt lat="44.39146" lon="6.16451">
        <ele>1024.902832</ele>
        <time>2011-06-28T07:56:00Z</time>
      </trkpt>
      <trkpt lat="44.39115" lon="6.16448">
        <ele>1028.267334</ele>
        <time>2011-06-28T07:56:23Z</time>
      </trkpt>
      <trkpt lat="44.39089" lon="6.16434">
        <ele>1030.189941</ele>
        <time>2011-06-28T07:56:41Z</time>
      </trkpt>
      <trkpt lat="44.39057" lon="6.16411">
        <ele>1031.631836</ele>
        <time>2011-06-28T07:57:00Z</time>
      </trkpt>
      <trkpt lat="44.39016" lon="6.16386">
        <ele>1033.07373</ele>
        <time>2011-06-28T07:57:18Z</time>
      </trkpt>
      <trkpt lat="44.38975" lon="6.16372">
        <ele>1034.515869</ele>
        <time>2011-06-28T07:57:36Z</time>
      </trkpt>
      <trkpt lat="44.38943" lon="6.16358">
        <ele>1037.399902</ele>
        <time>2011-06-28T07:57:53Z</time>
      </trkpt>
      <trkpt lat="44.38904" lon="6.16348">
        <ele>1040.283936</ele>
        <time>2011-06-28T07:58:15Z</time>
      </trkpt>
      <trkpt lat="44.38862" lon="6.16332">
        <ele>1043.167725</ele>
        <time>2011-06-28T07:58:39Z</time>
      </trkpt>
      <trkpt lat="44.38829" lon="6.16304">
        <ele>1045.571045</ele>
        <time>2011-06-28T07:59:00Z</time>
      </trkpt>
      <trkpt lat="44.38807" lon="6.16283">
        <ele>1048.454834</ele>
        <time>2011-06-28T07:59:18Z</time>
      </trkpt>
      <trkpt lat="44.38776" lon="6.16262">
        <ele>1051.338867</ele>
        <time>2011-06-28T07:59:40Z</time>
      </trkpt>
      <trkpt lat="44.38749" lon="6.16254">
        <ele>1054.223145</ele>
        <time>2011-06-28T07:59:59Z</time>
      </trkpt>
      <trkpt lat="44.38725" lon="6.16255">
        <ele>1057.587646</ele>
        <time>2011-06-28T08:00:16Z</time>
      </trkpt>
      <trkpt lat="44.387" lon="6.16256">
        <ele>1059.990723</ele>
        <time>2011-06-28T08:00:33Z</time>
      </trkpt>
      <trkpt lat="44.38667" lon="6.16246">
        <ele>1062.394043</ele>
        <time>2011-06-28T08:00:55Z</time>
      </trkpt>
      <trkpt lat="44.38643" lon="6.16226">
        <ele>1064.797363</ele>
        <time>2011-06-28T08:01:13Z</time>
      </trkpt>
      <trkpt lat="44.38617" lon="6.16213">
        <ele>1067.200684</ele>
        <time>2011-06-28T08:01:31Z</time>
      </trkpt>
      <trkpt lat="44.3859" lon="6.16218">
        <ele>1068.642822</ele>
        <time>2011-06-28T08:01:47Z</time>
      </trkpt>
      <trkpt lat="44.38554" lon="6.16224">
        <ele>1068.642822</ele>
        <time>2011-06-28T08:02:01Z</time>
      </trkpt>
      <trkpt lat="44.38495" lon="6.16234">
        <ele>1068.162109</ele>
        <time>2011-06-28T08:02:20Z</time>
      </trkpt>
      <trkpt lat="44.38448" lon="6.1623">
        <ele>1069.123535</ele>
        <time>2011-06-28T08:02:37Z</time>
      </trkpt>
      <trkpt lat="44.38409" lon="6.16232">
        <ele>1071.046143</ele>
        <time>2011-06-28T08:02:54Z</time>
      </trkpt>
      <trkpt lat="44.38381" lon="6.16221">
        <ele>1072.96875</ele>
        <time>2011-06-28T08:03:09Z</time>
      </trkpt>
      <trkpt lat="44.38353" lon="6.16262">
        <ele>1076.333252</ele>
        <time>2011-06-28T08:03:30Z</time>
      </trkpt>
      <trkpt lat="44.38329" lon="6.16285">
        <ele>1079.217041</ele>
        <time>2011-06-28T08:03:50Z</time>
      </trkpt>
      <trkpt lat="44.38306" lon="6.16311">
        <ele>1082.101074</ele>
        <time>2011-06-28T08:04:10Z</time>
      </trkpt>
      <trkpt lat="44.38289" lon="6.16338">
        <ele>1084.985352</ele>
        <time>2011-06-28T08:04:28Z</time>
      </trkpt>
      <trkpt lat="44.38264" lon="6.16373">
        <ele>1087.869141</ele>
        <time>2011-06-28T08:04:52Z</time>
      </trkpt>
      <trkpt lat="44.38237" lon="6.16392">
        <ele>1091.233643</ele>
        <time>2011-06-28T08:05:12Z</time>
      </trkpt>
      <trkpt lat="44.38213" lon="6.16407">
        <ele>1093.15625</ele>
        <time>2011-06-28T08:05:28Z</time>
      </trkpt>
      <trkpt lat="44.38184" lon="6.16421">
        <ele>1095.55957</ele>
        <time>2011-06-28T08:05:49Z</time>
      </trkpt>
      <trkpt lat="44.38156" lon="6.1645">
        <ele>1098.443359</ele>
        <time>2011-06-28T08:06:13Z</time>
      </trkpt>
      <trkpt lat="44.38128" lon="6.16454">
        <ele>1099.404785</ele>
        <time>2011-06-28T08:06:29Z</time>
      </trkpt>
      <trkpt lat="44.38104" lon="6.16442">
        <ele>1101.327637</ele>
        <time>2011-06-28T08:06:44Z</time>
      </trkpt>
      <trkpt lat="44.38068" lon="6.16429">
        <ele>1102.288818</ele>
        <time>2011-06-28T08:07:04Z</time>
      </trkpt>
      <trkpt lat="44.38041" lon="6.16415">
        <ele>1103.730957</ele>
        <time>2011-06-28T08:07:21Z</time>
      </trkpt>
      <trkpt lat="44.38026" lon="6.16399">
        <ele>1104.692139</ele>
        <time>2011-06-28T08:07:32Z</time>
      </trkpt>
      <trkpt lat="44.38003" lon="6.16379">
        <ele>1105.653564</ele>
        <time>2011-06-28T08:07:46Z</time>
      </trkpt>
      <trkpt lat="44.37994" lon="6.16364">
        <ele>1107.095459</ele>
        <time>2011-06-28T08:07:54Z</time>
      </trkpt>
      <trkpt lat="44.37993" lon="6.1636">
        <ele>1107.095459</ele>
        <time>2011-06-28T08:07:56Z</time>
      </trkpt>
      <trkpt lat="44.37987" lon="6.16344">
        <ele>1109.018066</ele>
        <time>2011-06-28T08:08:04Z</time>
      </trkpt>
      <trkpt lat="44.37985" lon="6.16328">
        <ele>1108.537354</ele>
        <time>2011-06-28T08:08:11Z</time>
      </trkpt>
      <trkpt lat="44.37987" lon="6.16318">
        <ele>1109.498779</ele>
        <time>2011-06-28T08:08:16Z</time>
      </trkpt>
      <trkpt lat="44.38" lon="6.16283">
        <ele>1112.382568</ele>
        <time>2011-06-28T08:08:35Z</time>
      </trkpt>
      <trkpt lat="44.38" lon="6.16283">
        <ele>1112.863281</ele>
        <time>2011-06-28T08:08:37Z</time>
      </trkpt>
      <trkpt lat="44.37975" lon="6.16276">
        <ele>1115.266602</ele>
        <time>2011-06-28T08:08:55Z</time>
      </trkpt>
      <trkpt lat="44.37951" lon="6.16291">
        <ele>1118.150635</ele>
        <time>2011-06-28T08:09:14Z</time>
      </trkpt>
      <trkpt lat="44.3795" lon="6.16291">
        <ele>1118.631348</ele>
        <time>2011-06-28T08:09:17Z</time>
      </trkpt>
      <trkpt lat="44.37933" lon="6.16306">
        <ele>1120.553955</ele>
        <time>2011-06-28T08:09:30Z</time>
      </trkpt>
      <trkpt lat="44.37915" lon="6.16309">
        <ele>1123.437988</ele>
        <time>2011-06-28T08:09:43Z</time>
      </trkpt>
      <trkpt lat="44.37899" lon="6.16305">
        <ele>1124.39917</ele>
        <time>2011-06-28T08:09:55Z</time>
      </trkpt>
      <trkpt lat="44.37884" lon="6.16305">
        <ele>1126.321777</ele>
        <time>2011-06-28T08:10:11Z</time>
      </trkpt>
      <trkpt lat="44.37877" lon="6.16306">
        <ele>1126.321777</ele>
        <time>2011-06-28T08:10:13Z</time>
      </trkpt>
      <trkpt lat="44.37851" lon="6.16308">
        <ele>1128.244385</ele>
        <time>2011-06-28T08:10:29Z</time>
      </trkpt>
      <trkpt lat="44.37839" lon="6.16309">
        <ele>1129.205566</ele>
        <time>2011-06-28T08:10:37Z</time>
      </trkpt>
      <trkpt lat="44.37837" lon="6.16309">
        <ele>1129.205566</ele>
        <time>2011-06-28T08:10:39Z</time>
      </trkpt>
      <trkpt lat="44.3781" lon="6.16311">
        <ele>1130.647705</ele>
        <time>2011-06-28T08:10:58Z</time>
      </trkpt>
      <trkpt lat="44.37786" lon="6.16313">
        <ele>1133.531738</ele>
        <time>2011-06-28T08:11:14Z</time>
      </trkpt>
      <trkpt lat="44.37779" lon="6.16314">
        <ele>1134.012451</ele>
        <time>2011-06-28T08:11:18Z</time>
      </trkpt>
      <trkpt lat="44.37743" lon="6.16316">
        <ele>1136.89624</ele>
        <time>2011-06-28T08:11:40Z</time>
      </trkpt>
      <trkpt lat="44.37719" lon="6.16313">
        <ele>1138.338379</ele>
        <time>2011-06-28T08:11:56Z</time>
      </trkpt>
      <trkpt lat="44.377" lon="6.16308">
        <ele>1139.780273</ele>
        <time>2011-06-28T08:12:08Z</time>
      </trkpt>
      <trkpt lat="44.37693" lon="6.16305">
        <ele>1140.741455</ele>
        <time>2011-06-28T08:12:13Z</time>
      </trkpt>
      <trkpt lat="44.37659" lon="6.1632">
        <ele>1143.144775</ele>
        <time>2011-06-28T08:12:36Z</time>
      </trkpt>
      <trkpt lat="44.3762" lon="6.16331">
        <ele>1146.028809</ele>
        <time>2011-06-28T08:13:01Z</time>
      </trkpt>
      <trkpt lat="44.37587" lon="6.16352">
        <ele>1148.432129</ele>
        <time>2011-06-28T08:13:20Z</time>
      </trkpt>
      <trkpt lat="44.37548" lon="6.16376">
        <ele>1150.835449</ele>
        <time>2011-06-28T08:13:42Z</time>
      </trkpt>
      <trkpt lat="44.3751" lon="6.16397">
        <ele>1153.719482</ele>
        <time>2011-06-28T08:14:04Z</time>
      </trkpt>
      <trkpt lat="44.37494" lon="6.16406">
        <ele>1154.200195</ele>
        <time>2011-06-28T08:14:11Z</time>
      </trkpt>
      <trkpt lat="44.37464" lon="6.16419">
        <ele>1155.161377</ele>
        <time>2011-06-28T08:14:25Z</time>
      </trkpt>
      <trkpt lat="44.37433" lon="6.1643">
        <ele>1154.680664</ele>
        <time>2011-06-28T08:14:34Z</time>
      </trkpt>
      <trkpt lat="44.37401" lon="6.16443">
        <ele>1152.758057</ele>
        <time>2011-06-28T08:14:40Z</time>
      </trkpt>
      <trkpt lat="44.37313" lon="6.16481">
        <ele>1152.277344</ele>
        <time>2011-06-28T08:14:54Z</time>
      </trkpt>
      <trkpt lat="44.37307" lon="6.16483">
        <ele>1152.758057</ele>
        <time>2011-06-28T08:14:55Z</time>
      </trkpt>
      <trkpt lat="44.37278" lon="6.16495">
        <ele>1151.316162</ele>
        <time>2011-06-28T08:15:00Z</time>
      </trkpt>
      <trkpt lat="44.37234" lon="6.16524">
        <ele>1148.432129</ele>
        <time>2011-06-28T08:15:07Z</time>
      </trkpt>
      <trkpt lat="44.37197" lon="6.16566">
        <ele>1146.98999</ele>
        <time>2011-06-28T08:15:13Z</time>
      </trkpt>
      <trkpt lat="44.37152" lon="6.16594">
        <ele>1145.548096</ele>
        <time>2011-06-28T08:15:19Z</time>
      </trkpt>
      <trkpt lat="44.37126" lon="6.16616">
        <ele>1146.028809</ele>
        <time>2011-06-28T08:15:23Z</time>
      </trkpt>
      <trkpt lat="44.37117" lon="6.16677">
        <ele>1143.144775</ele>
        <time>2011-06-28T08:15:30Z</time>
      </trkpt>
      <trkpt lat="44.3712" lon="6.16709">
        <ele>1143.144775</ele>
        <time>2011-06-28T08:15:33Z</time>
      </trkpt>
      <trkpt lat="44.37099" lon="6.1674">
        <ele>1140.741455</ele>
        <time>2011-06-28T08:15:40Z</time>
      </trkpt>
      <trkpt lat="44.37092" lon="6.16738">
        <ele>1139.780273</ele>
        <time>2011-06-28T08:15:41Z</time>
      </trkpt>
      <trkpt lat="44.37076" lon="6.16735">
        <ele>1138.819092</ele>
        <time>2011-06-28T08:15:43Z</time>
      </trkpt>
      <trkpt lat="44.37051" lon="6.16747">
        <ele>1135.454346</ele>
        <time>2011-06-28T08:15:46Z</time>
      </trkpt>
      <trkpt lat="44.37043" lon="6.16751">
        <ele>1135.454346</ele>
        <time>2011-06-28T08:15:47Z</time>
      </trkpt>
      <trkpt lat="44.37023" lon="6.16761">
        <ele>1133.051025</ele>
        <time>2011-06-28T08:15:49Z</time>
      </trkpt>
      <trkpt lat="44.37003" lon="6.16771">
        <ele>1131.128418</ele>
        <time>2011-06-28T08:15:51Z</time>
      </trkpt>
      <trkpt lat="44.36976" lon="6.16785">
        <ele>1128.725098</ele>
        <time>2011-06-28T08:15:54Z</time>
      </trkpt>
      <trkpt lat="44.36967" lon="6.16789">
        <ele>1128.725098</ele>
        <time>2011-06-28T08:15:55Z</time>
      </trkpt>
      <trkpt lat="44.36925" lon="6.16837">
        <ele>1126.321777</ele>
        <time>2011-06-28T08:16:01Z</time>
      </trkpt>
      <trkpt lat="44.36914" lon="6.1685">
        <ele>1126.321777</ele>
        <time>2011-06-28T08:16:03Z</time>
      </trkpt>
      <trkpt lat="44.36839" lon="6.16903">
        <ele>1122.476563</ele>
        <time>2011-06-28T08:16:14Z</time>
      </trkpt>
      <trkpt lat="44.36829" lon="6.16908">
        <ele>1122.957275</ele>
        <time>2011-06-28T08:16:15Z</time>
      </trkpt>
      <trkpt lat="44.36811" lon="6.16918">
        <ele>1120.073242</ele>
        <time>2011-06-28T08:16:17Z</time>
      </trkpt>
      <trkpt lat="44.36791" lon="6.16927">
        <ele>1119.112061</ele>
        <time>2011-06-28T08:16:19Z</time>
      </trkpt>
      <trkpt lat="44.36747" lon="6.16946">
        <ele>1116.228027</ele>
        <time>2011-06-28T08:16:24Z</time>
      </trkpt>
      <trkpt lat="44.36697" lon="6.16961">
        <ele>1114.305176</ele>
        <time>2011-06-28T08:16:31Z</time>
      </trkpt>
      <trkpt lat="44.36651" lon="6.17014">
        <ele>1110.459961</ele>
        <time>2011-06-28T08:16:39Z</time>
      </trkpt>
      <trkpt lat="44.3663" lon="6.17033">
        <ele>1109.498779</ele>
        <time>2011-06-28T08:16:42Z</time>
      </trkpt>
      <trkpt lat="44.36606" lon="6.17044">
        <ele>1106.614746</ele>
        <time>2011-06-28T08:16:45Z</time>
      </trkpt>
      <trkpt lat="44.36587" lon="6.17053">
        <ele>1104.692139</ele>
        <time>2011-06-28T08:16:47Z</time>
      </trkpt>
      <trkpt lat="44.36549" lon="6.17076">
        <ele>1101.327637</ele>
        <time>2011-06-28T08:16:51Z</time>
      </trkpt>
      <trkpt lat="44.3654" lon="6.17081">
        <ele>1101.327637</ele>
        <time>2011-06-28T08:16:52Z</time>
      </trkpt>
      <trkpt lat="44.36521" lon="6.17089">
        <ele>1099.885498</ele>
        <time>2011-06-28T08:16:54Z</time>
      </trkpt>
      <trkpt lat="44.36478" lon="6.17102">
        <ele>1097.962891</ele>
        <time>2011-06-28T08:16:59Z</time>
      </trkpt>
      <trkpt lat="44.36469" lon="6.17105">
        <ele>1096.040283</ele>
        <time>2011-06-28T08:17:00Z</time>
      </trkpt>
      <trkpt lat="44.3644" lon="6.17104">
        <ele>1094.598145</ele>
        <time>2011-06-28T08:17:03Z</time>
      </trkpt>
      <trkpt lat="44.3636" lon="6.17083">
        <ele>1091.233643</ele>
        <time>2011-06-28T08:17:13Z</time>
      </trkpt>
      <trkpt lat="44.36345" lon="6.17082">
        <ele>1090.75293</ele>
        <time>2011-06-28T08:17:15Z</time>
      </trkpt>
      <trkpt lat="44.36313" lon="6.17078">
        <ele>1088.349854</ele>
        <time>2011-06-28T08:17:19Z</time>
      </trkpt>
      <trkpt lat="44.36287" lon="6.17058">
        <ele>1085.946533</ele>
        <time>2011-06-28T08:17:23Z</time>
      </trkpt>
      <trkpt lat="44.36274" lon="6.17044">
        <ele>1084.985352</ele>
        <time>2011-06-28T08:17:25Z</time>
      </trkpt>
      <trkpt lat="44.36249" lon="6.17016">
        <ele>1083.062256</ele>
        <time>2011-06-28T08:17:29Z</time>
      </trkpt>
      <trkpt lat="44.36237" lon="6.17">
        <ele>1081.620361</ele>
        <time>2011-06-28T08:17:31Z</time>
      </trkpt>
      <trkpt lat="44.36231" lon="6.16993">
        <ele>1081.620361</ele>
        <time>2011-06-28T08:17:32Z</time>
      </trkpt>
      <trkpt lat="44.36203" lon="6.16978">
        <ele>1079.697754</ele>
        <time>2011-06-28T08:17:36Z</time>
      </trkpt>
      <trkpt lat="44.3619" lon="6.16976">
        <ele>1076.813965</ele>
        <time>2011-06-28T08:17:38Z</time>
      </trkpt>
      <trkpt lat="44.36166" lon="6.16975">
        <ele>1076.333252</ele>
        <time>2011-06-28T08:17:41Z</time>
      </trkpt>
      <trkpt lat="44.36148" lon="6.16965">
        <ele>1074.891357</ele>
        <time>2011-06-28T08:17:43Z</time>
      </trkpt>
      <trkpt lat="44.36132" lon="6.16957">
        <ele>1073.449463</ele>
        <time>2011-06-28T08:17:45Z</time>
      </trkpt>
      <trkpt lat="44.36123" lon="6.16953">
        <ele>1071.046143</ele>
        <time>2011-06-28T08:17:46Z</time>
      </trkpt>
      <trkpt lat="44.36091" lon="6.16947">
        <ele>1069.604248</ele>
        <time>2011-06-28T08:17:50Z</time>
      </trkpt>
      <trkpt lat="44.36064" lon="6.16928">
        <ele>1067.200684</ele>
        <time>2011-06-28T08:17:54Z</time>
      </trkpt>
      <trkpt lat="44.36047" lon="6.16928">
        <ele>1065.758789</ele>
        <time>2011-06-28T08:17:56Z</time>
      </trkpt>
      <trkpt lat="44.3604" lon="6.16926">
        <ele>1064.31665</ele>
        <time>2011-06-28T08:17:57Z</time>
      </trkpt>
      <trkpt lat="44.35996" lon="6.16895">
        <ele>1060.952148</ele>
        <time>2011-06-28T08:18:03Z</time>
      </trkpt>
      <trkpt lat="44.35956" lon="6.16875">
        <ele>1057.587646</ele>
        <time>2011-06-28T08:18:09Z</time>
      </trkpt>
      <trkpt lat="44.35947" lon="6.16869">
        <ele>1057.106934</ele>
        <time>2011-06-28T08:18:11Z</time>
      </trkpt>
      <trkpt lat="44.35933" lon="6.16865">
        <ele>1055.665039</ele>
        <time>2011-06-28T08:18:13Z</time>
      </trkpt>
      <trkpt lat="44.35916" lon="6.16868">
        <ele>1054.703613</ele>
        <time>2011-06-28T08:18:15Z</time>
      </trkpt>
      <trkpt lat="44.35902" lon="6.16879">
        <ele>1052.781006</ele>
        <time>2011-06-28T08:18:17Z</time>
      </trkpt>
      <trkpt lat="44.35897" lon="6.16884">
        <ele>1052.300293</ele>
        <time>2011-06-28T08:18:18Z</time>
      </trkpt>
      <trkpt lat="44.35888" lon="6.16892">
        <ele>1051.338867</ele>
        <time>2011-06-28T08:18:20Z</time>
      </trkpt>
      <trkpt lat="44.35877" lon="6.16885">
        <ele>1050.858154</ele>
        <time>2011-06-28T08:18:22Z</time>
      </trkpt>
      <trkpt lat="44.35866" lon="6.16878">
        <ele>1048.935547</ele>
        <time>2011-06-28T08:18:27Z</time>
      </trkpt>
      <trkpt lat="44.35875" lon="6.16873">
        <ele>1048.454834</ele>
        <time>2011-06-28T08:18:29Z</time>
      </trkpt>
      <trkpt lat="44.35876" lon="6.1686">
        <ele>1047.493652</ele>
        <time>2011-06-28T08:18:31Z</time>
      </trkpt>
      <trkpt lat="44.35864" lon="6.16816">
        <ele>1044.12915</ele>
        <time>2011-06-28T08:18:37Z</time>
      </trkpt>
      <trkpt lat="44.35851" lon="6.168">
        <ele>1044.12915</ele>
        <time>2011-06-28T08:18:40Z</time>
      </trkpt>
      <trkpt lat="44.35848" lon="6.16789">
        <ele>1042.206543</ele>
        <time>2011-06-28T08:18:42Z</time>
      </trkpt>
      <trkpt lat="44.3583" lon="6.1676">
        <ele>1039.32251</ele>
        <time>2011-06-28T08:18:48Z</time>
      </trkpt>
      <trkpt lat="44.35831" lon="6.16771">
        <ele>1037.880615</ele>
        <time>2011-06-28T08:18:50Z</time>
      </trkpt>
      <trkpt lat="44.35843" lon="6.16694">
        <ele>1034.996582</ele>
        <time>2011-06-28T08:18:54Z</time>
      </trkpt>
      <trkpt lat="44.3584" lon="6.16685">
        <ele>1033.07373</ele>
        <time>2011-06-28T08:18:55Z</time>
      </trkpt>
      <trkpt lat="44.3583" lon="6.16672">
        <ele>1031.631836</ele>
        <time>2011-06-28T08:18:57Z</time>
      </trkpt>
      <trkpt lat="44.35812" lon="6.16665">
        <ele>1030.670654</ele>
        <time>2011-06-28T08:19:00Z</time>
      </trkpt>
      <trkpt lat="44.35802" lon="6.1666">
        <ele>1030.189941</ele>
        <time>2011-06-28T08:19:02Z</time>
      </trkpt>
      <trkpt lat="44.3579" lon="6.16655">
        <ele>1029.709229</ele>
        <time>2011-06-28T08:19:05Z</time>
      </trkpt>
      <trkpt lat="44.35794" lon="6.1667">
        <ele>1027.306152</ele>
        <time>2011-06-28T08:19:11Z</time>
      </trkpt>
      <trkpt lat="44.35798" lon="6.16671">
        <ele>1026.344727</ele>
        <time>2011-06-28T08:19:12Z</time>
      </trkpt>
      <trkpt lat="44.35827" lon="6.16704">
        <ele>1023.941406</ele>
        <time>2011-06-28T08:19:18Z</time>
      </trkpt>
      <trkpt lat="44.35827" lon="6.16714">
        <ele>1022.980225</ele>
        <time>2011-06-28T08:19:19Z</time>
      </trkpt>
      <trkpt lat="44.35829" lon="6.16745">
        <ele>1022.499512</ele>
        <time>2011-06-28T08:19:24Z</time>
      </trkpt>
      <trkpt lat="44.35831" lon="6.16769">
        <ele>1021.057617</ele>
        <time>2011-06-28T08:19:26Z</time>
      </trkpt>
      <trkpt lat="44.3583" lon="6.16763">
        <ele>1021.057617</ele>
        <time>2011-06-28T08:19:28Z</time>
      </trkpt>
      <trkpt lat="44.35819" lon="6.16776">
        <ele>1019.134766</ele>
        <time>2011-06-28T08:19:34Z</time>
      </trkpt>
      <trkpt lat="44.35823" lon="6.16766">
        <ele>1018.654053</ele>
        <time>2011-06-28T08:19:35Z</time>
      </trkpt>
      <trkpt lat="44.35818" lon="6.16739">
        <ele>1017.212158</ele>
        <time>2011-06-28T08:19:38Z</time>
      </trkpt>
      <trkpt lat="44.35813" lon="6.16718">
        <ele>1014.808838</ele>
        <time>2011-06-28T08:19:40Z</time>
      </trkpt>
      <trkpt lat="44.35779" lon="6.16683">
        <ele>1012.88623</ele>
        <time>2011-06-28T08:19:48Z</time>
      </trkpt>
      <trkpt lat="44.35773" lon="6.16685">
        <ele>1012.88623</ele>
        <time>2011-06-28T08:19:50Z</time>
      </trkpt>
      <trkpt lat="44.35773" lon="6.16709">
        <ele>1010.963623</ele>
        <time>2011-06-28T08:19:54Z</time>
      </trkpt>
      <trkpt lat="44.35781" lon="6.16718">
        <ele>1010.002197</ele>
        <time>2011-06-28T08:19:56Z</time>
      </trkpt>
      <trkpt lat="44.35791" lon="6.16737">
        <ele>1008.560303</ele>
        <time>2011-06-28T08:19:59Z</time>
      </trkpt>
      <trkpt lat="44.35794" lon="6.16749">
        <ele>1007.599121</ele>
        <time>2011-06-28T08:20:01Z</time>
      </trkpt>
      <trkpt lat="44.358" lon="6.16769">
        <ele>1007.118408</ele>
        <time>2011-06-28T08:20:05Z</time>
      </trkpt>
      <trkpt lat="44.3579" lon="6.16751">
        <ele>1004.715088</ele>
        <time>2011-06-28T08:20:10Z</time>
      </trkpt>
      <trkpt lat="44.35791" lon="6.16737">
        <ele>1004.234619</ele>
        <time>2011-06-28T08:20:12Z</time>
      </trkpt>
      <trkpt lat="44.35772" lon="6.16708">
        <ele>1000.869629</ele>
        <time>2011-06-28T08:20:17Z</time>
      </trkpt>
      <trkpt lat="44.35767" lon="6.16703">
        <ele>1000.869629</ele>
        <time>2011-06-28T08:20:18Z</time>
      </trkpt>
      <trkpt lat="44.3576" lon="6.16698">
        <ele>999.908447</ele>
        <time>2011-06-28T08:20:19Z</time>
      </trkpt>
      <trkpt lat="44.35735" lon="6.16699">
        <ele>997.98584</ele>
        <time>2011-06-28T08:20:23Z</time>
      </trkpt>
      <trkpt lat="44.35725" lon="6.16695">
        <ele>997.024414</ele>
        <time>2011-06-28T08:20:25Z</time>
      </trkpt>
      <trkpt lat="44.35711" lon="6.16682">
        <ele>995.101807</ele>
        <time>2011-06-28T08:20:27Z</time>
      </trkpt>
      <trkpt lat="44.3567" lon="6.16702">
        <ele>991.737305</ele>
        <time>2011-06-28T08:20:32Z</time>
      </trkpt>
      <trkpt lat="44.35653" lon="6.16719">
        <ele>989.814697</ele>
        <time>2011-06-28T08:20:34Z</time>
      </trkpt>
      <trkpt lat="44.35639" lon="6.16733">
        <ele>988.372803</ele>
        <time>2011-06-28T08:20:36Z</time>
      </trkpt>
      <trkpt lat="44.35627" lon="6.16743">
        <ele>986.93042</ele>
        <time>2011-06-28T08:20:38Z</time>
      </trkpt>
      <trkpt lat="44.35608" lon="6.16749">
        <ele>985.488525</ele>
        <time>2011-06-28T08:20:41Z</time>
      </trkpt>
      <trkpt lat="44.35601" lon="6.16748">
        <ele>984.527344</ele>
        <time>2011-06-28T08:20:42Z</time>
      </trkpt>
      <trkpt lat="44.35587" lon="6.16746">
        <ele>983.565918</ele>
        <time>2011-06-28T08:20:44Z</time>
      </trkpt>
      <trkpt lat="44.35574" lon="6.16751">
        <ele>982.604736</ele>
        <time>2011-06-28T08:20:46Z</time>
      </trkpt>
      <trkpt lat="44.35568" lon="6.16755">
        <ele>981.162842</ele>
        <time>2011-06-28T08:20:47Z</time>
      </trkpt>
      <trkpt lat="44.35545" lon="6.16763">
        <ele>979.23999</ele>
        <time>2011-06-28T08:20:50Z</time>
      </trkpt>
      <trkpt lat="44.35529" lon="6.16767">
        <ele>977.798096</ele>
        <time>2011-06-28T08:20:52Z</time>
      </trkpt>
      <trkpt lat="44.35504" lon="6.16773">
        <ele>975.394775</ele>
        <time>2011-06-28T08:20:55Z</time>
      </trkpt>
      <trkpt lat="44.35489" lon="6.16775">
        <ele>974.914307</ele>
        <time>2011-06-28T08:20:57Z</time>
      </trkpt>
      <trkpt lat="44.3547" lon="6.16774">
        <ele>973.472412</ele>
        <time>2011-06-28T08:20:59Z</time>
      </trkpt>
      <trkpt lat="44.35457" lon="6.16771">
        <ele>973.472412</ele>
        <time>2011-06-28T08:21:01Z</time>
      </trkpt>
      <trkpt lat="44.35444" lon="6.16792">
        <ele>971.068848</ele>
        <time>2011-06-28T08:21:07Z</time>
      </trkpt>
      <trkpt lat="44.35455" lon="6.16792">
        <ele>970.588135</ele>
        <time>2011-06-28T08:21:09Z</time>
      </trkpt>
      <trkpt lat="44.3547" lon="6.16838">
        <ele>966.262207</ele>
        <time>2011-06-28T08:21:16Z</time>
      </trkpt>
      <trkpt lat="44.35458" lon="6.16848">
        <ele>964.3396</ele>
        <time>2011-06-28T08:21:18Z</time>
      </trkpt>
      <trkpt lat="44.35429" lon="6.16869">
        <ele>959.533203</ele>
        <time>2011-06-28T08:21:22Z</time>
      </trkpt>
      <trkpt lat="44.35421" lon="6.16875">
        <ele>959.533203</ele>
        <time>2011-06-28T08:21:23Z</time>
      </trkpt>
      <trkpt lat="44.35404" lon="6.16887">
        <ele>958.571777</ele>
        <time>2011-06-28T08:21:25Z</time>
      </trkpt>
      <trkpt lat="44.35385" lon="6.16897">
        <ele>956.168457</ele>
        <time>2011-06-28T08:21:27Z</time>
      </trkpt>
      <trkpt lat="44.35355" lon="6.16913">
        <ele>953.765137</ele>
        <time>2011-06-28T08:21:30Z</time>
      </trkpt>
      <trkpt lat="44.35334" lon="6.16921">
        <ele>951.361816</ele>
        <time>2011-06-28T08:21:32Z</time>
      </trkpt>
      <trkpt lat="44.35313" lon="6.16927">
        <ele>948.958496</ele>
        <time>2011-06-28T08:21:34Z</time>
      </trkpt>
      <trkpt lat="44.35276" lon="6.16937">
        <ele>945.593994</ele>
        <time>2011-06-28T08:21:37Z</time>
      </trkpt>
      <trkpt lat="44.3526" lon="6.16941">
        <ele>943.190674</ele>
        <time>2011-06-28T08:21:39Z</time>
      </trkpt>
      <trkpt lat="44.35209" lon="6.16983">
        <ele>940.306885</ele>
        <time>2011-06-28T08:21:45Z</time>
      </trkpt>
      <trkpt lat="44.352" lon="6.16992">
        <ele>940.306885</ele>
        <time>2011-06-28T08:21:46Z</time>
      </trkpt>
      <trkpt lat="44.35182" lon="6.1701">
        <ele>938.384033</ele>
        <time>2011-06-28T08:21:48Z</time>
      </trkpt>
      <trkpt lat="44.35163" lon="6.17024">
        <ele>936.941895</ele>
        <time>2011-06-28T08:21:50Z</time>
      </trkpt>
      <trkpt lat="44.35126" lon="6.17054">
        <ele>933.577393</ele>
        <time>2011-06-28T08:21:54Z</time>
      </trkpt>
      <trkpt lat="44.35116" lon="6.17061">
        <ele>933.577393</ele>
        <time>2011-06-28T08:21:55Z</time>
      </trkpt>
      <trkpt lat="44.35077" lon="6.17088">
        <ele>929.251465</ele>
        <time>2011-06-28T08:21:59Z</time>
      </trkpt>
      <trkpt lat="44.35067" lon="6.17095">
        <ele>929.251465</ele>
        <time>2011-06-28T08:22:00Z</time>
      </trkpt>
      <trkpt lat="44.35047" lon="6.17108">
        <ele>927.329102</ele>
        <time>2011-06-28T08:22:02Z</time>
      </trkpt>
      <trkpt lat="44.35009" lon="6.17134">
        <ele>923.964111</ele>
        <time>2011-06-28T08:22:06Z</time>
      </trkpt>
      <trkpt lat="44.35" lon="6.17142">
        <ele>923.964111</ele>
        <time>2011-06-28T08:22:07Z</time>
      </trkpt>
      <trkpt lat="44.3494" lon="6.17178">
        <ele>920.118896</ele>
        <time>2011-06-28T08:22:13Z</time>
      </trkpt>
      <trkpt lat="44.34933" lon="6.17182">
        <ele>920.118896</ele>
        <time>2011-06-28T08:22:14Z</time>
      </trkpt>
      <trkpt lat="44.34892" lon="6.17199">
        <ele>918.196289</ele>
        <time>2011-06-28T08:22:18Z</time>
      </trkpt>
      <trkpt lat="44.34881" lon="6.17202">
        <ele>916.754395</ele>
        <time>2011-06-28T08:22:19Z</time>
      </trkpt>
      <trkpt lat="44.34841" lon="6.17206">
        <ele>913.870361</ele>
        <time>2011-06-28T08:22:23Z</time>
      </trkpt>
      <trkpt lat="44.34796" lon="6.17213">
        <ele>910.986572</ele>
        <time>2011-06-28T08:22:28Z</time>
      </trkpt>
      <trkpt lat="44.34777" lon="6.17218">
        <ele>909.544678</ele>
        <time>2011-06-28T08:22:30Z</time>
      </trkpt>
      <trkpt lat="44.34721" lon="6.17236">
        <ele>905.699219</ele>
        <time>2011-06-28T08:22:36Z</time>
      </trkpt>
      <trkpt lat="44.34711" lon="6.17239">
        <ele>905.699219</ele>
        <time>2011-06-28T08:22:37Z</time>
      </trkpt>
      <trkpt lat="44.34692" lon="6.17245">
        <ele>904.737793</ele>
        <time>2011-06-28T08:22:39Z</time>
      </trkpt>
      <trkpt lat="44.34642" lon="6.17274">
        <ele>901.854004</ele>
        <time>2011-06-28T08:22:44Z</time>
      </trkpt>
      <trkpt lat="44.34624" lon="6.17289">
        <ele>899.931396</ele>
        <time>2011-06-28T08:22:46Z</time>
      </trkpt>
      <trkpt lat="44.34607" lon="6.17302">
        <ele>898.489258</ele>
        <time>2011-06-28T08:22:48Z</time>
      </trkpt>
      <trkpt lat="44.3458" lon="6.17321">
        <ele>897.047363</ele>
        <time>2011-06-28T08:22:51Z</time>
      </trkpt>
      <trkpt lat="44.34539" lon="6.1735">
        <ele>895.605469</ele>
        <time>2011-06-28T08:22:56Z</time>
      </trkpt>
      <trkpt lat="44.3451" lon="6.17352">
        <ele>895.124756</ele>
        <time>2011-06-28T08:23:00Z</time>
      </trkpt>
      <trkpt lat="44.34495" lon="6.17344">
        <ele>895.124756</ele>
        <time>2011-06-28T08:23:02Z</time>
      </trkpt>
      <trkpt lat="44.3445" lon="6.17349">
        <ele>891.76001</ele>
        <time>2011-06-28T08:23:09Z</time>
      </trkpt>
      <trkpt lat="44.34409" lon="6.17361">
        <ele>888.876221</ele>
        <time>2011-06-28T08:23:14Z</time>
      </trkpt>
      <trkpt lat="44.3439" lon="6.17363">
        <ele>887.434082</ele>
        <time>2011-06-28T08:23:16Z</time>
      </trkpt>
      <trkpt lat="44.34352" lon="6.1736">
        <ele>883.108154</ele>
        <time>2011-06-28T08:23:20Z</time>
      </trkpt>
      <trkpt lat="44.34343" lon="6.17359">
        <ele>883.108154</ele>
        <time>2011-06-28T08:23:21Z</time>
      </trkpt>
      <trkpt lat="44.34323" lon="6.17357">
        <ele>881.66626</ele>
        <time>2011-06-28T08:23:23Z</time>
      </trkpt>
      <trkpt lat="44.34287" lon="6.17354">
        <ele>881.66626</ele>
        <time>2011-06-28T08:23:28Z</time>
      </trkpt>
      <trkpt lat="44.34266" lon="6.1736">
        <ele>880.705078</ele>
        <time>2011-06-28T08:23:32Z</time>
      </trkpt>
      <trkpt lat="44.34219" lon="6.1738">
        <ele>877.340576</ele>
        <time>2011-06-28T08:23:40Z</time>
      </trkpt>
      <trkpt lat="44.3418" lon="6.17389">
        <ele>876.37915</ele>
        <time>2011-06-28T08:23:47Z</time>
      </trkpt>
      <trkpt lat="44.34168" lon="6.17418">
        <ele>875.41748</ele>
        <time>2011-06-28T08:23:56Z</time>
      </trkpt>
      <trkpt lat="44.34164" lon="6.17473">
        <ele>874.937012</ele>
        <time>2011-06-28T08:24:08Z</time>
      </trkpt>
      <trkpt lat="44.34161" lon="6.17503">
        <ele>874.937012</ele>
        <time>2011-06-28T08:24:14Z</time>
      </trkpt>
      <trkpt lat="44.34134" lon="6.17548">
        <ele>873.495117</ele>
        <time>2011-06-28T08:24:24Z</time>
      </trkpt>
      <trkpt lat="44.34129" lon="6.17604">
        <ele>871.091797</ele>
        <time>2011-06-28T08:24:33Z</time>
      </trkpt>
      <trkpt lat="44.34131" lon="6.17609">
        <ele>871.572266</ele>
        <time>2011-06-28T08:24:34Z</time>
      </trkpt>
      <trkpt lat="44.3415" lon="6.17664">
        <ele>871.572266</ele>
        <time>2011-06-28T08:24:47Z</time>
      </trkpt>
      <trkpt lat="44.34168" lon="6.17713">
        <ele>873.975586</ele>
        <time>2011-06-28T08:25:01Z</time>
      </trkpt>
      <trkpt lat="44.34192" lon="6.17751">
        <ele>873.975586</ele>
        <time>2011-06-28T08:25:15Z</time>
      </trkpt>
      <trkpt lat="44.34212" lon="6.17791">
        <ele>876.37915</ele>
        <time>2011-06-28T08:25:29Z</time>
      </trkpt>
      <trkpt lat="44.34235" lon="6.1785">
        <ele>876.859863</ele>
        <time>2011-06-28T08:25:49Z</time>
      </trkpt>
      <trkpt lat="44.34253" lon="6.17902">
        <ele>878.301758</ele>
        <time>2011-06-28T08:26:06Z</time>
      </trkpt>
      <trkpt lat="44.34273" lon="6.17955">
        <ele>879.743652</ele>
        <time>2011-06-28T08:26:23Z</time>
      </trkpt>
      <trkpt lat="44.34292" lon="6.18012">
        <ele>880.224365</ele>
        <time>2011-06-28T08:26:40Z</time>
      </trkpt>
      <trkpt lat="44.34309" lon="6.18057">
        <ele>881.185791</ele>
        <time>2011-06-28T08:26:54Z</time>
      </trkpt>
      <trkpt lat="44.34327" lon="6.18108">
        <ele>883.108154</ele>
        <time>2011-06-28T08:27:11Z</time>
      </trkpt>
      <trkpt lat="44.3435" lon="6.18165">
        <ele>883.588867</ele>
        <time>2011-06-28T08:27:29Z</time>
      </trkpt>
      <trkpt lat="44.34368" lon="6.18223">
        <ele>885.511475</ele>
        <time>2011-06-28T08:27:47Z</time>
      </trkpt>
      <trkpt lat="44.34374" lon="6.18243">
        <ele>886.4729</ele>
        <time>2011-06-28T08:27:53Z</time>
      </trkpt>
      <trkpt lat="44.34406" lon="6.18301">
        <ele>886.953369</ele>
        <time>2011-06-28T08:28:14Z</time>
      </trkpt>
      <trkpt lat="44.34437" lon="6.18346">
        <ele>888.395508</ele>
        <time>2011-06-28T08:28:30Z</time>
      </trkpt>
      <trkpt lat="44.34464" lon="6.18402">
        <ele>888.876221</ele>
        <time>2011-06-28T08:28:48Z</time>
      </trkpt>
      <trkpt lat="44.34489" lon="6.1844">
        <ele>890.798584</ele>
        <time>2011-06-28T08:29:03Z</time>
      </trkpt>
      <trkpt lat="44.34524" lon="6.18484">
        <ele>892.72168</ele>
        <time>2011-06-28T08:29:25Z</time>
      </trkpt>
      <trkpt lat="44.34553" lon="6.18514">
        <ele>894.163574</ele>
        <time>2011-06-28T08:29:42Z</time>
      </trkpt>
      <trkpt lat="44.34578" lon="6.18543">
        <ele>897.047363</ele>
        <time>2011-06-28T08:29:59Z</time>
      </trkpt>
      <trkpt lat="44.34593" lon="6.18552">
        <ele>898.969971</ele>
        <time>2011-06-28T08:30:09Z</time>
      </trkpt>
      <trkpt lat="44.34629" lon="6.18534">
        <ele>898.489258</ele>
        <time>2011-06-28T08:30:23Z</time>
      </trkpt>
      <trkpt lat="44.34639" lon="6.18529">
        <ele>897.528076</ele>
        <time>2011-06-28T08:30:26Z</time>
      </trkpt>
      <trkpt lat="44.34656" lon="6.18526">
        <ele>896.566895</ele>
        <time>2011-06-28T08:30:30Z</time>
      </trkpt>
      <trkpt lat="44.34688" lon="6.1855">
        <ele>897.528076</ele>
        <time>2011-06-28T08:30:41Z</time>
      </trkpt>
      <trkpt lat="44.34714" lon="6.18577">
        <ele>899.450684</ele>
        <time>2011-06-28T08:30:53Z</time>
      </trkpt>
      <trkpt lat="44.34744" lon="6.1861">
        <ele>899.931396</ele>
        <time>2011-06-28T08:31:07Z</time>
      </trkpt>
      <trkpt lat="44.34764" lon="6.18626">
        <ele>899.931396</ele>
        <time>2011-06-28T08:31:15Z</time>
      </trkpt>
      <trkpt lat="44.34798" lon="6.18634">
        <ele>900.892578</ele>
        <time>2011-06-28T08:31:26Z</time>
      </trkpt>
      <trkpt lat="44.34807" lon="6.18635">
        <ele>900.412109</ele>
        <time>2011-06-28T08:31:30Z</time>
      </trkpt>
      <trkpt lat="44.34847" lon="6.18653">
        <ele>902.334473</ele>
        <time>2011-06-28T08:31:48Z</time>
      </trkpt>
      <trkpt lat="44.34862" lon="6.18689">
        <ele>903.295898</ele>
        <time>2011-06-28T08:32:01Z</time>
      </trkpt>
      <trkpt lat="44.34863" lon="6.18729">
        <ele>904.737793</ele>
        <time>2011-06-28T08:32:14Z</time>
      </trkpt>
      <trkpt lat="44.34863" lon="6.18758">
        <ele>905.699219</ele>
        <time>2011-06-28T08:32:24Z</time>
      </trkpt>
      <trkpt lat="44.34857" lon="6.188">
        <ele>906.6604</ele>
        <time>2011-06-28T08:32:39Z</time>
      </trkpt>
      <trkpt lat="44.34847" lon="6.18842">
        <ele>908.102783</ele>
        <time>2011-06-28T08:32:56Z</time>
      </trkpt>
      <trkpt lat="44.34856" lon="6.18871">
        <ele>910.025146</ele>
        <time>2011-06-28T08:33:08Z</time>
      </trkpt>
      <trkpt lat="44.3489" lon="6.18872">
        <ele>910.986572</ele>
        <time>2011-06-28T08:33:23Z</time>
      </trkpt>
      <trkpt lat="44.34905" lon="6.18898">
        <ele>911.947998</ele>
        <time>2011-06-28T08:33:35Z</time>
      </trkpt>
      <trkpt lat="44.34912" lon="6.18934">
        <ele>912.90918</ele>
        <time>2011-06-28T08:33:51Z</time>
      </trkpt>
      <trkpt lat="44.34914" lon="6.18974">
        <ele>914.351074</ele>
        <time>2011-06-28T08:34:04Z</time>
      </trkpt>
      <trkpt lat="44.34916" lon="6.19027">
        <ele>914.831787</ele>
        <time>2011-06-28T08:34:22Z</time>
      </trkpt>
      <trkpt lat="44.34916" lon="6.19039">
        <ele>915.3125</ele>
        <time>2011-06-28T08:34:27Z</time>
      </trkpt>
      <trkpt lat="44.34913" lon="6.19068">
        <ele>917.235107</ele>
        <time>2011-06-28T08:34:39Z</time>
      </trkpt>
      <trkpt lat="44.3491" lon="6.19104">
        <ele>918.677002</ele>
        <time>2011-06-28T08:34:52Z</time>
      </trkpt>
      <trkpt lat="44.34934" lon="6.19138">
        <ele>920.118896</ele>
        <time>2011-06-28T08:35:10Z</time>
      </trkpt>
      <trkpt lat="44.34942" lon="6.19146">
        <ele>920.599609</ele>
        <time>2011-06-28T08:35:15Z</time>
      </trkpt>
      <trkpt lat="44.34981" lon="6.19185">
        <ele>922.522217</ele>
        <time>2011-06-28T08:35:38Z</time>
      </trkpt>
      <trkpt lat="44.34998" lon="6.19223">
        <ele>923.00293</ele>
        <time>2011-06-28T08:35:53Z</time>
      </trkpt>
      <trkpt lat="44.35003" lon="6.19265">
        <ele>923.00293</ele>
        <time>2011-06-28T08:36:06Z</time>
      </trkpt>
      <trkpt lat="44.3498" lon="6.19307">
        <ele>923.964111</ele>
        <time>2011-06-28T08:36:22Z</time>
      </trkpt>
      <trkpt lat="44.34951" lon="6.19342">
        <ele>925.40625</ele>
        <time>2011-06-28T08:36:39Z</time>
      </trkpt>
      <trkpt lat="44.34938" lon="6.19386">
        <ele>926.367676</ele>
        <time>2011-06-28T08:36:54Z</time>
      </trkpt>
      <trkpt lat="44.34966" lon="6.19419">
        <ele>926.848389</ele>
        <time>2011-06-28T08:37:08Z</time>
      </trkpt>
      <trkpt lat="44.35004" lon="6.19469">
        <ele>927.329102</ele>
        <time>2011-06-28T08:37:26Z</time>
      </trkpt>
      <trkpt lat="44.35007" lon="6.19509">
        <ele>928.290283</ele>
        <time>2011-06-28T08:37:37Z</time>
      </trkpt>
      <trkpt lat="44.35006" lon="6.19511">
        <ele>928.290283</ele>
        <time>2011-06-28T08:37:38Z</time>
      </trkpt>
      <trkpt lat="44.35001" lon="6.19521">
        <ele>928.770996</ele>
        <time>2011-06-28T08:37:42Z</time>
      </trkpt>
      <trkpt lat="44.34998" lon="6.19526">
        <ele>929.251465</ele>
        <time>2011-06-28T08:37:45Z</time>
      </trkpt>
      <trkpt lat="44.34993" lon="6.19536">
        <ele>929.251465</ele>
        <time>2011-06-28T08:37:49Z</time>
      </trkpt>
      <trkpt lat="44.34975" lon="6.19574">
        <ele>931.174316</ele>
        <time>2011-06-28T08:38:05Z</time>
      </trkpt>
      <trkpt lat="44.3498" lon="6.19617">
        <ele>931.654785</ele>
        <time>2011-06-28T08:38:18Z</time>
      </trkpt>
      <trkpt lat="44.35001" lon="6.19664">
        <ele>932.616211</ele>
        <time>2011-06-28T08:38:33Z</time>
      </trkpt>
      <trkpt lat="44.3501" lon="6.19713">
        <ele>933.577393</ele>
        <time>2011-06-28T08:38:48Z</time>
      </trkpt>
      <trkpt lat="44.35016" lon="6.19746">
        <ele>935.019531</ele>
        <time>2011-06-28T08:38:59Z</time>
      </trkpt>
      <trkpt lat="44.35019" lon="6.19763">
        <ele>935.5</ele>
        <time>2011-06-28T08:39:04Z</time>
      </trkpt>
      <trkpt lat="44.3502" lon="6.19773">
        <ele>935.980713</ele>
        <time>2011-06-28T08:39:07Z</time>
      </trkpt>
      <trkpt lat="44.35027" lon="6.19799">
        <ele>935.980713</ele>
        <time>2011-06-28T08:39:15Z</time>
      </trkpt>
      <trkpt lat="44.35035" lon="6.19819">
        <ele>936.941895</ele>
        <time>2011-06-28T08:39:22Z</time>
      </trkpt>
      <trkpt lat="44.35054" lon="6.19882">
        <ele>938.864746</ele>
        <time>2011-06-28T08:39:42Z</time>
      </trkpt>
      <trkpt lat="44.35066" lon="6.19935">
        <ele>940.787354</ele>
        <time>2011-06-28T08:39:58Z</time>
      </trkpt>
      <trkpt lat="44.35075" lon="6.19989">
        <ele>941.268066</ele>
        <time>2011-06-28T08:40:12Z</time>
      </trkpt>
      <trkpt lat="44.35076" lon="6.20021">
        <ele>941.748779</ele>
        <time>2011-06-28T08:40:20Z</time>
      </trkpt>
      <trkpt lat="44.35058" lon="6.20081">
        <ele>942.229492</ele>
        <time>2011-06-28T08:40:37Z</time>
      </trkpt>
      <trkpt lat="44.35037" lon="6.20118">
        <ele>943.190674</ele>
        <time>2011-06-28T08:40:52Z</time>
      </trkpt>
      <trkpt lat="44.35025" lon="6.20139">
        <ele>944.632568</ele>
        <time>2011-06-28T08:41:03Z</time>
      </trkpt>
      <trkpt lat="44.35016" lon="6.20177">
        <ele>945.593994</ele>
        <time>2011-06-28T08:41:14Z</time>
      </trkpt>
      <trkpt lat="44.35012" lon="6.20215">
        <ele>946.55542</ele>
        <time>2011-06-28T08:41:27Z</time>
      </trkpt>
      <trkpt lat="44.35009" lon="6.20245">
        <ele>947.516602</ele>
        <time>2011-06-28T08:41:38Z</time>
      </trkpt>
      <trkpt lat="44.35" lon="6.20295">
        <ele>948.958496</ele>
        <time>2011-06-28T08:41:52Z</time>
      </trkpt>
      <trkpt lat="44.34996" lon="6.20329">
        <ele>950.400635</ele>
        <time>2011-06-28T08:42:04Z</time>
      </trkpt>
      <trkpt lat="44.34996" lon="6.20361">
        <ele>950.400635</ele>
        <time>2011-06-28T08:42:14Z</time>
      </trkpt>
      <trkpt lat="44.34995" lon="6.20395">
        <ele>951.361816</ele>
        <time>2011-06-28T08:42:23Z</time>
      </trkpt>
      <trkpt lat="44.34976" lon="6.20435">
        <ele>952.803711</ele>
        <time>2011-06-28T08:42:37Z</time>
      </trkpt>
      <trkpt lat="44.34959" lon="6.20444">
        <ele>953.765137</ele>
        <time>2011-06-28T08:42:49Z</time>
      </trkpt>
      <trkpt lat="44.34958" lon="6.20444">
        <ele>953.765137</ele>
        <time>2011-06-28T08:43:08Z</time>
      </trkpt>
      <trkpt lat="44.34958" lon="6.20444">
        <ele>953.765137</ele>
        <time>2011-06-28T08:45:15Z</time>
      </trkpt>
      <trkpt lat="44.34958" lon="6.20444">
        <ele>954.24585</ele>
        <time>2011-06-28T08:45:31Z</time>
      </trkpt>
      <trkpt lat="44.34934" lon="6.20448">
        <ele>956.168457</ele>
        <time>2011-06-28T08:45:43Z</time>
      </trkpt>
      <trkpt lat="44.34923" lon="6.2045">
        <ele>956.64917</ele>
        <time>2011-06-28T08:45:49Z</time>
      </trkpt>
      <trkpt lat="44.34917" lon="6.20453">
        <ele>956.64917</ele>
        <time>2011-06-28T08:45:53Z</time>
      </trkpt>
      <trkpt lat="44.34886" lon="6.20475">
        <ele>959.05249</ele>
        <time>2011-06-28T08:46:12Z</time>
      </trkpt>
      <trkpt lat="44.34874" lon="6.205">
        <ele>959.05249</ele>
        <time>2011-06-28T08:46:23Z</time>
      </trkpt>
      <trkpt lat="44.34869" lon="6.20512">
        <ele>959.533203</ele>
        <time>2011-06-28T08:46:27Z</time>
      </trkpt>
      <trkpt lat="44.34848" lon="6.20552">
        <ele>960.975098</ele>
        <time>2011-06-28T08:46:41Z</time>
      </trkpt>
      <trkpt lat="44.34837" lon="6.2056">
        <ele>961.936523</ele>
        <time>2011-06-28T08:46:47Z</time>
      </trkpt>
      <trkpt lat="44.34821" lon="6.20569">
        <ele>962.416992</ele>
        <time>2011-06-28T08:46:56Z</time>
      </trkpt>
      <trkpt lat="44.34818" lon="6.20571">
        <ele>963.378418</ele>
        <time>2011-06-28T08:46:58Z</time>
      </trkpt>
      <trkpt lat="44.34814" lon="6.20574">
        <ele>962.897705</ele>
        <time>2011-06-28T08:47:00Z</time>
      </trkpt>
      <trkpt lat="44.34802" lon="6.2058">
        <ele>962.897705</ele>
        <time>2011-06-28T08:47:06Z</time>
      </trkpt>
      <trkpt lat="44.34789" lon="6.2059">
        <ele>964.3396</ele>
        <time>2011-06-28T08:47:14Z</time>
      </trkpt>
      <trkpt lat="44.34782" lon="6.20596">
        <ele>965.781738</ele>
        <time>2011-06-28T08:47:18Z</time>
      </trkpt>
      <trkpt lat="44.34777" lon="6.20601">
        <ele>966.262207</ele>
        <time>2011-06-28T08:47:21Z</time>
      </trkpt>
      <trkpt lat="44.3477" lon="6.2061">
        <ele>965.781738</ele>
        <time>2011-06-28T08:47:26Z</time>
      </trkpt>
      <trkpt lat="44.34765" lon="6.20617">
        <ele>965.781738</ele>
        <time>2011-06-28T08:47:30Z</time>
      </trkpt>
      <trkpt lat="44.34742" lon="6.20647">
        <ele>967.704102</ele>
        <time>2011-06-28T08:47:48Z</time>
      </trkpt>
      <trkpt lat="44.3474" lon="6.20649">
        <ele>968.184814</ele>
        <time>2011-06-28T08:47:50Z</time>
      </trkpt>
      <trkpt lat="44.34729" lon="6.20664">
        <ele>969.626953</ele>
        <time>2011-06-28T08:48:00Z</time>
      </trkpt>
      <trkpt lat="44.34717" lon="6.20681">
        <ele>969.626953</ele>
        <time>2011-06-28T08:48:08Z</time>
      </trkpt>
      <trkpt lat="44.34711" lon="6.20688">
        <ele>971.068848</ele>
        <time>2011-06-28T08:48:13Z</time>
      </trkpt>
      <trkpt lat="44.34694" lon="6.20713">
        <ele>972.510986</ele>
        <time>2011-06-28T08:48:29Z</time>
      </trkpt>
      <trkpt lat="44.34682" lon="6.20726">
        <ele>972.991699</ele>
        <time>2011-06-28T08:48:36Z</time>
      </trkpt>
      <trkpt lat="44.34655" lon="6.20728">
        <ele>974.433594</ele>
        <time>2011-06-28T08:48:54Z</time>
      </trkpt>
      <trkpt lat="44.34639" lon="6.20735">
        <ele>976.836914</ele>
        <time>2011-06-28T08:49:06Z</time>
      </trkpt>
      <trkpt lat="44.34635" lon="6.2074">
        <ele>977.317627</ele>
        <time>2011-06-28T08:49:11Z</time>
      </trkpt>
      <trkpt lat="44.34625" lon="6.20749">
        <ele>978.278809</ele>
        <time>2011-06-28T08:49:18Z</time>
      </trkpt>
      <trkpt lat="44.34606" lon="6.20757">
        <ele>979.23999</ele>
        <time>2011-06-28T08:49:31Z</time>
      </trkpt>
      <trkpt lat="44.34593" lon="6.20758">
        <ele>980.682129</ele>
        <time>2011-06-28T08:49:46Z</time>
      </trkpt>
      <trkpt lat="44.34593" lon="6.20758">
        <ele>982.604736</ele>
        <time>2011-06-28T08:50:03Z</time>
      </trkpt>
      <trkpt lat="44.34593" lon="6.20758">
        <ele>983.565918</ele>
        <time>2011-06-28T08:50:16Z</time>
      </trkpt>
      <trkpt lat="44.34593" lon="6.20758">
        <ele>984.046631</ele>
        <time>2011-06-28T08:50:19Z</time>
      </trkpt>
      <trkpt lat="44.34546" lon="6.2073">
        <ele>985.008057</ele>
        <time>2011-06-28T08:50:23Z</time>
      </trkpt>
      <trkpt lat="44.34523" lon="6.20723">
        <ele>985.008057</ele>
        <time>2011-06-28T08:50:29Z</time>
      </trkpt>
      <trkpt lat="44.34495" lon="6.20737">
        <ele>986.449951</ele>
        <time>2011-06-28T08:50:47Z</time>
      </trkpt>
      <trkpt lat="44.34494" lon="6.2074">
        <ele>986.93042</ele>
        <time>2011-06-28T08:50:50Z</time>
      </trkpt>
      <trkpt lat="44.34494" lon="6.2074">
        <ele>987.411133</ele>
        <time>2011-06-28T08:50:55Z</time>
      </trkpt>
      <trkpt lat="44.34476" lon="6.20781">
        <ele>987.891846</ele>
        <time>2011-06-28T08:51:00Z</time>
      </trkpt>
      <trkpt lat="44.34451" lon="6.20794">
        <ele>988.853516</ele>
        <time>2011-06-28T08:51:15Z</time>
      </trkpt>
      <trkpt lat="44.34422" lon="6.20807">
        <ele>990.29541</ele>
        <time>2011-06-28T08:51:29Z</time>
      </trkpt>
      <trkpt lat="44.34418" lon="6.20808">
        <ele>990.29541</ele>
        <time>2011-06-28T08:51:31Z</time>
      </trkpt>
      <trkpt lat="44.34406" lon="6.20813">
        <ele>990.775879</ele>
        <time>2011-06-28T08:51:37Z</time>
      </trkpt>
      <trkpt lat="44.34381" lon="6.20829">
        <ele>992.218018</ele>
        <time>2011-06-28T08:51:53Z</time>
      </trkpt>
      <trkpt lat="44.34382" lon="6.2086">
        <ele>992.69873</ele>
        <time>2011-06-28T08:52:07Z</time>
      </trkpt>
      <trkpt lat="44.34382" lon="6.20862">
        <ele>993.179199</ele>
        <time>2011-06-28T08:52:08Z</time>
      </trkpt>
      <trkpt lat="44.3438" lon="6.20902">
        <ele>994.621094</ele>
        <time>2011-06-28T08:52:23Z</time>
      </trkpt>
      <trkpt lat="44.34379" lon="6.2091">
        <ele>994.621094</ele>
        <time>2011-06-28T08:52:26Z</time>
      </trkpt>
      <trkpt lat="44.34375" lon="6.20927">
        <ele>995.58252</ele>
        <time>2011-06-28T08:52:34Z</time>
      </trkpt>
      <trkpt lat="44.34372" lon="6.20938">
        <ele>996.543945</ele>
        <time>2011-06-28T08:52:40Z</time>
      </trkpt>
      <trkpt lat="44.34371" lon="6.20943">
        <ele>997.024414</ele>
        <time>2011-06-28T08:52:44Z</time>
      </trkpt>
      <trkpt lat="44.34371" lon="6.20943">
        <ele>997.505127</ele>
        <time>2011-06-28T08:52:46Z</time>
      </trkpt>
      <trkpt lat="44.34367" lon="6.20955">
        <ele>997.98584</ele>
        <time>2011-06-28T08:52:50Z</time>
      </trkpt>
      <trkpt lat="44.3436" lon="6.20998">
        <ele>998.947021</ele>
        <time>2011-06-28T08:53:06Z</time>
      </trkpt>
      <trkpt lat="44.34323" lon="6.21064">
        <ele>999.427734</ele>
        <time>2011-06-28T08:53:24Z</time>
      </trkpt>
      <trkpt lat="44.34294" lon="6.21108">
        <ele>1000.38916</ele>
        <time>2011-06-28T08:53:41Z</time>
      </trkpt>
      <trkpt lat="44.3427" lon="6.21134">
        <ele>999.908447</ele>
        <time>2011-06-28T08:53:48Z</time>
      </trkpt>
      <trkpt lat="44.34243" lon="6.21151">
        <ele>999.908447</ele>
        <time>2011-06-28T08:53:54Z</time>
      </trkpt>
      <trkpt lat="44.34201" lon="6.21187">
        <ele>1001.831055</ele>
        <time>2011-06-28T08:54:14Z</time>
      </trkpt>
      <trkpt lat="44.34191" lon="6.21229">
        <ele>1002.792236</ele>
        <time>2011-06-28T08:54:32Z</time>
      </trkpt>
      <trkpt lat="44.34198" lon="6.21252">
        <ele>1004.234619</ele>
        <time>2011-06-28T08:54:48Z</time>
      </trkpt>
      <trkpt lat="44.34198" lon="6.21252">
        <ele>1004.234619</ele>
        <time>2011-06-28T08:54:54Z</time>
      </trkpt>
      <trkpt lat="44.34193" lon="6.21297">
        <ele>1005.195801</ele>
        <time>2011-06-28T08:55:07Z</time>
      </trkpt>
      <trkpt lat="44.34184" lon="6.21317">
        <ele>1005.676514</ele>
        <time>2011-06-28T08:55:14Z</time>
      </trkpt>
      <trkpt lat="44.34181" lon="6.21324">
        <ele>1006.156982</ele>
        <time>2011-06-28T08:55:22Z</time>
      </trkpt>
      <trkpt lat="44.34173" lon="6.21339">
        <ele>1006.637695</ele>
        <time>2011-06-28T08:55:25Z</time>
      </trkpt>
      <trkpt lat="44.34153" lon="6.21371">
        <ele>1009.041016</ele>
        <time>2011-06-28T08:55:44Z</time>
      </trkpt>
      <trkpt lat="44.34151" lon="6.21375">
        <ele>1009.521729</ele>
        <time>2011-06-28T08:55:47Z</time>
      </trkpt>
      <trkpt lat="44.3414" lon="6.214">
        <ele>1010.48291</ele>
        <time>2011-06-28T08:55:58Z</time>
      </trkpt>
      <trkpt lat="44.34136" lon="6.21452">
        <ele>1010.963623</ele>
        <time>2011-06-28T08:56:12Z</time>
      </trkpt>
      <trkpt lat="44.34144" lon="6.21484">
        <ele>1011.444336</ele>
        <time>2011-06-28T08:56:23Z</time>
      </trkpt>
      <trkpt lat="44.34146" lon="6.21493">
        <ele>1011.925049</ele>
        <time>2011-06-28T08:56:28Z</time>
      </trkpt>
      <trkpt lat="44.34149" lon="6.21518">
        <ele>1012.88623</ele>
        <time>2011-06-28T08:56:40Z</time>
      </trkpt>
      <trkpt lat="44.34149" lon="6.21521">
        <ele>1012.88623</ele>
        <time>2011-06-28T08:56:43Z</time>
      </trkpt>
      <trkpt lat="44.34136" lon="6.21556">
        <ele>1013.366943</ele>
        <time>2011-06-28T08:56:56Z</time>
      </trkpt>
      <trkpt lat="44.34126" lon="6.2157">
        <ele>1013.847412</ele>
        <time>2011-06-28T08:57:01Z</time>
      </trkpt>
      <trkpt lat="44.34116" lon="6.21572">
        <ele>1013.847412</ele>
        <time>2011-06-28T08:57:05Z</time>
      </trkpt>
      <trkpt lat="44.34127" lon="6.21599">
        <ele>1013.847412</ele>
        <time>2011-06-28T08:57:14Z</time>
      </trkpt>
      <trkpt lat="44.34137" lon="6.21641">
        <ele>1014.808838</ele>
        <time>2011-06-28T08:57:27Z</time>
      </trkpt>
      <trkpt lat="44.3416" lon="6.21701">
        <ele>1016.250732</ele>
        <time>2011-06-28T08:57:46Z</time>
      </trkpt>
      <trkpt lat="44.34171" lon="6.2173">
        <ele>1016.731445</ele>
        <time>2011-06-28T08:57:57Z</time>
      </trkpt>
      <trkpt lat="44.34186" lon="6.21781">
        <ele>1017.212158</ele>
        <time>2011-06-28T08:58:15Z</time>
      </trkpt>
      <trkpt lat="44.34186" lon="6.2183">
        <ele>1018.17334</ele>
        <time>2011-06-28T08:58:33Z</time>
      </trkpt>
      <trkpt lat="44.34184" lon="6.21877">
        <ele>1019.615479</ele>
        <time>2011-06-28T08:58:48Z</time>
      </trkpt>
      <trkpt lat="44.34183" lon="6.21887">
        <ele>1019.615479</ele>
        <time>2011-06-28T08:58:52Z</time>
      </trkpt>
      <trkpt lat="44.34182" lon="6.21898">
        <ele>1020.096191</ele>
        <time>2011-06-28T08:58:56Z</time>
      </trkpt>
      <trkpt lat="44.34185" lon="6.21957">
        <ele>1021.057617</ele>
        <time>2011-06-28T08:59:12Z</time>
      </trkpt>
      <trkpt lat="44.34189" lon="6.22017">
        <ele>1022.018799</ele>
        <time>2011-06-28T08:59:24Z</time>
      </trkpt>
      <trkpt lat="44.34183" lon="6.22086">
        <ele>1022.980225</ele>
        <time>2011-06-28T08:59:38Z</time>
      </trkpt>
      <trkpt lat="44.34157" lon="6.22157">
        <ele>1023.941406</ele>
        <time>2011-06-28T08:59:51Z</time>
      </trkpt>
      <trkpt lat="44.34117" lon="6.22208">
        <ele>1024.902832</ele>
        <time>2011-06-28T09:00:08Z</time>
      </trkpt>
      <trkpt lat="44.34086" lon="6.2225">
        <ele>1025.383301</ele>
        <time>2011-06-28T09:00:24Z</time>
      </trkpt>
      <trkpt lat="44.34068" lon="6.22308">
        <ele>1026.344727</ele>
        <time>2011-06-28T09:00:38Z</time>
      </trkpt>
      <trkpt lat="44.34068" lon="6.22323">
        <ele>1026.825439</ele>
        <time>2011-06-28T09:00:42Z</time>
      </trkpt>
      <trkpt lat="44.34058" lon="6.22388">
        <ele>1028.267334</ele>
        <time>2011-06-28T09:00:58Z</time>
      </trkpt>
      <trkpt lat="44.34046" lon="6.22428">
        <ele>1029.228516</ele>
        <time>2011-06-28T09:01:10Z</time>
      </trkpt>
      <trkpt lat="44.34036" lon="6.2248">
        <ele>1030.189941</ele>
        <time>2011-06-28T09:01:25Z</time>
      </trkpt>
      <trkpt lat="44.34031" lon="6.22491">
        <ele>1030.670654</ele>
        <time>2011-06-28T09:01:29Z</time>
      </trkpt>
      <trkpt lat="44.34026" lon="6.22499">
        <ele>1031.151367</ele>
        <time>2011-06-28T09:01:32Z</time>
      </trkpt>
      <trkpt lat="44.33999" lon="6.22532">
        <ele>1031.631836</ele>
        <time>2011-06-28T09:01:45Z</time>
      </trkpt>
      <trkpt lat="44.3396" lon="6.22547">
        <ele>1033.07373</ele>
        <time>2011-06-28T09:02:00Z</time>
      </trkpt>
      <trkpt lat="44.33929" lon="6.22551">
        <ele>1034.035156</ele>
        <time>2011-06-28T09:02:12Z</time>
      </trkpt>
      <trkpt lat="44.33892" lon="6.2256">
        <ele>1034.996582</ele>
        <time>2011-06-28T09:02:27Z</time>
      </trkpt>
      <trkpt lat="44.33877" lon="6.22598">
        <ele>1036.438721</ele>
        <time>2011-06-28T09:02:42Z</time>
      </trkpt>
      <trkpt lat="44.3387" lon="6.22645">
        <ele>1036.919189</ele>
        <time>2011-06-28T09:02:56Z</time>
      </trkpt>
      <trkpt lat="44.33869" lon="6.2268">
        <ele>1037.880615</ele>
        <time>2011-06-28T09:03:07Z</time>
      </trkpt>
      <trkpt lat="44.33868" lon="6.22685">
        <ele>1038.361328</ele>
        <time>2011-06-28T09:03:10Z</time>
      </trkpt>
      <trkpt lat="44.33861" lon="6.22748">
        <ele>1039.803223</ele>
        <time>2011-06-28T09:03:29Z</time>
      </trkpt>
      <trkpt lat="44.33842" lon="6.22806">
        <ele>1040.283936</ele>
        <time>2011-06-28T09:03:45Z</time>
      </trkpt>
      <trkpt lat="44.33828" lon="6.22854">
        <ele>1040.764404</ele>
        <time>2011-06-28T09:03:57Z</time>
      </trkpt>
      <trkpt lat="44.33818" lon="6.22897">
        <ele>1042.206543</ele>
        <time>2011-06-28T09:04:10Z</time>
      </trkpt>
      <trkpt lat="44.33818" lon="6.22947">
        <ele>1043.648438</ele>
        <time>2011-06-28T09:04:25Z</time>
      </trkpt>
      <trkpt lat="44.33819" lon="6.22953">
        <ele>1043.648438</ele>
        <time>2011-06-28T09:04:26Z</time>
      </trkpt>
      <trkpt lat="44.33847" lon="6.23011">
        <ele>1044.609619</ele>
        <time>2011-06-28T09:04:43Z</time>
      </trkpt>
      <trkpt lat="44.33875" lon="6.23026">
        <ele>1045.090332</ele>
        <time>2011-06-28T09:04:56Z</time>
      </trkpt>
      <trkpt lat="44.33906" lon="6.23023">
        <ele>1045.571045</ele>
        <time>2011-06-28T09:05:08Z</time>
      </trkpt>
      <trkpt lat="44.33941" lon="6.23029">
        <ele>1047.012939</ele>
        <time>2011-06-28T09:05:23Z</time>
      </trkpt>
      <trkpt lat="44.33957" lon="6.23069">
        <ele>1048.935547</ele>
        <time>2011-06-28T09:05:39Z</time>
      </trkpt>
      <trkpt lat="44.33954" lon="6.23113">
        <ele>1049.896973</ele>
        <time>2011-06-28T09:05:54Z</time>
      </trkpt>
      <trkpt lat="44.33949" lon="6.23152">
        <ele>1050.377686</ele>
        <time>2011-06-28T09:06:06Z</time>
      </trkpt>
      <trkpt lat="44.33951" lon="6.23176">
        <ele>1050.858154</ele>
        <time>2011-06-28T09:06:13Z</time>
      </trkpt>
      <trkpt lat="44.33964" lon="6.23217">
        <ele>1052.300293</ele>
        <time>2011-06-28T09:06:25Z</time>
      </trkpt>
      <trkpt lat="44.33968" lon="6.23224">
        <ele>1052.300293</ele>
        <time>2011-06-28T09:06:29Z</time>
      </trkpt>
      <trkpt lat="44.33982" lon="6.23246">
        <ele>1054.223145</ele>
        <time>2011-06-28T09:06:40Z</time>
      </trkpt>
      <trkpt lat="44.33991" lon="6.23256">
        <ele>1054.223145</ele>
        <time>2011-06-28T09:06:46Z</time>
      </trkpt>
      <trkpt lat="44.34008" lon="6.2329">
        <ele>1055.665039</ele>
        <time>2011-06-28T09:07:01Z</time>
      </trkpt>
      <trkpt lat="44.34028" lon="6.23334">
        <ele>1057.106934</ele>
        <time>2011-06-28T09:07:20Z</time>
      </trkpt>
      <trkpt lat="44.34031" lon="6.23338">
        <ele>1057.106934</ele>
        <time>2011-06-28T09:07:22Z</time>
      </trkpt>
      <trkpt lat="44.34032" lon="6.23343">
        <ele>1057.106934</ele>
        <time>2011-06-28T09:07:24Z</time>
      </trkpt>
      <trkpt lat="44.34039" lon="6.23377">
        <ele>1057.587646</ele>
        <time>2011-06-28T09:07:36Z</time>
      </trkpt>
      <trkpt lat="44.34047" lon="6.23408">
        <ele>1058.068359</ele>
        <time>2011-06-28T09:07:47Z</time>
      </trkpt>
      <trkpt lat="44.34055" lon="6.23435">
        <ele>1058.548828</ele>
        <time>2011-06-28T09:07:56Z</time>
      </trkpt>
      <trkpt lat="44.34056" lon="6.23452">
        <ele>1058.548828</ele>
        <time>2011-06-28T09:08:02Z</time>
      </trkpt>
      <trkpt lat="44.34057" lon="6.23462">
        <ele>1059.029541</ele>
        <time>2011-06-28T09:08:05Z</time>
      </trkpt>
      <trkpt lat="44.34056" lon="6.23471">
        <ele>1059.510254</ele>
        <time>2011-06-28T09:08:09Z</time>
      </trkpt>
      <trkpt lat="44.34058" lon="6.23494">
        <ele>1060.471436</ele>
        <time>2011-06-28T09:08:18Z</time>
      </trkpt>
      <trkpt lat="44.34058" lon="6.2354">
        <ele>1061.913574</ele>
        <time>2011-06-28T09:08:31Z</time>
      </trkpt>
      <trkpt lat="44.34059" lon="6.23542">
        <ele>1061.913574</ele>
        <time>2011-06-28T09:08:32Z</time>
      </trkpt>
      <trkpt lat="44.34067" lon="6.23599">
        <ele>1062.874756</ele>
        <time>2011-06-28T09:08:48Z</time>
      </trkpt>
      <trkpt lat="44.34083" lon="6.23636">
        <ele>1062.874756</ele>
        <time>2011-06-28T09:09:01Z</time>
      </trkpt>
      <trkpt lat="44.3409" lon="6.23655">
        <ele>1063.835938</ele>
        <time>2011-06-28T09:09:09Z</time>
      </trkpt>
      <trkpt lat="44.34101" lon="6.23683">
        <ele>1064.31665</ele>
        <time>2011-06-28T09:09:19Z</time>
      </trkpt>
      <trkpt lat="44.34108" lon="6.23697">
        <ele>1065.278076</ele>
        <time>2011-06-28T09:09:24Z</time>
      </trkpt>
      <trkpt lat="44.34118" lon="6.23709">
        <ele>1065.278076</ele>
        <time>2011-06-28T09:09:30Z</time>
      </trkpt>
      <trkpt lat="44.34143" lon="6.23744">
        <ele>1066.239258</ele>
        <time>2011-06-28T09:09:44Z</time>
      </trkpt>
      <trkpt lat="44.34147" lon="6.23753">
        <ele>1066.239258</ele>
        <time>2011-06-28T09:09:47Z</time>
      </trkpt>
      <trkpt lat="44.34163" lon="6.23779">
        <ele>1067.200684</ele>
        <time>2011-06-28T09:09:57Z</time>
      </trkpt>
      <trkpt lat="44.34189" lon="6.238">
        <ele>1067.681152</ele>
        <time>2011-06-28T09:10:09Z</time>
      </trkpt>
      <trkpt lat="44.34194" lon="6.23809">
        <ele>1068.162109</ele>
        <time>2011-06-28T09:10:12Z</time>
      </trkpt>
      <trkpt lat="44.34215" lon="6.23834">
        <ele>1068.642822</ele>
        <time>2011-06-28T09:10:22Z</time>
      </trkpt>
      <trkpt lat="44.34239" lon="6.23891">
        <ele>1070.084717</ele>
        <time>2011-06-28T09:10:40Z</time>
      </trkpt>
      <trkpt lat="44.34255" lon="6.23917">
        <ele>1070.56543</ele>
        <time>2011-06-28T09:10:51Z</time>
      </trkpt>
      <trkpt lat="44.34282" lon="6.23983">
        <ele>1071.526611</ele>
        <time>2011-06-28T09:11:10Z</time>
      </trkpt>
      <trkpt lat="44.34308" lon="6.24028">
        <ele>1072.488037</ele>
        <time>2011-06-28T09:11:26Z</time>
      </trkpt>
      <trkpt lat="44.34328" lon="6.24051">
        <ele>1073.449463</ele>
        <time>2011-06-28T09:11:37Z</time>
      </trkpt>
      <trkpt lat="44.3434" lon="6.24062">
        <ele>1073.929932</ele>
        <time>2011-06-28T09:11:43Z</time>
      </trkpt>
      <trkpt lat="44.34375" lon="6.24078">
        <ele>1074.891357</ele>
        <time>2011-06-28T09:11:59Z</time>
      </trkpt>
      <trkpt lat="44.34383" lon="6.2408">
        <ele>1075.371826</ele>
        <time>2011-06-28T09:12:03Z</time>
      </trkpt>
      <trkpt lat="44.34396" lon="6.24092">
        <ele>1076.333252</ele>
        <time>2011-06-28T09:12:09Z</time>
      </trkpt>
      <trkpt lat="44.3441" lon="6.24103">
        <ele>1076.333252</ele>
        <time>2011-06-28T09:12:15Z</time>
      </trkpt>
      <trkpt lat="44.34443" lon="6.24139">
        <ele>1076.813965</ele>
        <time>2011-06-28T09:12:32Z</time>
      </trkpt>
      <trkpt lat="44.34479" lon="6.24172">
        <ele>1078.736572</ele>
        <time>2011-06-28T09:12:48Z</time>
      </trkpt>
      <trkpt lat="44.34486" lon="6.24184">
        <ele>1079.217041</ele>
        <time>2011-06-28T09:12:53Z</time>
      </trkpt>
      <trkpt lat="44.34489" lon="6.24194">
        <ele>1079.697754</ele>
        <time>2011-06-28T09:12:57Z</time>
      </trkpt>
      <trkpt lat="44.34493" lon="6.24217">
        <ele>1080.65918</ele>
        <time>2011-06-28T09:13:08Z</time>
      </trkpt>
      <trkpt lat="44.34497" lon="6.24225">
        <ele>1080.65918</ele>
        <time>2011-06-28T09:13:20Z</time>
      </trkpt>
      <trkpt lat="44.34495" lon="6.24223">
        <ele>1082.101074</ele>
        <time>2011-06-28T09:16:25Z</time>
      </trkpt>
      <trkpt lat="44.34495" lon="6.24225">
        <ele>1081.139893</ele>
        <time>2011-06-28T09:16:52Z</time>
      </trkpt>
      <trkpt lat="44.34497" lon="6.24242">
        <ele>1083.062256</ele>
        <time>2011-06-28T09:17:07Z</time>
      </trkpt>
      <trkpt lat="44.34497" lon="6.24265">
        <ele>1085.46582</ele>
        <time>2011-06-28T09:17:26Z</time>
      </trkpt>
      <trkpt lat="44.34499" lon="6.24288">
        <ele>1088.349854</ele>
        <time>2011-06-28T09:17:42Z</time>
      </trkpt>
      <trkpt lat="44.34498" lon="6.24315">
        <ele>1091.714355</ele>
        <time>2011-06-28T09:18:01Z</time>
      </trkpt>
      <trkpt lat="44.34493" lon="6.24347">
        <ele>1094.598145</ele>
        <time>2011-06-28T09:18:18Z</time>
      </trkpt>
      <trkpt lat="44.34496" lon="6.24366">
        <ele>1096.040283</ele>
        <time>2011-06-28T09:18:29Z</time>
      </trkpt>
      <trkpt lat="44.34499" lon="6.24384">
        <ele>1096.520996</ele>
        <time>2011-06-28T09:18:45Z</time>
      </trkpt>
      <trkpt lat="44.34503" lon="6.24384">
        <ele>1097.001465</ele>
        <time>2011-06-28T09:18:58Z</time>
      </trkpt>
      <trkpt lat="44.34504" lon="6.24386">
        <ele>1097.001465</ele>
        <time>2011-06-28T09:19:00Z</time>
      </trkpt>
      <trkpt lat="44.34506" lon="6.24387">
        <ele>1097.001465</ele>
        <time>2011-06-28T09:19:02Z</time>
      </trkpt>
      <trkpt lat="44.34506" lon="6.24399">
        <ele>1097.962891</ele>
        <time>2011-06-28T09:19:09Z</time>
      </trkpt>
      <trkpt lat="44.34499" lon="6.24417">
        <ele>1099.885498</ele>
        <time>2011-06-28T09:19:24Z</time>
      </trkpt>
      <trkpt lat="44.34494" lon="6.2444">
        <ele>1102.288818</ele>
        <time>2011-06-28T09:19:41Z</time>
      </trkpt>
      <trkpt lat="44.34498" lon="6.24452">
        <ele>1103.250244</ele>
        <time>2011-06-28T09:19:47Z</time>
      </trkpt>
      <trkpt lat="44.345" lon="6.24455">
        <ele>1103.730957</ele>
        <time>2011-06-28T09:19:50Z</time>
      </trkpt>
      <trkpt lat="44.34511" lon="6.24471">
        <ele>1105.653564</ele>
        <time>2011-06-28T09:20:03Z</time>
      </trkpt>
      <trkpt lat="44.34514" lon="6.24473">
        <ele>1106.134033</ele>
        <time>2011-06-28T09:20:07Z</time>
      </trkpt>
      <trkpt lat="44.34525" lon="6.2448">
        <ele>1109.018066</ele>
        <time>2011-06-28T09:20:24Z</time>
      </trkpt>
      <trkpt lat="44.34545" lon="6.24492">
        <ele>1111.9021</ele>
        <time>2011-06-28T09:20:42Z</time>
      </trkpt>
      <trkpt lat="44.34563" lon="6.24499">
        <ele>1114.785889</ele>
        <time>2011-06-28T09:21:00Z</time>
      </trkpt>
      <trkpt lat="44.34563" lon="6.24505">
        <ele>1117.189453</ele>
        <time>2011-06-28T09:21:11Z</time>
      </trkpt>
      <trkpt lat="44.34553" lon="6.2452">
        <ele>1119.592773</ele>
        <time>2011-06-28T09:21:26Z</time>
      </trkpt>
      <trkpt lat="44.34556" lon="6.24538">
        <ele>1120.073242</ele>
        <time>2011-06-28T09:21:34Z</time>
      </trkpt>
      <trkpt lat="44.34564" lon="6.24545">
        <ele>1121.034668</ele>
        <time>2011-06-28T09:21:44Z</time>
      </trkpt>
      <trkpt lat="44.34578" lon="6.24549">
        <ele>1123.437988</ele>
        <time>2011-06-28T09:21:57Z</time>
      </trkpt>
      <trkpt lat="44.34591" lon="6.24555">
        <ele>1124.879883</ele>
        <time>2011-06-28T09:22:08Z</time>
      </trkpt>
      <trkpt lat="44.34598" lon="6.24562">
        <ele>1125.841064</ele>
        <time>2011-06-28T09:22:14Z</time>
      </trkpt>
      <trkpt lat="44.34612" lon="6.2457">
        <ele>1127.283203</ele>
        <time>2011-06-28T09:22:28Z</time>
      </trkpt>
      <trkpt lat="44.34623" lon="6.2457">
        <ele>1128.244385</ele>
        <time>2011-06-28T09:22:37Z</time>
      </trkpt>
      <trkpt lat="44.34626" lon="6.24572">
        <ele>1128.725098</ele>
        <time>2011-06-28T09:22:40Z</time>
      </trkpt>
      <trkpt lat="44.34642" lon="6.24574">
        <ele>1130.647705</ele>
        <time>2011-06-28T09:22:58Z</time>
      </trkpt>
      <trkpt lat="44.3466" lon="6.24593">
        <ele>1133.051025</ele>
        <time>2011-06-28T09:23:16Z</time>
      </trkpt>
      <trkpt lat="44.34677" lon="6.24596">
        <ele>1134.973877</ele>
        <time>2011-06-28T09:23:32Z</time>
      </trkpt>
      <trkpt lat="44.34693" lon="6.24591">
        <ele>1136.89624</ele>
        <time>2011-06-28T09:23:50Z</time>
      </trkpt>
      <trkpt lat="44.34702" lon="6.24597">
        <ele>1137.376953</ele>
        <time>2011-06-28T09:23:57Z</time>
      </trkpt>
      <trkpt lat="44.34723" lon="6.24614">
        <ele>1139.299561</ele>
        <time>2011-06-28T09:24:14Z</time>
      </trkpt>
      <trkpt lat="44.34723" lon="6.24617">
        <ele>1138.819092</ele>
        <time>2011-06-28T09:24:16Z</time>
      </trkpt>
      <trkpt lat="44.34724" lon="6.24622">
        <ele>1139.299561</ele>
        <time>2011-06-28T09:24:21Z</time>
      </trkpt>
      <trkpt lat="44.34723" lon="6.24637">
        <ele>1140.260986</ele>
        <time>2011-06-28T09:24:30Z</time>
      </trkpt>
      <trkpt lat="44.34738" lon="6.2466">
        <ele>1141.702881</ele>
        <time>2011-06-28T09:24:46Z</time>
      </trkpt>
      <trkpt lat="44.34752" lon="6.2467">
        <ele>1142.664307</ele>
        <time>2011-06-28T09:24:58Z</time>
      </trkpt>
      <trkpt lat="44.3477" lon="6.24684">
        <ele>1144.58667</ele>
        <time>2011-06-28T09:25:16Z</time>
      </trkpt>
      <trkpt lat="44.34772" lon="6.24686">
        <ele>1144.58667</ele>
        <time>2011-06-28T09:25:18Z</time>
      </trkpt>
      <trkpt lat="44.3478" lon="6.24695">
        <ele>1146.028809</ele>
        <time>2011-06-28T09:25:27Z</time>
      </trkpt>
      <trkpt lat="44.34786" lon="6.24699">
        <ele>1146.028809</ele>
        <time>2011-06-28T09:25:32Z</time>
      </trkpt>
      <trkpt lat="44.34791" lon="6.24702">
        <ele>1146.98999</ele>
        <time>2011-06-28T09:25:36Z</time>
      </trkpt>
      <trkpt lat="44.34801" lon="6.24715">
        <ele>1147.951416</ele>
        <time>2011-06-28T09:25:46Z</time>
      </trkpt>
      <trkpt lat="44.3481" lon="6.24731">
        <ele>1148.912842</ele>
        <time>2011-06-28T09:25:57Z</time>
      </trkpt>
      <trkpt lat="44.34824" lon="6.24741">
        <ele>1150.35498</ele>
        <time>2011-06-28T09:26:11Z</time>
      </trkpt>
      <trkpt lat="44.34824" lon="6.24744">
        <ele>1150.35498</ele>
        <time>2011-06-28T09:26:13Z</time>
      </trkpt>
      <trkpt lat="44.34829" lon="6.24746">
        <ele>1151.316162</ele>
        <time>2011-06-28T09:26:17Z</time>
      </trkpt>
      <trkpt lat="44.34844" lon="6.24763">
        <ele>1152.758057</ele>
        <time>2011-06-28T09:26:31Z</time>
      </trkpt>
      <trkpt lat="44.34858" lon="6.24784">
        <ele>1154.200195</ele>
        <time>2011-06-28T09:26:45Z</time>
      </trkpt>
      <trkpt lat="44.34865" lon="6.24794">
        <ele>1155.161377</ele>
        <time>2011-06-28T09:26:52Z</time>
      </trkpt>
      <trkpt lat="44.34868" lon="6.24796">
        <ele>1155.161377</ele>
        <time>2011-06-28T09:26:55Z</time>
      </trkpt>
      <trkpt lat="44.34879" lon="6.24791">
        <ele>1155.64209</ele>
        <time>2011-06-28T09:27:02Z</time>
      </trkpt>
      <trkpt lat="44.34885" lon="6.24795">
        <ele>1155.64209</ele>
        <time>2011-06-28T09:27:06Z</time>
      </trkpt>
      <trkpt lat="44.34888" lon="6.24805">
        <ele>1156.122559</ele>
        <time>2011-06-28T09:27:10Z</time>
      </trkpt>
      <trkpt lat="44.34897" lon="6.24822">
        <ele>1157.564697</ele>
        <time>2011-06-28T09:27:23Z</time>
      </trkpt>
      <trkpt lat="44.34899" lon="6.24829">
        <ele>1157.564697</ele>
        <time>2011-06-28T09:27:26Z</time>
      </trkpt>
      <trkpt lat="44.34914" lon="6.24845">
        <ele>1159.967773</ele>
        <time>2011-06-28T09:27:41Z</time>
      </trkpt>
      <trkpt lat="44.34936" lon="6.24863">
        <ele>1160.929199</ele>
        <time>2011-06-28T09:27:59Z</time>
      </trkpt>
      <trkpt lat="44.34938" lon="6.24869">
        <ele>1161.409912</ele>
        <time>2011-06-28T09:28:02Z</time>
      </trkpt>
      <trkpt lat="44.34941" lon="6.24875">
        <ele>1162.371094</ele>
        <time>2011-06-28T09:28:06Z</time>
      </trkpt>
      <trkpt lat="44.34946" lon="6.24892">
        <ele>1163.812988</ele>
        <time>2011-06-28T09:28:17Z</time>
      </trkpt>
      <trkpt lat="44.34957" lon="6.24911">
        <ele>1166.216553</ele>
        <time>2011-06-28T09:28:36Z</time>
      </trkpt>
      <trkpt lat="44.34957" lon="6.24911">
        <ele>1166.216553</ele>
        <time>2011-06-28T09:28:37Z</time>
      </trkpt>
      <trkpt lat="44.34968" lon="6.24926">
        <ele>1168.13916</ele>
        <time>2011-06-28T09:28:50Z</time>
      </trkpt>
      <trkpt lat="44.34973" lon="6.24932">
        <ele>1168.619873</ele>
        <time>2011-06-28T09:28:55Z</time>
      </trkpt>
      <trkpt lat="44.34987" lon="6.24937">
        <ele>1170.54248</ele>
        <time>2011-06-28T09:29:10Z</time>
      </trkpt>
      <trkpt lat="44.34991" lon="6.24938">
        <ele>1171.023193</ele>
        <time>2011-06-28T09:29:13Z</time>
      </trkpt>
      <trkpt lat="44.35004" lon="6.24957">
        <ele>1172.465088</ele>
        <time>2011-06-28T09:29:31Z</time>
      </trkpt>
      <trkpt lat="44.35013" lon="6.24972">
        <ele>1173.906982</ele>
        <time>2011-06-28T09:29:47Z</time>
      </trkpt>
      <trkpt lat="44.35024" lon="6.2498">
        <ele>1174.868408</ele>
        <time>2011-06-28T09:29:58Z</time>
      </trkpt>
      <trkpt lat="44.3503" lon="6.24986">
        <ele>1175.348877</ele>
        <time>2011-06-28T09:30:02Z</time>
      </trkpt>
      <trkpt lat="44.35035" lon="6.24997">
        <ele>1175.82959</ele>
        <time>2011-06-28T09:30:06Z</time>
      </trkpt>
      <trkpt lat="44.35049" lon="6.25002">
        <ele>1176.791016</ele>
        <time>2011-06-28T09:30:16Z</time>
      </trkpt>
      <trkpt lat="44.3507" lon="6.25004">
        <ele>1178.713623</ele>
        <time>2011-06-28T09:30:34Z</time>
      </trkpt>
      <trkpt lat="44.35078" lon="6.25008">
        <ele>1179.194092</ele>
        <time>2011-06-28T09:30:41Z</time>
      </trkpt>
      <trkpt lat="44.35086" lon="6.25009">
        <ele>1179.674805</ele>
        <time>2011-06-28T09:30:47Z</time>
      </trkpt>
      <trkpt lat="44.35088" lon="6.25009">
        <ele>1179.674805</ele>
        <time>2011-06-28T09:30:49Z</time>
      </trkpt>
      <trkpt lat="44.35106" lon="6.25004">
        <ele>1181.117188</ele>
        <time>2011-06-28T09:31:02Z</time>
      </trkpt>
      <trkpt lat="44.35125" lon="6.25007">
        <ele>1182.078369</ele>
        <time>2011-06-28T09:31:16Z</time>
      </trkpt>
      <trkpt lat="44.35147" lon="6.25007">
        <ele>1183.039551</ele>
        <time>2011-06-28T09:31:31Z</time>
      </trkpt>
      <trkpt lat="44.35158" lon="6.25008">
        <ele>1184.000977</ele>
        <time>2011-06-28T09:31:40Z</time>
      </trkpt>
      <trkpt lat="44.35174" lon="6.25">
        <ele>1184.962402</ele>
        <time>2011-06-28T09:31:51Z</time>
      </trkpt>
      <trkpt lat="44.35175" lon="6.24998">
        <ele>1185.442871</ele>
        <time>2011-06-28T09:31:52Z</time>
      </trkpt>
      <trkpt lat="44.35193" lon="6.24988">
        <ele>1186.884766</ele>
        <time>2011-06-28T09:32:07Z</time>
      </trkpt>
      <trkpt lat="44.35213" lon="6.24983">
        <ele>1187.846191</ele>
        <time>2011-06-28T09:32:25Z</time>
      </trkpt>
      <trkpt lat="44.35219" lon="6.24981">
        <ele>1188.326904</ele>
        <time>2011-06-28T09:32:30Z</time>
      </trkpt>
      <trkpt lat="44.35224" lon="6.24981">
        <ele>1188.326904</ele>
        <time>2011-06-28T09:32:34Z</time>
      </trkpt>
      <trkpt lat="44.3523" lon="6.24984">
        <ele>1188.326904</ele>
        <time>2011-06-28T09:32:38Z</time>
      </trkpt>
      <trkpt lat="44.35232" lon="6.24988">
        <ele>1188.807617</ele>
        <time>2011-06-28T09:32:41Z</time>
      </trkpt>
      <trkpt lat="44.35227" lon="6.24999">
        <ele>1188.807617</ele>
        <time>2011-06-28T09:32:47Z</time>
      </trkpt>
      <trkpt lat="44.35215" lon="6.25037">
        <ele>1190.249512</ele>
        <time>2011-06-28T09:33:07Z</time>
      </trkpt>
      <trkpt lat="44.35216" lon="6.25061">
        <ele>1190.72998</ele>
        <time>2011-06-28T09:33:18Z</time>
      </trkpt>
      <trkpt lat="44.35228" lon="6.25089">
        <ele>1192.652832</ele>
        <time>2011-06-28T09:33:34Z</time>
      </trkpt>
      <trkpt lat="44.35229" lon="6.2509">
        <ele>1192.652832</ele>
        <time>2011-06-28T09:33:35Z</time>
      </trkpt>
      <trkpt lat="44.35236" lon="6.25117">
        <ele>1195.055908</ele>
        <time>2011-06-28T09:33:51Z</time>
      </trkpt>
      <trkpt lat="44.35236" lon="6.2512">
        <ele>1194.575195</ele>
        <time>2011-06-28T09:33:54Z</time>
      </trkpt>
      <trkpt lat="44.35235" lon="6.25136">
        <ele>1195.536621</ele>
        <time>2011-06-28T09:34:07Z</time>
      </trkpt>
      <trkpt lat="44.35235" lon="6.25138">
        <ele>1196.97876</ele>
        <time>2011-06-28T09:34:09Z</time>
      </trkpt>
      <trkpt lat="44.35235" lon="6.25151">
        <ele>1197.940186</ele>
        <time>2011-06-28T09:34:15Z</time>
      </trkpt>
      <trkpt lat="44.35236" lon="6.25157">
        <ele>1199.38208</ele>
        <time>2011-06-28T09:34:20Z</time>
      </trkpt>
      <trkpt lat="44.35238" lon="6.25159">
        <ele>1197.940186</ele>
        <time>2011-06-28T09:34:22Z</time>
      </trkpt>
      <trkpt lat="44.35238" lon="6.2516">
        <ele>1199.38208</ele>
        <time>2011-06-28T09:34:24Z</time>
      </trkpt>
      <trkpt lat="44.35241" lon="6.25171">
        <ele>1201.304688</ele>
        <time>2011-06-28T09:34:32Z</time>
      </trkpt>
      <trkpt lat="44.35254" lon="6.25186">
        <ele>1203.227295</ele>
        <time>2011-06-28T09:34:49Z</time>
      </trkpt>
      <trkpt lat="44.35259" lon="6.25191">
        <ele>1204.188721</ele>
        <time>2011-06-28T09:34:53Z</time>
      </trkpt>
      <trkpt lat="44.35274" lon="6.25202">
        <ele>1204.669189</ele>
        <time>2011-06-28T09:35:08Z</time>
      </trkpt>
      <trkpt lat="44.35294" lon="6.25216">
        <ele>1206.591797</ele>
        <time>2011-06-28T09:35:29Z</time>
      </trkpt>
      <trkpt lat="44.35298" lon="6.25216">
        <ele>1206.591797</ele>
        <time>2011-06-28T09:35:32Z</time>
      </trkpt>
      <trkpt lat="44.35302" lon="6.25219">
        <ele>1207.07251</ele>
        <time>2011-06-28T09:35:37Z</time>
      </trkpt>
      <trkpt lat="44.35315" lon="6.25224">
        <ele>1209.47583</ele>
        <time>2011-06-28T09:35:50Z</time>
      </trkpt>
      <trkpt lat="44.35328" lon="6.25234">
        <ele>1211.398438</ele>
        <time>2011-06-28T09:36:04Z</time>
      </trkpt>
      <trkpt lat="44.35331" lon="6.25243">
        <ele>1211.87915</ele>
        <time>2011-06-28T09:36:09Z</time>
      </trkpt>
      <trkpt lat="44.3534" lon="6.25245">
        <ele>1212.840576</ele>
        <time>2011-06-28T09:36:15Z</time>
      </trkpt>
      <trkpt lat="44.35337" lon="6.25262">
        <ele>1213.801758</ele>
        <time>2011-06-28T09:36:21Z</time>
      </trkpt>
      <trkpt lat="44.35337" lon="6.25265">
        <ele>1214.282471</ele>
        <time>2011-06-28T09:36:23Z</time>
      </trkpt>
      <trkpt lat="44.3534" lon="6.25274">
        <ele>1215.243896</ele>
        <time>2011-06-28T09:36:32Z</time>
      </trkpt>
      <trkpt lat="44.35337" lon="6.25285">
        <ele>1215.243896</ele>
        <time>2011-06-28T09:36:36Z</time>
      </trkpt>
      <trkpt lat="44.35337" lon="6.25306">
        <ele>1216.685791</ele>
        <time>2011-06-28T09:36:50Z</time>
      </trkpt>
      <trkpt lat="44.35346" lon="6.25331">
        <ele>1218.608398</ele>
        <time>2011-06-28T09:37:07Z</time>
      </trkpt>
      <trkpt lat="44.35353" lon="6.2536">
        <ele>1221.492188</ele>
        <time>2011-06-28T09:37:28Z</time>
      </trkpt>
      <trkpt lat="44.35355" lon="6.25364">
        <ele>1221.492188</ele>
        <time>2011-06-28T09:37:31Z</time>
      </trkpt>
      <trkpt lat="44.35357" lon="6.25367">
        <ele>1221.9729</ele>
        <time>2011-06-28T09:37:34Z</time>
      </trkpt>
      <trkpt lat="44.35367" lon="6.25378">
        <ele>1223.895508</ele>
        <time>2011-06-28T09:37:45Z</time>
      </trkpt>
      <trkpt lat="44.35369" lon="6.25397">
        <ele>1224.856934</ele>
        <time>2011-06-28T09:37:55Z</time>
      </trkpt>
      <trkpt lat="44.35382" lon="6.25407">
        <ele>1227.260254</ele>
        <time>2011-06-28T09:38:09Z</time>
      </trkpt>
      <trkpt lat="44.354" lon="6.25417">
        <ele>1229.663574</ele>
        <time>2011-06-28T09:38:30Z</time>
      </trkpt>
      <trkpt lat="44.35423" lon="6.25427">
        <ele>1232.066895</ele>
        <time>2011-06-28T09:38:50Z</time>
      </trkpt>
      <trkpt lat="44.35435" lon="6.25442">
        <ele>1233.989502</ele>
        <time>2011-06-28T09:39:06Z</time>
      </trkpt>
      <trkpt lat="44.35441" lon="6.25442">
        <ele>1233.989502</ele>
        <time>2011-06-28T09:39:10Z</time>
      </trkpt>
      <trkpt lat="44.35449" lon="6.25451">
        <ele>1234.950928</ele>
        <time>2011-06-28T09:39:19Z</time>
      </trkpt>
      <trkpt lat="44.3545" lon="6.25453">
        <ele>1234.950928</ele>
        <time>2011-06-28T09:39:21Z</time>
      </trkpt>
      <trkpt lat="44.35462" lon="6.25459">
        <ele>1236.873291</ele>
        <time>2011-06-28T09:39:34Z</time>
      </trkpt>
      <trkpt lat="44.3547" lon="6.25476">
        <ele>1239.276611</ele>
        <time>2011-06-28T09:39:49Z</time>
      </trkpt>
      <trkpt lat="44.35472" lon="6.25478">
        <ele>1239.276611</ele>
        <time>2011-06-28T09:39:51Z</time>
      </trkpt>
      <trkpt lat="44.35476" lon="6.25493">
        <ele>1240.718506</ele>
        <time>2011-06-28T09:40:02Z</time>
      </trkpt>
      <trkpt lat="44.35482" lon="6.25504">
        <ele>1242.160645</ele>
        <time>2011-06-28T09:40:12Z</time>
      </trkpt>
      <trkpt lat="44.3549" lon="6.25514">
        <ele>1243.121826</ele>
        <time>2011-06-28T09:40:25Z</time>
      </trkpt>
      <trkpt lat="44.35492" lon="6.25532">
        <ele>1244.563965</ele>
        <time>2011-06-28T09:40:35Z</time>
      </trkpt>
      <trkpt lat="44.35493" lon="6.25551">
        <ele>1246.006104</ele>
        <time>2011-06-28T09:40:50Z</time>
      </trkpt>
      <trkpt lat="44.35495" lon="6.25565">
        <ele>1247.447998</ele>
        <time>2011-06-28T09:40:58Z</time>
      </trkpt>
      <trkpt lat="44.35504" lon="6.25573">
        <ele>1247.928711</ele>
        <time>2011-06-28T09:41:05Z</time>
      </trkpt>
      <trkpt lat="44.35512" lon="6.25584">
        <ele>1250.332031</ele>
        <time>2011-06-28T09:41:17Z</time>
      </trkpt>
      <trkpt lat="44.35519" lon="6.25605">
        <ele>1252.254395</ele>
        <time>2011-06-28T09:41:32Z</time>
      </trkpt>
      <trkpt lat="44.35525" lon="6.25612">
        <ele>1253.21582</ele>
        <time>2011-06-28T09:41:42Z</time>
      </trkpt>
      <trkpt lat="44.35542" lon="6.25632">
        <ele>1255.619141</ele>
        <time>2011-06-28T09:42:01Z</time>
      </trkpt>
      <trkpt lat="44.35542" lon="6.25633">
        <ele>1255.619141</ele>
        <time>2011-06-28T09:42:02Z</time>
      </trkpt>
      <trkpt lat="44.35552" lon="6.25653">
        <ele>1257.541748</ele>
        <time>2011-06-28T09:42:19Z</time>
      </trkpt>
      <trkpt lat="44.35555" lon="6.25662">
        <ele>1258.022461</ele>
        <time>2011-06-28T09:42:25Z</time>
      </trkpt>
      <trkpt lat="44.35554" lon="6.2567">
        <ele>1258.983643</ele>
        <time>2011-06-28T09:42:32Z</time>
      </trkpt>
      <trkpt lat="44.35558" lon="6.25684">
        <ele>1261.387207</ele>
        <time>2011-06-28T09:42:44Z</time>
      </trkpt>
      <trkpt lat="44.35559" lon="6.25687">
        <ele>1261.86792</ele>
        <time>2011-06-28T09:42:47Z</time>
      </trkpt>
      <trkpt lat="44.35559" lon="6.25695">
        <ele>1262.348389</ele>
        <time>2011-06-28T09:42:53Z</time>
      </trkpt>
      <trkpt lat="44.35571" lon="6.25716">
        <ele>1265.232422</ele>
        <time>2011-06-28T09:43:11Z</time>
      </trkpt>
      <trkpt lat="44.35572" lon="6.25718">
        <ele>1265.713135</ele>
        <time>2011-06-28T09:43:13Z</time>
      </trkpt>
      <trkpt lat="44.35579" lon="6.25737">
        <ele>1267.635498</ele>
        <time>2011-06-28T09:43:29Z</time>
      </trkpt>
      <trkpt lat="44.3558" lon="6.25739">
        <ele>1267.635498</ele>
        <time>2011-06-28T09:43:31Z</time>
      </trkpt>
      <trkpt lat="44.35582" lon="6.25742">
        <ele>1268.116211</ele>
        <time>2011-06-28T09:43:34Z</time>
      </trkpt>
      <trkpt lat="44.35587" lon="6.25749">
        <ele>1269.077637</ele>
        <time>2011-06-28T09:43:40Z</time>
      </trkpt>
      <trkpt lat="44.3559" lon="6.25751">
        <ele>1269.55835</ele>
        <time>2011-06-28T09:43:42Z</time>
      </trkpt>
      <trkpt lat="44.35591" lon="6.25754">
        <ele>1269.55835</ele>
        <time>2011-06-28T09:43:45Z</time>
      </trkpt>
      <trkpt lat="44.35599" lon="6.25766">
        <ele>1271.000244</ele>
        <time>2011-06-28T09:43:57Z</time>
      </trkpt>
      <trkpt lat="44.35606" lon="6.25782">
        <ele>1272.442139</ele>
        <time>2011-06-28T09:44:10Z</time>
      </trkpt>
      <trkpt lat="44.3561" lon="6.25794">
        <ele>1273.884033</ele>
        <time>2011-06-28T09:44:21Z</time>
      </trkpt>
      <trkpt lat="44.35616" lon="6.25804">
        <ele>1274.845459</ele>
        <time>2011-06-28T09:44:28Z</time>
      </trkpt>
      <trkpt lat="44.35617" lon="6.25807">
        <ele>1275.325928</ele>
        <time>2011-06-28T09:44:31Z</time>
      </trkpt>
      <trkpt lat="44.35622" lon="6.25832">
        <ele>1278.210205</ele>
        <time>2011-06-28T09:44:49Z</time>
      </trkpt>
      <trkpt lat="44.35628" lon="6.25846">
        <ele>1279.171387</ele>
        <time>2011-06-28T09:45:02Z</time>
      </trkpt>
      <trkpt lat="44.35632" lon="6.25852">
        <ele>1279.6521</ele>
        <time>2011-06-28T09:45:07Z</time>
      </trkpt>
      <trkpt lat="44.35636" lon="6.25865">
        <ele>1282.05542</ele>
        <time>2011-06-28T09:45:18Z</time>
      </trkpt>
      <trkpt lat="44.35632" lon="6.25883">
        <ele>1284.45874</ele>
        <time>2011-06-28T09:45:32Z</time>
      </trkpt>
      <trkpt lat="44.35628" lon="6.25892">
        <ele>1284.45874</ele>
        <time>2011-06-28T09:45:37Z</time>
      </trkpt>
      <trkpt lat="44.35611" lon="6.25912">
        <ele>1287.342529</ele>
        <time>2011-06-28T09:45:57Z</time>
      </trkpt>
      <trkpt lat="44.35607" lon="6.25922">
        <ele>1288.303955</ele>
        <time>2011-06-28T09:46:15Z</time>
      </trkpt>
      <trkpt lat="44.35602" lon="6.25928">
        <ele>1290.226563</ele>
        <time>2011-06-28T09:47:19Z</time>
      </trkpt>
      <trkpt lat="44.35598" lon="6.25926">
        <ele>1291.187744</ele>
        <time>2011-06-28T09:47:41Z</time>
      </trkpt>
      <trkpt lat="44.35596" lon="6.25924">
        <ele>1292.630127</ele>
        <time>2011-06-28T09:47:59Z</time>
      </trkpt>
      <trkpt lat="44.35602" lon="6.25929">
        <ele>1292.630127</ele>
        <time>2011-06-28T09:48:45Z</time>
      </trkpt>
      <trkpt lat="44.35601" lon="6.25929">
        <ele>1294.072021</ele>
        <time>2011-06-28T09:49:23Z</time>
      </trkpt>
      <trkpt lat="44.35601" lon="6.25928">
        <ele>1295.033203</ele>
        <time>2011-06-28T09:49:48Z</time>
      </trkpt>
      <trkpt lat="44.35601" lon="6.25928">
        <ele>1294.072021</ele>
        <time>2011-06-28T09:50:09Z</time>
      </trkpt>
      <trkpt lat="44.356" lon="6.25928">
        <ele>1295.033203</ele>
        <time>2011-06-28T09:50:55Z</time>
      </trkpt>
      <trkpt lat="44.35598" lon="6.25922">
        <ele>1297.917236</ele>
        <time>2011-06-28T09:52:42Z</time>
      </trkpt>
      <trkpt lat="44.35597" lon="6.25922">
        <ele>1299.359131</ele>
        <time>2011-06-28T09:53:08Z</time>
      </trkpt>
      <trkpt lat="44.35594" lon="6.25941">
        <ele>1300.801025</ele>
        <time>2011-06-28T09:53:39Z</time>
      </trkpt>
      <trkpt lat="44.35592" lon="6.25933">
        <ele>1299.839844</ele>
        <time>2011-06-28T09:53:58Z</time>
      </trkpt>
      <trkpt lat="44.35595" lon="6.25936">
        <ele>1300.801025</ele>
        <time>2011-06-28T09:54:22Z</time>
      </trkpt>
      <trkpt lat="44.35595" lon="6.25937">
        <ele>1300.801025</ele>
        <time>2011-06-28T09:54:48Z</time>
      </trkpt>
      <trkpt lat="44.35597" lon="6.25927">
        <ele>1301.762451</ele>
        <time>2011-06-28T09:55:32Z</time>
      </trkpt>
      <trkpt lat="44.356" lon="6.25926">
        <ele>1301.762451</ele>
        <time>2011-06-28T09:55:52Z</time>
      </trkpt>
      <trkpt lat="44.35595" lon="6.25921">
        <ele>1303.685059</ele>
        <time>2011-06-28T09:57:08Z</time>
      </trkpt>
      <trkpt lat="44.35596" lon="6.2592">
        <ele>1303.685059</ele>
        <time>2011-06-28T09:57:24Z</time>
      </trkpt>
      <trkpt lat="44.35595" lon="6.25918">
        <ele>1304.165771</ele>
        <time>2011-06-28T09:57:38Z</time>
      </trkpt>
      <trkpt lat="44.35591" lon="6.25916">
        <ele>1304.165771</ele>
        <time>2011-06-28T09:57:50Z</time>
      </trkpt>
      <trkpt lat="44.3559" lon="6.25912">
        <ele>1304.64624</ele>
        <time>2011-06-28T09:57:53Z</time>
      </trkpt>
      <trkpt lat="44.3557" lon="6.25905">
        <ele>1307.049561</ele>
        <time>2011-06-28T09:58:11Z</time>
      </trkpt>
      <trkpt lat="44.35566" lon="6.25901">
        <ele>1308.01123</ele>
        <time>2011-06-28T09:58:17Z</time>
      </trkpt>
      <trkpt lat="44.35553" lon="6.25892">
        <ele>1309.933594</ele>
        <time>2011-06-28T09:58:34Z</time>
      </trkpt>
      <trkpt lat="44.35548" lon="6.25882">
        <ele>1312.336914</ele>
        <time>2011-06-28T09:58:47Z</time>
      </trkpt>
      <trkpt lat="44.35538" lon="6.25867">
        <ele>1314.259521</ele>
        <time>2011-06-28T09:59:04Z</time>
      </trkpt>
      <trkpt lat="44.35524" lon="6.25854">
        <ele>1317.143555</ele>
        <time>2011-06-28T09:59:21Z</time>
      </trkpt>
      <trkpt lat="44.35522" lon="6.25853">
        <ele>1317.143555</ele>
        <time>2011-06-28T09:59:23Z</time>
      </trkpt>
      <trkpt lat="44.35509" lon="6.25835">
        <ele>1320.027344</ele>
        <time>2011-06-28T09:59:40Z</time>
      </trkpt>
      <trkpt lat="44.35503" lon="6.25833">
        <ele>1320.98877</ele>
        <time>2011-06-28T09:59:49Z</time>
      </trkpt>
      <trkpt lat="44.35497" lon="6.25832">
        <ele>1321.949951</ele>
        <time>2011-06-28T09:59:55Z</time>
      </trkpt>
      <trkpt lat="44.35493" lon="6.25838">
        <ele>1321.949951</ele>
        <time>2011-06-28T10:00:01Z</time>
      </trkpt>
      <trkpt lat="44.35494" lon="6.25842">
        <ele>1322.430664</ele>
        <time>2011-06-28T10:00:03Z</time>
      </trkpt>
      <trkpt lat="44.35498" lon="6.25849">
        <ele>1322.430664</ele>
        <time>2011-06-28T10:00:08Z</time>
      </trkpt>
      <trkpt lat="44.35507" lon="6.25863">
        <ele>1323.39209</ele>
        <time>2011-06-28T10:00:19Z</time>
      </trkpt>
      <trkpt lat="44.35508" lon="6.25864">
        <ele>1323.872559</ele>
        <time>2011-06-28T10:00:20Z</time>
      </trkpt>
      <trkpt lat="44.3552" lon="6.2588">
        <ele>1324.353516</ele>
        <time>2011-06-28T10:00:33Z</time>
      </trkpt>
      <trkpt lat="44.35524" lon="6.25884">
        <ele>1326.276123</ele>
        <time>2011-06-28T10:00:36Z</time>
      </trkpt>
      <trkpt lat="44.35527" lon="6.25891">
        <ele>1324.353516</ele>
        <time>2011-06-28T10:00:40Z</time>
      </trkpt>
      <trkpt lat="44.35529" lon="6.25893">
        <ele>1326.276123</ele>
        <time>2011-06-28T10:00:42Z</time>
      </trkpt>
      <trkpt lat="44.35535" lon="6.25924">
        <ele>1327.237549</ele>
        <time>2011-06-28T10:01:02Z</time>
      </trkpt>
      <trkpt lat="44.35537" lon="6.25934">
        <ele>1327.718018</ele>
        <time>2011-06-28T10:01:07Z</time>
      </trkpt>
      <trkpt lat="44.35539" lon="6.25939">
        <ele>1328.19873</ele>
        <time>2011-06-28T10:01:10Z</time>
      </trkpt>
      <trkpt lat="44.35541" lon="6.25944">
        <ele>1327.718018</ele>
        <time>2011-06-28T10:01:14Z</time>
      </trkpt>
      <trkpt lat="44.35543" lon="6.25947">
        <ele>1329.640625</ele>
        <time>2011-06-28T10:01:16Z</time>
      </trkpt>
      <trkpt lat="44.35543" lon="6.25949">
        <ele>1328.679443</ele>
        <time>2011-06-28T10:01:17Z</time>
      </trkpt>
      <trkpt lat="44.35544" lon="6.25956">
        <ele>1328.679443</ele>
        <time>2011-06-28T10:01:21Z</time>
      </trkpt>
      <trkpt lat="44.3555" lon="6.25981">
        <ele>1328.679443</ele>
        <time>2011-06-28T10:01:33Z</time>
      </trkpt>
      <trkpt lat="44.35548" lon="6.25996">
        <ele>1329.640625</ele>
        <time>2011-06-28T10:01:38Z</time>
      </trkpt>
      <trkpt lat="44.35545" lon="6.26004">
        <ele>1329.640625</ele>
        <time>2011-06-28T10:01:41Z</time>
      </trkpt>
      <trkpt lat="44.35551" lon="6.26033">
        <ele>1331.563232</ele>
        <time>2011-06-28T10:01:58Z</time>
      </trkpt>
      <trkpt lat="44.35558" lon="6.2606">
        <ele>1333.005127</ele>
        <time>2011-06-28T10:02:14Z</time>
      </trkpt>
      <trkpt lat="44.35562" lon="6.26073">
        <ele>1334.447266</ele>
        <time>2011-06-28T10:02:19Z</time>
      </trkpt>
      <trkpt lat="44.3557" lon="6.26079">
        <ele>1334.447266</ele>
        <time>2011-06-28T10:02:24Z</time>
      </trkpt>
      <trkpt lat="44.35575" lon="6.26085">
        <ele>1335.88916</ele>
        <time>2011-06-28T10:02:29Z</time>
      </trkpt>
      <trkpt lat="44.35584" lon="6.26096">
        <ele>1336.369873</ele>
        <time>2011-06-28T10:02:38Z</time>
      </trkpt>
      <trkpt lat="44.35587" lon="6.26116">
        <ele>1338.29248</ele>
        <time>2011-06-28T10:02:51Z</time>
      </trkpt>
      <trkpt lat="44.35587" lon="6.26131">
        <ele>1338.773193</ele>
        <time>2011-06-28T10:03:01Z</time>
      </trkpt>
      <trkpt lat="44.356" lon="6.26143">
        <ele>1339.734375</ele>
        <time>2011-06-28T10:03:18Z</time>
      </trkpt>
      <trkpt lat="44.35604" lon="6.2614">
        <ele>1339.734375</ele>
        <time>2011-06-28T10:03:21Z</time>
      </trkpt>
      <trkpt lat="44.35609" lon="6.26138">
        <ele>1341.176514</ele>
        <time>2011-06-28T10:03:24Z</time>
      </trkpt>
      <trkpt lat="44.35614" lon="6.26129">
        <ele>1342.137939</ele>
        <time>2011-06-28T10:03:30Z</time>
      </trkpt>
      <trkpt lat="44.35639" lon="6.26108">
        <ele>1341.657227</ele>
        <time>2011-06-28T10:03:43Z</time>
      </trkpt>
      <trkpt lat="44.3564" lon="6.26106">
        <ele>1341.176514</ele>
        <time>2011-06-28T10:03:44Z</time>
      </trkpt>
      <trkpt lat="44.3565" lon="6.26081">
        <ele>1341.176514</ele>
        <time>2011-06-28T10:03:57Z</time>
      </trkpt>
      <trkpt lat="44.35653" lon="6.26072">
        <ele>1342.137939</ele>
        <time>2011-06-28T10:04:01Z</time>
      </trkpt>
      <trkpt lat="44.35656" lon="6.26064">
        <ele>1341.176514</ele>
        <time>2011-06-28T10:04:04Z</time>
      </trkpt>
      <trkpt lat="44.35674" lon="6.26049">
        <ele>1339.734375</ele>
        <time>2011-06-28T10:04:13Z</time>
      </trkpt>
      <trkpt lat="44.35693" lon="6.2601">
        <ele>1341.176514</ele>
        <time>2011-06-28T10:04:27Z</time>
      </trkpt>
      <trkpt lat="44.35699" lon="6.25981">
        <ele>1341.176514</ele>
        <time>2011-06-28T10:04:34Z</time>
      </trkpt>
      <trkpt lat="44.35704" lon="6.25972">
        <ele>1339.734375</ele>
        <time>2011-06-28T10:04:38Z</time>
      </trkpt>
      <trkpt lat="44.35706" lon="6.25967">
        <ele>1341.657227</ele>
        <time>2011-06-28T10:04:40Z</time>
      </trkpt>
      <trkpt lat="44.35713" lon="6.25925">
        <ele>1342.618652</ele>
        <time>2011-06-28T10:04:53Z</time>
      </trkpt>
      <trkpt lat="44.35724" lon="6.25886">
        <ele>1341.657227</ele>
        <time>2011-06-28T10:05:05Z</time>
      </trkpt>
      <trkpt lat="44.3573" lon="6.25875">
        <ele>1342.618652</ele>
        <time>2011-06-28T10:05:10Z</time>
      </trkpt>
      <trkpt lat="44.35744" lon="6.25843">
        <ele>1343.579834</ele>
        <time>2011-06-28T10:05:17Z</time>
      </trkpt>
      <trkpt lat="44.35739" lon="6.25832">
        <ele>1344.060547</ele>
        <time>2011-06-28T10:05:21Z</time>
      </trkpt>
      <trkpt lat="44.35737" lon="6.25823">
        <ele>1343.099121</ele>
        <time>2011-06-28T10:05:25Z</time>
      </trkpt>
      <trkpt lat="44.35741" lon="6.25809">
        <ele>1343.579834</ele>
        <time>2011-06-28T10:05:31Z</time>
      </trkpt>
      <trkpt lat="44.35741" lon="6.25774">
        <ele>1344.541016</ele>
        <time>2011-06-28T10:05:44Z</time>
      </trkpt>
      <trkpt lat="44.35743" lon="6.25769">
        <ele>1344.541016</ele>
        <time>2011-06-28T10:05:46Z</time>
      </trkpt>
      <trkpt lat="44.35749" lon="6.25764">
        <ele>1345.021729</ele>
        <time>2011-06-28T10:05:48Z</time>
      </trkpt>
      <trkpt lat="44.35752" lon="6.25745">
        <ele>1345.021729</ele>
        <time>2011-06-28T10:05:55Z</time>
      </trkpt>
      <trkpt lat="44.35749" lon="6.25731">
        <ele>1345.502441</ele>
        <time>2011-06-28T10:06:00Z</time>
      </trkpt>
      <trkpt lat="44.35734" lon="6.25702">
        <ele>1345.983154</ele>
        <time>2011-06-28T10:06:11Z</time>
      </trkpt>
      <trkpt lat="44.35736" lon="6.25651">
        <ele>1346.944336</ele>
        <time>2011-06-28T10:06:28Z</time>
      </trkpt>
      <trkpt lat="44.35731" lon="6.25624">
        <ele>1347.425049</ele>
        <time>2011-06-28T10:06:39Z</time>
      </trkpt>
      <trkpt lat="44.35726" lon="6.25587">
        <ele>1348.38623</ele>
        <time>2011-06-28T10:06:51Z</time>
      </trkpt>
      <trkpt lat="44.35726" lon="6.2558">
        <ele>1348.866943</ele>
        <time>2011-06-28T10:06:54Z</time>
      </trkpt>
      <trkpt lat="44.35719" lon="6.25557">
        <ele>1349.347656</ele>
        <time>2011-06-28T10:07:04Z</time>
      </trkpt>
      <trkpt lat="44.35712" lon="6.2551">
        <ele>1351.270264</ele>
        <time>2011-06-28T10:07:26Z</time>
      </trkpt>
      <trkpt lat="44.3571" lon="6.25465">
        <ele>1353.673584</ele>
        <time>2011-06-28T10:07:47Z</time>
      </trkpt>
      <trkpt lat="44.35713" lon="6.2543">
        <ele>1354.634766</ele>
        <time>2011-06-28T10:08:01Z</time>
      </trkpt>
      <trkpt lat="44.35708" lon="6.25405">
        <ele>1356.076904</ele>
        <time>2011-06-28T10:08:15Z</time>
      </trkpt>
      <trkpt lat="44.35704" lon="6.25387">
        <ele>1356.557617</ele>
        <time>2011-06-28T10:08:20Z</time>
      </trkpt>
      <trkpt lat="44.35698" lon="6.25356">
        <ele>1357.519043</ele>
        <time>2011-06-28T10:08:36Z</time>
      </trkpt>
      <trkpt lat="44.35697" lon="6.25354">
        <ele>1357.519043</ele>
        <time>2011-06-28T10:08:37Z</time>
      </trkpt>
      <trkpt lat="44.35708" lon="6.25329">
        <ele>1358.480225</ele>
        <time>2011-06-28T10:08:51Z</time>
      </trkpt>
      <trkpt lat="44.35711" lon="6.25325">
        <ele>1358.960938</ele>
        <time>2011-06-28T10:08:53Z</time>
      </trkpt>
      <trkpt lat="44.35731" lon="6.25303">
        <ele>1358.960938</ele>
        <time>2011-06-28T10:09:07Z</time>
      </trkpt>
      <trkpt lat="44.35733" lon="6.25278">
        <ele>1359.922119</ele>
        <time>2011-06-28T10:09:19Z</time>
      </trkpt>
      <trkpt lat="44.35732" lon="6.25272">
        <ele>1359.922119</ele>
        <time>2011-06-28T10:09:22Z</time>
      </trkpt>
      <trkpt lat="44.35736" lon="6.25239">
        <ele>1360.883545</ele>
        <time>2011-06-28T10:09:36Z</time>
      </trkpt>
      <trkpt lat="44.35744" lon="6.25223">
        <ele>1361.844971</ele>
        <time>2011-06-28T10:09:44Z</time>
      </trkpt>
      <trkpt lat="44.35745" lon="6.25209">
        <ele>1361.844971</ele>
        <time>2011-06-28T10:09:49Z</time>
      </trkpt>
      <trkpt lat="44.35754" lon="6.25175">
        <ele>1363.286865</ele>
        <time>2011-06-28T10:10:03Z</time>
      </trkpt>
      <trkpt lat="44.35756" lon="6.25168">
        <ele>1363.286865</ele>
        <time>2011-06-28T10:10:06Z</time>
      </trkpt>
      <trkpt lat="44.35761" lon="6.25136">
        <ele>1364.248047</ele>
        <time>2011-06-28T10:10:19Z</time>
      </trkpt>
      <trkpt lat="44.35769" lon="6.25116">
        <ele>1365.209473</ele>
        <time>2011-06-28T10:10:28Z</time>
      </trkpt>
      <trkpt lat="44.35784" lon="6.25086">
        <ele>1365.690186</ele>
        <time>2011-06-28T10:10:43Z</time>
      </trkpt>
      <trkpt lat="44.35799" lon="6.25059">
        <ele>1366.651367</ele>
        <time>2011-06-28T10:10:57Z</time>
      </trkpt>
      <trkpt lat="44.35806" lon="6.25041">
        <ele>1366.651367</ele>
        <time>2011-06-28T10:11:05Z</time>
      </trkpt>
      <trkpt lat="44.35806" lon="6.25004">
        <ele>1367.13208</ele>
        <time>2011-06-28T10:11:17Z</time>
      </trkpt>
      <trkpt lat="44.358" lon="6.24989">
        <ele>1368.573975</ele>
        <time>2011-06-28T10:11:23Z</time>
      </trkpt>
      <trkpt lat="44.35802" lon="6.24959">
        <ele>1369.5354</ele>
        <time>2011-06-28T10:11:39Z</time>
      </trkpt>
      <trkpt lat="44.35807" lon="6.24924">
        <ele>1370.496582</ele>
        <time>2011-06-28T10:11:54Z</time>
      </trkpt>
      <trkpt lat="44.35809" lon="6.24878">
        <ele>1371.457764</ele>
        <time>2011-06-28T10:12:10Z</time>
      </trkpt>
      <trkpt lat="44.35809" lon="6.24876">
        <ele>1371.457764</ele>
        <time>2011-06-28T10:12:11Z</time>
      </trkpt>
      <trkpt lat="44.35808" lon="6.24849">
        <ele>1373.380859</ele>
        <time>2011-06-28T10:12:24Z</time>
      </trkpt>
      <trkpt lat="44.35808" lon="6.24835">
        <ele>1373.380859</ele>
        <time>2011-06-28T10:12:31Z</time>
      </trkpt>
      <trkpt lat="44.35806" lon="6.24833">
        <ele>1373.380859</ele>
        <time>2011-06-28T10:12:35Z</time>
      </trkpt>
      <trkpt lat="44.35785" lon="6.24838">
        <ele>1373.861328</ele>
        <time>2011-06-28T10:12:47Z</time>
      </trkpt>
      <trkpt lat="44.35776" lon="6.24831">
        <ele>1374.822754</ele>
        <time>2011-06-28T10:13:00Z</time>
      </trkpt>
      <trkpt lat="44.35771" lon="6.24825">
        <ele>1375.783936</ele>
        <time>2011-06-28T10:13:06Z</time>
      </trkpt>
      <trkpt lat="44.35745" lon="6.24813">
        <ele>1375.783936</ele>
        <time>2011-06-28T10:13:23Z</time>
      </trkpt>
      <trkpt lat="44.3573" lon="6.24816">
        <ele>1376.745361</ele>
        <time>2011-06-28T10:13:31Z</time>
      </trkpt>
      <trkpt lat="44.3569" lon="6.2482">
        <ele>1378.187256</ele>
        <time>2011-06-28T10:13:52Z</time>
      </trkpt>
      <trkpt lat="44.35687" lon="6.24821">
        <ele>1378.667969</ele>
        <time>2011-06-28T10:13:54Z</time>
      </trkpt>
      <trkpt lat="44.35674" lon="6.24785">
        <ele>1379.62915</ele>
        <time>2011-06-28T10:14:07Z</time>
      </trkpt>
      <trkpt lat="44.35664" lon="6.24738">
        <ele>1380.590576</ele>
        <time>2011-06-28T10:14:23Z</time>
      </trkpt>
      <trkpt lat="44.35662" lon="6.24727">
        <ele>1380.590576</ele>
        <time>2011-06-28T10:14:27Z</time>
      </trkpt>
      <trkpt lat="44.35645" lon="6.2471">
        <ele>1382.032471</ele>
        <time>2011-06-28T10:14:38Z</time>
      </trkpt>
      <trkpt lat="44.35635" lon="6.24711">
        <ele>1382.032471</ele>
        <time>2011-06-28T10:14:43Z</time>
      </trkpt>
      <trkpt lat="44.35613" lon="6.24697">
        <ele>1383.474365</ele>
        <time>2011-06-28T10:14:54Z</time>
      </trkpt>
      <trkpt lat="44.3561" lon="6.24679">
        <ele>1383.474365</ele>
        <time>2011-06-28T10:15:01Z</time>
      </trkpt>
      <trkpt lat="44.35614" lon="6.24653">
        <ele>1383.474365</ele>
        <time>2011-06-28T10:15:11Z</time>
      </trkpt>
      <trkpt lat="44.35613" lon="6.24646">
        <ele>1383.474365</ele>
        <time>2011-06-28T10:15:14Z</time>
      </trkpt>
      <trkpt lat="44.3561" lon="6.24637">
        <ele>1383.955078</ele>
        <time>2011-06-28T10:15:19Z</time>
      </trkpt>
      <trkpt lat="44.35597" lon="6.24617">
        <ele>1384.435791</ele>
        <time>2011-06-28T10:15:29Z</time>
      </trkpt>
      <trkpt lat="44.3559" lon="6.24614">
        <ele>1384.916504</ele>
        <time>2011-06-28T10:15:34Z</time>
      </trkpt>
      <trkpt lat="44.35582" lon="6.24611">
        <ele>1385.877686</ele>
        <time>2011-06-28T10:15:40Z</time>
      </trkpt>
      <trkpt lat="44.35567" lon="6.24611">
        <ele>1386.838867</ele>
        <time>2011-06-28T10:15:49Z</time>
      </trkpt>
      <trkpt lat="44.35543" lon="6.2462">
        <ele>1388.28125</ele>
        <time>2011-06-28T10:16:05Z</time>
      </trkpt>
      <trkpt lat="44.35532" lon="6.24617">
        <ele>1388.761963</ele>
        <time>2011-06-28T10:16:14Z</time>
      </trkpt>
      <trkpt lat="44.35526" lon="6.24611">
        <ele>1390.203857</ele>
        <time>2011-06-28T10:16:19Z</time>
      </trkpt>
      <trkpt lat="44.35522" lon="6.24606">
        <ele>1389.723145</ele>
        <time>2011-06-28T10:16:23Z</time>
      </trkpt>
      <trkpt lat="44.3552" lon="6.24594">
        <ele>1390.203857</ele>
        <time>2011-06-28T10:16:28Z</time>
      </trkpt>
      <trkpt lat="44.35519" lon="6.24586">
        <ele>1390.684326</ele>
        <time>2011-06-28T10:16:32Z</time>
      </trkpt>
      <trkpt lat="44.3552" lon="6.24576">
        <ele>1391.645752</ele>
        <time>2011-06-28T10:16:37Z</time>
      </trkpt>
      <trkpt lat="44.35524" lon="6.2454">
        <ele>1393.087646</ele>
        <time>2011-06-28T10:16:56Z</time>
      </trkpt>
      <trkpt lat="44.35526" lon="6.24517">
        <ele>1394.049072</ele>
        <time>2011-06-28T10:17:09Z</time>
      </trkpt>
      <trkpt lat="44.35526" lon="6.24514">
        <ele>1395.97168</ele>
        <time>2011-06-28T10:17:26Z</time>
      </trkpt>
      <trkpt lat="44.35526" lon="6.24514">
        <ele>1395.97168</ele>
        <time>2011-06-28T10:17:27Z</time>
      </trkpt>
      <trkpt lat="44.35524" lon="6.24513">
        <ele>1393.568359</ele>
        <time>2011-06-28T10:17:33Z</time>
      </trkpt>
      <trkpt lat="44.35523" lon="6.24513">
        <ele>1394.049072</ele>
        <time>2011-06-28T10:17:34Z</time>
      </trkpt>
      <trkpt lat="44.35513" lon="6.24511">
        <ele>1393.087646</ele>
        <time>2011-06-28T10:17:48Z</time>
      </trkpt>
      <trkpt lat="44.35508" lon="6.24511">
        <ele>1394.049072</ele>
        <time>2011-06-28T10:17:53Z</time>
      </trkpt>
      <trkpt lat="44.35503" lon="6.24511">
        <ele>1393.568359</ele>
        <time>2011-06-28T10:17:57Z</time>
      </trkpt>
      <trkpt lat="44.35491" lon="6.24507">
        <ele>1392.607178</ele>
        <time>2011-06-28T10:18:09Z</time>
      </trkpt>
      <trkpt lat="44.35482" lon="6.24505">
        <ele>1394.529541</ele>
        <time>2011-06-28T10:18:17Z</time>
      </trkpt>
      <trkpt lat="44.35474" lon="6.24496">
        <ele>1395.490967</ele>
        <time>2011-06-28T10:18:32Z</time>
      </trkpt>
      <trkpt lat="44.35464" lon="6.24492">
        <ele>1396.932861</ele>
        <time>2011-06-28T10:18:48Z</time>
      </trkpt>
      <trkpt lat="44.35463" lon="6.24496">
        <ele>1398.374756</ele>
        <time>2011-06-28T10:18:52Z</time>
      </trkpt>
      <trkpt lat="44.35456" lon="6.24498">
        <ele>1397.894287</ele>
        <time>2011-06-28T10:18:58Z</time>
      </trkpt>
      <trkpt lat="44.35451" lon="6.24495">
        <ele>1399.816895</ele>
        <time>2011-06-28T10:19:03Z</time>
      </trkpt>
      <trkpt lat="44.35442" lon="6.24493">
        <ele>1401.258789</ele>
        <time>2011-06-28T10:19:15Z</time>
      </trkpt>
      <trkpt lat="44.35438" lon="6.24495">
        <ele>1402.219971</ele>
        <time>2011-06-28T10:19:22Z</time>
      </trkpt>
      <trkpt lat="44.35436" lon="6.24498">
        <ele>1402.219971</ele>
        <time>2011-06-28T10:19:28Z</time>
      </trkpt>
      <trkpt lat="44.35433" lon="6.24496">
        <ele>1401.739502</ele>
        <time>2011-06-28T10:19:39Z</time>
      </trkpt>
      <trkpt lat="44.35433" lon="6.24496">
        <ele>1401.739502</ele>
        <time>2011-06-28T10:20:43Z</time>
      </trkpt>
      <trkpt lat="44.35433" lon="6.24498">
        <ele>1402.219971</ele>
        <time>2011-06-28T10:21:19Z</time>
      </trkpt>
      <trkpt lat="44.35446" lon="6.2449">
        <ele>1402.219971</ele>
        <time>2011-06-28T10:21:40Z</time>
      </trkpt>
      <trkpt lat="44.35468" lon="6.24505">
        <ele>1400.297607</ele>
        <time>2011-06-28T10:22:12Z</time>
      </trkpt>
      <trkpt lat="44.35476" lon="6.24508">
        <ele>1397.894287</ele>
        <time>2011-06-28T10:22:26Z</time>
      </trkpt>
      <trkpt lat="44.35488" lon="6.24511">
        <ele>1396.452393</ele>
        <time>2011-06-28T10:22:42Z</time>
      </trkpt>
      <trkpt lat="44.35496" lon="6.24514">
        <ele>1396.452393</ele>
        <time>2011-06-28T10:22:52Z</time>
      </trkpt>
      <trkpt lat="44.35504" lon="6.24518">
        <ele>1395.97168</ele>
        <time>2011-06-28T10:23:01Z</time>
      </trkpt>
      <trkpt lat="44.35516" lon="6.24521">
        <ele>1396.932861</ele>
        <time>2011-06-28T10:23:14Z</time>
      </trkpt>
      <trkpt lat="44.35524" lon="6.24519">
        <ele>1397.413574</ele>
        <time>2011-06-28T10:23:26Z</time>
      </trkpt>
      <trkpt lat="44.35526" lon="6.24512">
        <ele>1397.894287</ele>
        <time>2011-06-28T10:23:31Z</time>
      </trkpt>
      <trkpt lat="44.3553" lon="6.24492">
        <ele>1398.374756</ele>
        <time>2011-06-28T10:23:48Z</time>
      </trkpt>
      <trkpt lat="44.35534" lon="6.24501">
        <ele>1398.855469</ele>
        <time>2011-06-28T10:25:17Z</time>
      </trkpt>
      <trkpt lat="44.35534" lon="6.24489">
        <ele>1398.855469</ele>
        <time>2011-06-28T10:25:28Z</time>
      </trkpt>
      <trkpt lat="44.35535" lon="6.24484">
        <ele>1399.336182</ele>
        <time>2011-06-28T10:25:31Z</time>
      </trkpt>
      <trkpt lat="44.35534" lon="6.24475">
        <ele>1399.336182</ele>
        <time>2011-06-28T10:25:35Z</time>
      </trkpt>
      <trkpt lat="44.35535" lon="6.2447">
        <ele>1399.816895</ele>
        <time>2011-06-28T10:25:37Z</time>
      </trkpt>
      <trkpt lat="44.35541" lon="6.24458">
        <ele>1401.739502</ele>
        <time>2011-06-28T10:25:43Z</time>
      </trkpt>
      <trkpt lat="44.35543" lon="6.24455">
        <ele>1400.297607</ele>
        <time>2011-06-28T10:25:45Z</time>
      </trkpt>
      <trkpt lat="44.35548" lon="6.24449">
        <ele>1400.297607</ele>
        <time>2011-06-28T10:25:49Z</time>
      </trkpt>
      <trkpt lat="44.35568" lon="6.24437">
        <ele>1401.258789</ele>
        <time>2011-06-28T10:26:04Z</time>
      </trkpt>
      <trkpt lat="44.3558" lon="6.24424">
        <ele>1402.219971</ele>
        <time>2011-06-28T10:26:12Z</time>
      </trkpt>
      <trkpt lat="44.3559" lon="6.24404">
        <ele>1403.181396</ele>
        <time>2011-06-28T10:26:24Z</time>
      </trkpt>
      <trkpt lat="44.35593" lon="6.24402">
        <ele>1403.181396</ele>
        <time>2011-06-28T10:26:27Z</time>
      </trkpt>
      <trkpt lat="44.35624" lon="6.24409">
        <ele>1405.104248</ele>
        <time>2011-06-28T10:26:49Z</time>
      </trkpt>
      <trkpt lat="44.35652" lon="6.24418">
        <ele>1405.584961</ele>
        <time>2011-06-28T10:27:04Z</time>
      </trkpt>
      <trkpt lat="44.35657" lon="6.24419">
        <ele>1405.584961</ele>
        <time>2011-06-28T10:27:07Z</time>
      </trkpt>
      <trkpt lat="44.35663" lon="6.24415">
        <ele>1407.026855</ele>
        <time>2011-06-28T10:27:09Z</time>
      </trkpt>
      <trkpt lat="44.35665" lon="6.24415">
        <ele>1405.584961</ele>
        <time>2011-06-28T10:27:11Z</time>
      </trkpt>
      <trkpt lat="44.35665" lon="6.2441">
        <ele>1407.507568</ele>
        <time>2011-06-28T10:27:13Z</time>
      </trkpt>
      <trkpt lat="44.35668" lon="6.24397">
        <ele>1407.507568</ele>
        <time>2011-06-28T10:27:19Z</time>
      </trkpt>
      <trkpt lat="44.35674" lon="6.24382">
        <ele>1408.949463</ele>
        <time>2011-06-28T10:27:30Z</time>
      </trkpt>
      <trkpt lat="44.35675" lon="6.24379">
        <ele>1407.507568</ele>
        <time>2011-06-28T10:27:32Z</time>
      </trkpt>
      <trkpt lat="44.35678" lon="6.24378">
        <ele>1409.430176</ele>
        <time>2011-06-28T10:27:34Z</time>
      </trkpt>
      <trkpt lat="44.35695" lon="6.24365">
        <ele>1409.910645</ele>
        <time>2011-06-28T10:27:46Z</time>
      </trkpt>
      <trkpt lat="44.35702" lon="6.2436">
        <ele>1411.352783</ele>
        <time>2011-06-28T10:27:53Z</time>
      </trkpt>
      <trkpt lat="44.35715" lon="6.24346">
        <ele>1413.275391</ele>
        <time>2011-06-28T10:28:08Z</time>
      </trkpt>
      <trkpt lat="44.35734" lon="6.24336">
        <ele>1414.717285</ele>
        <time>2011-06-28T10:28:21Z</time>
      </trkpt>
      <trkpt lat="44.35745" lon="6.24317">
        <ele>1416.639893</ele>
        <time>2011-06-28T10:28:34Z</time>
      </trkpt>
      <trkpt lat="44.35748" lon="6.24312">
        <ele>1417.120605</ele>
        <time>2011-06-28T10:28:38Z</time>
      </trkpt>
      <trkpt lat="44.35753" lon="6.24308">
        <ele>1417.601074</ele>
        <time>2011-06-28T10:28:43Z</time>
      </trkpt>
      <trkpt lat="44.35757" lon="6.24308">
        <ele>1418.081787</ele>
        <time>2011-06-28T10:28:47Z</time>
      </trkpt>
      <trkpt lat="44.35773" lon="6.24299">
        <ele>1419.523926</ele>
        <time>2011-06-28T10:29:00Z</time>
      </trkpt>
      <trkpt lat="44.3578" lon="6.24295">
        <ele>1420.004639</ele>
        <time>2011-06-28T10:29:07Z</time>
      </trkpt>
      <trkpt lat="44.35793" lon="6.24282">
        <ele>1420.485352</ele>
        <time>2011-06-28T10:29:14Z</time>
      </trkpt>
      <trkpt lat="44.35794" lon="6.24278">
        <ele>1420.966064</ele>
        <time>2011-06-28T10:29:17Z</time>
      </trkpt>
      <trkpt lat="44.35794" lon="6.24276">
        <ele>1421.446533</ele>
        <time>2011-06-28T10:29:19Z</time>
      </trkpt>
      <trkpt lat="44.35794" lon="6.24274">
        <ele>1421.446533</ele>
        <time>2011-06-28T10:29:21Z</time>
      </trkpt>
      <trkpt lat="44.35799" lon="6.24266">
        <ele>1421.927246</ele>
        <time>2011-06-28T10:29:26Z</time>
      </trkpt>
      <trkpt lat="44.35802" lon="6.24262">
        <ele>1421.927246</ele>
        <time>2011-06-28T10:29:28Z</time>
      </trkpt>
      <trkpt lat="44.3581" lon="6.24247">
        <ele>1423.369385</ele>
        <time>2011-06-28T10:29:37Z</time>
      </trkpt>
      <trkpt lat="44.35822" lon="6.24238">
        <ele>1423.849854</ele>
        <time>2011-06-28T10:29:45Z</time>
      </trkpt>
      <trkpt lat="44.35836" lon="6.24223">
        <ele>1425.772461</ele>
        <time>2011-06-28T10:30:00Z</time>
      </trkpt>
      <trkpt lat="44.35842" lon="6.24198">
        <ele>1428.175781</ele>
        <time>2011-06-28T10:30:16Z</time>
      </trkpt>
      <trkpt lat="44.35858" lon="6.24169">
        <ele>1430.579102</ele>
        <time>2011-06-28T10:30:38Z</time>
      </trkpt>
      <trkpt lat="44.35866" lon="6.2415">
        <ele>1432.020996</ele>
        <time>2011-06-28T10:30:52Z</time>
      </trkpt>
      <trkpt lat="44.35868" lon="6.24145">
        <ele>1432.501709</ele>
        <time>2011-06-28T10:30:57Z</time>
      </trkpt>
      <trkpt lat="44.3587" lon="6.24139">
        <ele>1432.982178</ele>
        <time>2011-06-28T10:31:01Z</time>
      </trkpt>
      <trkpt lat="44.35874" lon="6.24119">
        <ele>1434.424316</ele>
        <time>2011-06-28T10:31:15Z</time>
      </trkpt>
      <trkpt lat="44.35876" lon="6.241">
        <ele>1435.866211</ele>
        <time>2011-06-28T10:31:25Z</time>
      </trkpt>
      <trkpt lat="44.35879" lon="6.24081">
        <ele>1437.30835</ele>
        <time>2011-06-28T10:31:36Z</time>
      </trkpt>
      <trkpt lat="44.35881" lon="6.24068">
        <ele>1437.789063</ele>
        <time>2011-06-28T10:31:43Z</time>
      </trkpt>
      <trkpt lat="44.35887" lon="6.24063">
        <ele>1438.269775</ele>
        <time>2011-06-28T10:31:46Z</time>
      </trkpt>
      <trkpt lat="44.35889" lon="6.24051">
        <ele>1438.750488</ele>
        <time>2011-06-28T10:31:52Z</time>
      </trkpt>
      <trkpt lat="44.35889" lon="6.24049">
        <ele>1439.230957</ele>
        <time>2011-06-28T10:31:56Z</time>
      </trkpt>
      <trkpt lat="44.3589" lon="6.24033">
        <ele>1440.192383</ele>
        <time>2011-06-28T10:32:06Z</time>
      </trkpt>
      <trkpt lat="44.35902" lon="6.24007">
        <ele>1440.672852</ele>
        <time>2011-06-28T10:32:21Z</time>
      </trkpt>
      <trkpt lat="44.35901" lon="6.24002">
        <ele>1440.672852</ele>
        <time>2011-06-28T10:32:23Z</time>
      </trkpt>
      <trkpt lat="44.35902" lon="6.23994">
        <ele>1441.634277</ele>
        <time>2011-06-28T10:32:26Z</time>
      </trkpt>
      <trkpt lat="44.35904" lon="6.23985">
        <ele>1441.153564</ele>
        <time>2011-06-28T10:32:30Z</time>
      </trkpt>
      <trkpt lat="44.35905" lon="6.23982">
        <ele>1441.634277</ele>
        <time>2011-06-28T10:32:32Z</time>
      </trkpt>
      <trkpt lat="44.35906" lon="6.23948">
        <ele>1442.595703</ele>
        <time>2011-06-28T10:32:47Z</time>
      </trkpt>
      <trkpt lat="44.3591" lon="6.23919">
        <ele>1444.037598</ele>
        <time>2011-06-28T10:33:03Z</time>
      </trkpt>
      <trkpt lat="44.3591" lon="6.23917">
        <ele>1444.518066</ele>
        <time>2011-06-28T10:33:04Z</time>
      </trkpt>
      <trkpt lat="44.35911" lon="6.2388">
        <ele>1446.440918</ele>
        <time>2011-06-28T10:33:23Z</time>
      </trkpt>
      <trkpt lat="44.35909" lon="6.23871">
        <ele>1446.921387</ele>
        <time>2011-06-28T10:33:27Z</time>
      </trkpt>
      <trkpt lat="44.35908" lon="6.23868">
        <ele>1446.921387</ele>
        <time>2011-06-28T10:33:30Z</time>
      </trkpt>
      <trkpt lat="44.35916" lon="6.23855">
        <ele>1448.363281</ele>
        <time>2011-06-28T10:33:38Z</time>
      </trkpt>
      <trkpt lat="44.35917" lon="6.23851">
        <ele>1448.363281</ele>
        <time>2011-06-28T10:33:40Z</time>
      </trkpt>
      <trkpt lat="44.35916" lon="6.23845">
        <ele>1448.363281</ele>
        <time>2011-06-28T10:33:45Z</time>
      </trkpt>
      <trkpt lat="44.35914" lon="6.23837">
        <ele>1448.843994</ele>
        <time>2011-06-28T10:33:49Z</time>
      </trkpt>
      <trkpt lat="44.35912" lon="6.23834">
        <ele>1449.324707</ele>
        <time>2011-06-28T10:33:52Z</time>
      </trkpt>
      <trkpt lat="44.35895" lon="6.23826">
        <ele>1451.247314</ele>
        <time>2011-06-28T10:34:06Z</time>
      </trkpt>
      <trkpt lat="44.35885" lon="6.23819">
        <ele>1452.20874</ele>
        <time>2011-06-28T10:34:20Z</time>
      </trkpt>
      <trkpt lat="44.35881" lon="6.23819">
        <ele>1452.20874</ele>
        <time>2011-06-28T10:34:23Z</time>
      </trkpt>
      <trkpt lat="44.35868" lon="6.2383">
        <ele>1453.650879</ele>
        <time>2011-06-28T10:34:36Z</time>
      </trkpt>
      <trkpt lat="44.35861" lon="6.23853">
        <ele>1455.573486</ele>
        <time>2011-06-28T10:34:53Z</time>
      </trkpt>
      <trkpt lat="44.35855" lon="6.23855">
        <ele>1456.053955</ele>
        <time>2011-06-28T10:34:57Z</time>
      </trkpt>
      <trkpt lat="44.35839" lon="6.23876">
        <ele>1457.496094</ele>
        <time>2011-06-28T10:35:19Z</time>
      </trkpt>
      <trkpt lat="44.35815" lon="6.23884">
        <ele>1459.89917</ele>
        <time>2011-06-28T10:35:39Z</time>
      </trkpt>
      <trkpt lat="44.35795" lon="6.23889">
        <ele>1461.822021</ele>
        <time>2011-06-28T10:35:55Z</time>
      </trkpt>
      <trkpt lat="44.35793" lon="6.23889">
        <ele>1461.822021</ele>
        <time>2011-06-28T10:35:57Z</time>
      </trkpt>
      <trkpt lat="44.35776" lon="6.23896">
        <ele>1463.263916</ele>
        <time>2011-06-28T10:36:13Z</time>
      </trkpt>
      <trkpt lat="44.35764" lon="6.23894">
        <ele>1464.705811</ele>
        <time>2011-06-28T10:36:26Z</time>
      </trkpt>
      <trkpt lat="44.3576" lon="6.23897">
        <ele>1465.186523</ele>
        <time>2011-06-28T10:36:29Z</time>
      </trkpt>
      <trkpt lat="44.35749" lon="6.2389">
        <ele>1467.109131</ele>
        <time>2011-06-28T10:36:44Z</time>
      </trkpt>
      <trkpt lat="44.35737" lon="6.23873">
        <ele>1468.55127</ele>
        <time>2011-06-28T10:37:02Z</time>
      </trkpt>
      <trkpt lat="44.35724" lon="6.23852">
        <ele>1469.993164</ele>
        <time>2011-06-28T10:37:16Z</time>
      </trkpt>
      <trkpt lat="44.35709" lon="6.23842">
        <ele>1470.95459</ele>
        <time>2011-06-28T10:37:29Z</time>
      </trkpt>
      <trkpt lat="44.35703" lon="6.23843">
        <ele>1472.396484</ele>
        <time>2011-06-28T10:37:37Z</time>
      </trkpt>
      <trkpt lat="44.35682" lon="6.23843">
        <ele>1474.319092</ele>
        <time>2011-06-28T10:37:55Z</time>
      </trkpt>
      <trkpt lat="44.35672" lon="6.23832">
        <ele>1476.241699</ele>
        <time>2011-06-28T10:38:07Z</time>
      </trkpt>
      <trkpt lat="44.3567" lon="6.2383">
        <ele>1477.203125</ele>
        <time>2011-06-28T10:38:11Z</time>
      </trkpt>
      <trkpt lat="44.35662" lon="6.23822">
        <ele>1477.683594</ele>
        <time>2011-06-28T10:38:23Z</time>
      </trkpt>
      <trkpt lat="44.35658" lon="6.23814">
        <ele>1479.125488</ele>
        <time>2011-06-28T10:38:30Z</time>
      </trkpt>
      <trkpt lat="44.35655" lon="6.23794">
        <ele>1481.04834</ele>
        <time>2011-06-28T10:38:46Z</time>
      </trkpt>
      <trkpt lat="44.35644" lon="6.23776">
        <ele>1482.970703</ele>
        <time>2011-06-28T10:39:01Z</time>
      </trkpt>
      <trkpt lat="44.3563" lon="6.23759">
        <ele>1484.893799</ele>
        <time>2011-06-28T10:39:21Z</time>
      </trkpt>
      <trkpt lat="44.35622" lon="6.23742">
        <ele>1485.85498</ele>
        <time>2011-06-28T10:39:34Z</time>
      </trkpt>
      <trkpt lat="44.35618" lon="6.23736">
        <ele>1485.85498</ele>
        <time>2011-06-28T10:39:39Z</time>
      </trkpt>
      <trkpt lat="44.35604" lon="6.23719">
        <ele>1488.739014</ele>
        <time>2011-06-28T10:39:59Z</time>
      </trkpt>
      <trkpt lat="44.3559" lon="6.23703">
        <ele>1490.180908</ele>
        <time>2011-06-28T10:40:14Z</time>
      </trkpt>
      <trkpt lat="44.35583" lon="6.23699">
        <ele>1491.14209</ele>
        <time>2011-06-28T10:40:23Z</time>
      </trkpt>
      <trkpt lat="44.35577" lon="6.23697">
        <ele>1492.103516</ele>
        <time>2011-06-28T10:40:31Z</time>
      </trkpt>
      <trkpt lat="44.3556" lon="6.23689">
        <ele>1494.026123</ele>
        <time>2011-06-28T10:40:48Z</time>
      </trkpt>
      <trkpt lat="44.3555" lon="6.23683">
        <ele>1494.506592</ele>
        <time>2011-06-28T10:40:58Z</time>
      </trkpt>
      <trkpt lat="44.35546" lon="6.23675">
        <ele>1495.94873</ele>
        <time>2011-06-28T10:41:07Z</time>
      </trkpt>
      <trkpt lat="44.35549" lon="6.23668">
        <ele>1496.909912</ele>
        <time>2011-06-28T10:41:13Z</time>
      </trkpt>
      <trkpt lat="44.35559" lon="6.23659">
        <ele>1497.871338</ele>
        <time>2011-06-28T10:41:25Z</time>
      </trkpt>
      <trkpt lat="44.35572" lon="6.23653">
        <ele>1499.793945</ele>
        <time>2011-06-28T10:41:38Z</time>
      </trkpt>
      <trkpt lat="44.35589" lon="6.2365">
        <ele>1501.236084</ele>
        <time>2011-06-28T10:41:56Z</time>
      </trkpt>
      <trkpt lat="44.35593" lon="6.23645">
        <ele>1501.236084</ele>
        <time>2011-06-28T10:42:03Z</time>
      </trkpt>
      <trkpt lat="44.35599" lon="6.23633">
        <ele>1501.716797</ele>
        <time>2011-06-28T10:42:11Z</time>
      </trkpt>
      <trkpt lat="44.356" lon="6.23621">
        <ele>1502.677979</ele>
        <time>2011-06-28T10:42:18Z</time>
      </trkpt>
      <trkpt lat="44.35595" lon="6.23595">
        <ele>1505.081299</ele>
        <time>2011-06-28T10:42:37Z</time>
      </trkpt>
      <trkpt lat="44.35594" lon="6.23584">
        <ele>1505.562012</ele>
        <time>2011-06-28T10:42:45Z</time>
      </trkpt>
      <trkpt lat="44.35584" lon="6.23563">
        <ele>1507.484619</ele>
        <time>2011-06-28T10:43:02Z</time>
      </trkpt>
      <trkpt lat="44.35581" lon="6.23552">
        <ele>1507.484619</ele>
        <time>2011-06-28T10:43:12Z</time>
      </trkpt>
      <trkpt lat="44.35577" lon="6.23547">
        <ele>1509.407227</ele>
        <time>2011-06-28T10:43:17Z</time>
      </trkpt>
      <trkpt lat="44.35567" lon="6.23534">
        <ele>1510.368408</ele>
        <time>2011-06-28T10:43:30Z</time>
      </trkpt>
      <trkpt lat="44.35564" lon="6.23521">
        <ele>1512.291016</ele>
        <time>2011-06-28T10:43:39Z</time>
      </trkpt>
      <trkpt lat="44.35557" lon="6.23501">
        <ele>1512.771729</ele>
        <time>2011-06-28T10:43:51Z</time>
      </trkpt>
      <trkpt lat="44.35548" lon="6.23488">
        <ele>1514.213623</ele>
        <time>2011-06-28T10:44:06Z</time>
      </trkpt>
      <trkpt lat="44.35535" lon="6.23501">
        <ele>1515.655762</ele>
        <time>2011-06-28T10:44:22Z</time>
      </trkpt>
      <trkpt lat="44.35523" lon="6.23505">
        <ele>1517.578369</ele>
        <time>2011-06-28T10:44:33Z</time>
      </trkpt>
      <trkpt lat="44.35514" lon="6.23503">
        <ele>1518.059082</ele>
        <time>2011-06-28T10:44:42Z</time>
      </trkpt>
      <trkpt lat="44.35501" lon="6.23488">
        <ele>1519.501221</ele>
        <time>2011-06-28T10:44:58Z</time>
      </trkpt>
      <trkpt lat="44.35494" lon="6.23476">
        <ele>1521.423584</ele>
        <time>2011-06-28T10:45:10Z</time>
      </trkpt>
      <trkpt lat="44.35491" lon="6.2347">
        <ele>1521.904297</ele>
        <time>2011-06-28T10:45:15Z</time>
      </trkpt>
      <trkpt lat="44.35486" lon="6.23458">
        <ele>1522.865723</ele>
        <time>2011-06-28T10:45:23Z</time>
      </trkpt>
      <trkpt lat="44.35484" lon="6.23455">
        <ele>1522.38501</ele>
        <time>2011-06-28T10:45:25Z</time>
      </trkpt>
      <trkpt lat="44.35481" lon="6.2344">
        <ele>1523.826904</ele>
        <time>2011-06-28T10:45:35Z</time>
      </trkpt>
      <trkpt lat="44.35479" lon="6.23414">
        <ele>1525.749512</ele>
        <time>2011-06-28T10:45:54Z</time>
      </trkpt>
      <trkpt lat="44.35479" lon="6.23411">
        <ele>1525.749512</ele>
        <time>2011-06-28T10:45:56Z</time>
      </trkpt>
      <trkpt lat="44.35481" lon="6.23401">
        <ele>1526.710938</ele>
        <time>2011-06-28T10:46:03Z</time>
      </trkpt>
      <trkpt lat="44.3548" lon="6.23397">
        <ele>1527.19165</ele>
        <time>2011-06-28T10:46:05Z</time>
      </trkpt>
      <trkpt lat="44.35482" lon="6.23389">
        <ele>1527.672119</ele>
        <time>2011-06-28T10:46:10Z</time>
      </trkpt>
      <trkpt lat="44.35482" lon="6.23382">
        <ele>1527.672119</ele>
        <time>2011-06-28T10:46:14Z</time>
      </trkpt>
      <trkpt lat="44.3548" lon="6.23375">
        <ele>1528.633545</ele>
        <time>2011-06-28T10:46:18Z</time>
      </trkpt>
      <trkpt lat="44.35479" lon="6.23365">
        <ele>1529.114014</ele>
        <time>2011-06-28T10:46:24Z</time>
      </trkpt>
      <trkpt lat="44.35479" lon="6.23355">
        <ele>1530.075439</ele>
        <time>2011-06-28T10:46:32Z</time>
      </trkpt>
      <trkpt lat="44.35496" lon="6.23335">
        <ele>1531.036865</ele>
        <time>2011-06-28T10:46:46Z</time>
      </trkpt>
      <trkpt lat="44.35503" lon="6.23332">
        <ele>1533.440186</ele>
        <time>2011-06-28T10:46:51Z</time>
      </trkpt>
      <trkpt lat="44.35507" lon="6.23331">
        <ele>1532.479004</ele>
        <time>2011-06-28T10:46:54Z</time>
      </trkpt>
      <trkpt lat="44.35511" lon="6.23327">
        <ele>1531.998047</ele>
        <time>2011-06-28T10:46:59Z</time>
      </trkpt>
      <trkpt lat="44.35518" lon="6.23326">
        <ele>1533.920898</ele>
        <time>2011-06-28T10:47:04Z</time>
      </trkpt>
      <trkpt lat="44.3552" lon="6.23325">
        <ele>1534.401611</ele>
        <time>2011-06-28T10:47:09Z</time>
      </trkpt>
      <trkpt lat="44.35533" lon="6.23315">
        <ele>1535.843506</ele>
        <time>2011-06-28T10:47:20Z</time>
      </trkpt>
      <trkpt lat="44.35533" lon="6.23311">
        <ele>1536.324219</ele>
        <time>2011-06-28T10:47:29Z</time>
      </trkpt>
      <trkpt lat="44.35536" lon="6.23311">
        <ele>1536.324219</ele>
        <time>2011-06-28T10:48:07Z</time>
      </trkpt>
      <trkpt lat="44.3554" lon="6.23316">
        <ele>1536.804688</ele>
        <time>2011-06-28T10:48:24Z</time>
      </trkpt>
      <trkpt lat="44.35539" lon="6.23316">
        <ele>1537.766113</ele>
        <time>2011-06-28T10:49:28Z</time>
      </trkpt>
      <trkpt lat="44.35538" lon="6.23317">
        <ele>1538.246826</ele>
        <time>2011-06-28T10:50:13Z</time>
      </trkpt>
      <trkpt lat="44.35538" lon="6.23317">
        <ele>1537.766113</ele>
        <time>2011-06-28T10:50:32Z</time>
      </trkpt>
      <trkpt lat="44.3554" lon="6.2332">
        <ele>1537.2854</ele>
        <time>2011-06-28T10:51:22Z</time>
      </trkpt>
      <trkpt lat="44.3554" lon="6.23321">
        <ele>1536.324219</ele>
        <time>2011-06-28T10:51:46Z</time>
      </trkpt>
      <trkpt lat="44.3554" lon="6.23322">
        <ele>1537.2854</ele>
        <time>2011-06-28T10:51:55Z</time>
      </trkpt>
      <trkpt lat="44.35537" lon="6.2333">
        <ele>1536.804688</ele>
        <time>2011-06-28T10:52:02Z</time>
      </trkpt>
      <trkpt lat="44.35528" lon="6.23343">
        <ele>1539.688721</ele>
        <time>2011-06-28T10:52:14Z</time>
      </trkpt>
      <trkpt lat="44.35527" lon="6.23372">
        <ele>1541.611328</ele>
        <time>2011-06-28T10:52:36Z</time>
      </trkpt>
      <trkpt lat="44.3553" lon="6.23384">
        <ele>1543.533936</ele>
        <time>2011-06-28T10:52:45Z</time>
      </trkpt>
      <trkpt lat="44.35534" lon="6.2341">
        <ele>1545.456543</ele>
        <time>2011-06-28T10:53:04Z</time>
      </trkpt>
      <trkpt lat="44.35537" lon="6.23416">
        <ele>1545.937256</ele>
        <time>2011-06-28T10:53:10Z</time>
      </trkpt>
      <trkpt lat="44.35552" lon="6.23415">
        <ele>1548.340576</ele>
        <time>2011-06-28T10:53:26Z</time>
      </trkpt>
      <trkpt lat="44.35566" lon="6.23408">
        <ele>1549.782715</ele>
        <time>2011-06-28T10:53:42Z</time>
      </trkpt>
      <trkpt lat="44.35581" lon="6.23406">
        <ele>1550.743896</ele>
        <time>2011-06-28T10:53:55Z</time>
      </trkpt>
      <trkpt lat="44.35592" lon="6.23411">
        <ele>1552.185791</ele>
        <time>2011-06-28T10:54:05Z</time>
      </trkpt>
      <trkpt lat="44.35599" lon="6.23422">
        <ele>1553.147217</ele>
        <time>2011-06-28T10:54:16Z</time>
      </trkpt>
      <trkpt lat="44.356" lon="6.23425">
        <ele>1553.62793</ele>
        <time>2011-06-28T10:54:18Z</time>
      </trkpt>
      <trkpt lat="44.35613" lon="6.23456">
        <ele>1555.069824</ele>
        <time>2011-06-28T10:54:42Z</time>
      </trkpt>
      <trkpt lat="44.35615" lon="6.23456">
        <ele>1555.069824</ele>
        <time>2011-06-28T10:54:43Z</time>
      </trkpt>
      <trkpt lat="44.35619" lon="6.23461">
        <ele>1556.031006</ele>
        <time>2011-06-28T10:54:49Z</time>
      </trkpt>
      <trkpt lat="44.35642" lon="6.23481">
        <ele>1557.473145</ele>
        <time>2011-06-28T10:55:10Z</time>
      </trkpt>
      <trkpt lat="44.35643" lon="6.23482">
        <ele>1557.473145</ele>
        <time>2011-06-28T10:55:11Z</time>
      </trkpt>
      <trkpt lat="44.35649" lon="6.23482">
        <ele>1557.953857</ele>
        <time>2011-06-28T10:55:16Z</time>
      </trkpt>
      <trkpt lat="44.35663" lon="6.23476">
        <ele>1559.395752</ele>
        <time>2011-06-28T10:55:28Z</time>
      </trkpt>
      <trkpt lat="44.35682" lon="6.23472">
        <ele>1560.837646</ele>
        <time>2011-06-28T10:55:44Z</time>
      </trkpt>
      <trkpt lat="44.35708" lon="6.23467">
        <ele>1563.721436</ele>
        <time>2011-06-28T10:56:07Z</time>
      </trkpt>
      <trkpt lat="44.35721" lon="6.23465">
        <ele>1565.644531</ele>
        <time>2011-06-28T10:56:21Z</time>
      </trkpt>
      <trkpt lat="44.35733" lon="6.23467">
        <ele>1566.605713</ele>
        <time>2011-06-28T10:56:36Z</time>
      </trkpt>
      <trkpt lat="44.35743" lon="6.23472">
        <ele>1568.52832</ele>
        <time>2011-06-28T10:56:48Z</time>
      </trkpt>
      <trkpt lat="44.35745" lon="6.23471">
        <ele>1568.52832</ele>
        <time>2011-06-28T10:56:49Z</time>
      </trkpt>
      <trkpt lat="44.35765" lon="6.2347">
        <ele>1569.970215</ele>
        <time>2011-06-28T10:57:06Z</time>
      </trkpt>
      <trkpt lat="44.35769" lon="6.23467">
        <ele>1570.450928</ele>
        <time>2011-06-28T10:57:10Z</time>
      </trkpt>
      <trkpt lat="44.35782" lon="6.23459">
        <ele>1572.373535</ele>
        <time>2011-06-28T10:57:28Z</time>
      </trkpt>
      <trkpt lat="44.35788" lon="6.23454">
        <ele>1572.854248</ele>
        <time>2011-06-28T10:57:34Z</time>
      </trkpt>
      <trkpt lat="44.35799" lon="6.23444">
        <ele>1574.296143</ele>
        <time>2011-06-28T10:57:46Z</time>
      </trkpt>
      <trkpt lat="44.35804" lon="6.23443">
        <ele>1574.776855</ele>
        <time>2011-06-28T10:57:51Z</time>
      </trkpt>
      <trkpt lat="44.35823" lon="6.23443">
        <ele>1576.21875</ele>
        <time>2011-06-28T10:58:07Z</time>
      </trkpt>
      <trkpt lat="44.35842" lon="6.23463">
        <ele>1578.62207</ele>
        <time>2011-06-28T10:58:28Z</time>
      </trkpt>
      <trkpt lat="44.35858" lon="6.23469">
        <ele>1580.064209</ele>
        <time>2011-06-28T10:58:44Z</time>
      </trkpt>
      <trkpt lat="44.35868" lon="6.23473">
        <ele>1580.544922</ele>
        <time>2011-06-28T10:58:53Z</time>
      </trkpt>
      <trkpt lat="44.35885" lon="6.23476">
        <ele>1581.986816</ele>
        <time>2011-06-28T10:59:08Z</time>
      </trkpt>
      <trkpt lat="44.35905" lon="6.2348">
        <ele>1583.909424</ele>
        <time>2011-06-28T10:59:26Z</time>
      </trkpt>
      <trkpt lat="44.35919" lon="6.23473">
        <ele>1584.390137</ele>
        <time>2011-06-28T10:59:39Z</time>
      </trkpt>
      <trkpt lat="44.35925" lon="6.23472">
        <ele>1585.351318</ele>
        <time>2011-06-28T10:59:45Z</time>
      </trkpt>
      <trkpt lat="44.3594" lon="6.23489">
        <ele>1586.312744</ele>
        <time>2011-06-28T11:00:02Z</time>
      </trkpt>
      <trkpt lat="44.35941" lon="6.23523">
        <ele>1588.716064</ele>
        <time>2011-06-28T11:00:22Z</time>
      </trkpt>
      <trkpt lat="44.35948" lon="6.23543">
        <ele>1590.157959</ele>
        <time>2011-06-28T11:00:36Z</time>
      </trkpt>
      <trkpt lat="44.35952" lon="6.23557">
        <ele>1591.599854</ele>
        <time>2011-06-28T11:00:47Z</time>
      </trkpt>
      <trkpt lat="44.35955" lon="6.23562">
        <ele>1591.599854</ele>
        <time>2011-06-28T11:00:51Z</time>
      </trkpt>
      <trkpt lat="44.35969" lon="6.23585">
        <ele>1594.483643</ele>
        <time>2011-06-28T11:01:11Z</time>
      </trkpt>
      <trkpt lat="44.35981" lon="6.23592">
        <ele>1595.925781</ele>
        <time>2011-06-28T11:01:22Z</time>
      </trkpt>
      <trkpt lat="44.35996" lon="6.23607">
        <ele>1597.848633</ele>
        <time>2011-06-28T11:01:39Z</time>
      </trkpt>
      <trkpt lat="44.3601" lon="6.23622">
        <ele>1599.290527</ele>
        <time>2011-06-28T11:01:56Z</time>
      </trkpt>
      <trkpt lat="44.36011" lon="6.23623">
        <ele>1600.251953</ele>
        <time>2011-06-28T11:01:57Z</time>
      </trkpt>
      <trkpt lat="44.36022" lon="6.23641">
        <ele>1601.693848</ele>
        <time>2011-06-28T11:02:14Z</time>
      </trkpt>
      <trkpt lat="44.3604" lon="6.23653">
        <ele>1603.616455</ele>
        <time>2011-06-28T11:02:33Z</time>
      </trkpt>
      <trkpt lat="44.36057" lon="6.23645">
        <ele>1605.05835</ele>
        <time>2011-06-28T11:02:48Z</time>
      </trkpt>
      <trkpt lat="44.36076" lon="6.23643">
        <ele>1606.019531</ele>
        <time>2011-06-28T11:03:05Z</time>
      </trkpt>
      <trkpt lat="44.36092" lon="6.23641">
        <ele>1606.980957</ele>
        <time>2011-06-28T11:03:20Z</time>
      </trkpt>
      <trkpt lat="44.36111" lon="6.23644">
        <ele>1608.903564</ele>
        <time>2011-06-28T11:03:35Z</time>
      </trkpt>
      <trkpt lat="44.36129" lon="6.23644">
        <ele>1610.345459</ele>
        <time>2011-06-28T11:03:53Z</time>
      </trkpt>
      <trkpt lat="44.3613" lon="6.23644">
        <ele>1610.345459</ele>
        <time>2011-06-28T11:03:54Z</time>
      </trkpt>
      <trkpt lat="44.36139" lon="6.23654">
        <ele>1611.787598</ele>
        <time>2011-06-28T11:04:08Z</time>
      </trkpt>
      <trkpt lat="44.36138" lon="6.23664">
        <ele>1612.268311</ele>
        <time>2011-06-28T11:04:14Z</time>
      </trkpt>
      <trkpt lat="44.36132" lon="6.23683">
        <ele>1614.671631</ele>
        <time>2011-06-28T11:04:27Z</time>
      </trkpt>
      <trkpt lat="44.36135" lon="6.23716">
        <ele>1616.113525</ele>
        <time>2011-06-28T11:04:46Z</time>
      </trkpt>
      <trkpt lat="44.36143" lon="6.2373">
        <ele>1617.55542</ele>
        <time>2011-06-28T11:04:57Z</time>
      </trkpt>
      <trkpt lat="44.36156" lon="6.23739">
        <ele>1618.036133</ele>
        <time>2011-06-28T11:05:10Z</time>
      </trkpt>
      <trkpt lat="44.36162" lon="6.23742">
        <ele>1618.997559</ele>
        <time>2011-06-28T11:05:13Z</time>
      </trkpt>
      <trkpt lat="44.36182" lon="6.23744">
        <ele>1619.478271</ele>
        <time>2011-06-28T11:05:29Z</time>
      </trkpt>
      <trkpt lat="44.36183" lon="6.23745">
        <ele>1619.478271</ele>
        <time>2011-06-28T11:05:30Z</time>
      </trkpt>
      <trkpt lat="44.36198" lon="6.23746">
        <ele>1620.920166</ele>
        <time>2011-06-28T11:05:44Z</time>
      </trkpt>
      <trkpt lat="44.36215" lon="6.23745">
        <ele>1621.881348</ele>
        <time>2011-06-28T11:05:56Z</time>
      </trkpt>
      <trkpt lat="44.36242" lon="6.23742">
        <ele>1623.323486</ele>
        <time>2011-06-28T11:06:14Z</time>
      </trkpt>
      <trkpt lat="44.36263" lon="6.23743">
        <ele>1623.803955</ele>
        <time>2011-06-28T11:06:29Z</time>
      </trkpt>
      <trkpt lat="44.36273" lon="6.23743">
        <ele>1624.284668</ele>
        <time>2011-06-28T11:06:36Z</time>
      </trkpt>
      <trkpt lat="44.36279" lon="6.23734">
        <ele>1624.765381</ele>
        <time>2011-06-28T11:06:47Z</time>
      </trkpt>
      <trkpt lat="44.36286" lon="6.23735">
        <ele>1625.24585</ele>
        <time>2011-06-28T11:07:05Z</time>
      </trkpt>
      <trkpt lat="44.36295" lon="6.23734">
        <ele>1625.726563</ele>
        <time>2011-06-28T11:07:12Z</time>
      </trkpt>
      <trkpt lat="44.36321" lon="6.23735">
        <ele>1625.24585</ele>
        <time>2011-06-28T11:07:23Z</time>
      </trkpt>
      <trkpt lat="44.36331" lon="6.23737">
        <ele>1627.168701</ele>
        <time>2011-06-28T11:07:28Z</time>
      </trkpt>
      <trkpt lat="44.36361" lon="6.23751">
        <ele>1625.726563</ele>
        <time>2011-06-28T11:07:43Z</time>
      </trkpt>
      <trkpt lat="44.36365" lon="6.23754">
        <ele>1626.687988</ele>
        <time>2011-06-28T11:07:57Z</time>
      </trkpt>
      <trkpt lat="44.36365" lon="6.23754">
        <ele>1624.765381</ele>
        <time>2011-06-28T11:07:59Z</time>
      </trkpt>
      <trkpt lat="44.36365" lon="6.23754">
        <ele>1626.207275</ele>
        <time>2011-06-28T11:08:01Z</time>
      </trkpt>
      <trkpt lat="44.36365" lon="6.23753">
        <ele>1625.726563</ele>
        <time>2011-06-28T11:08:31Z</time>
      </trkpt>
      <trkpt lat="44.36364" lon="6.23751">
        <ele>1626.207275</ele>
        <time>2011-06-28T11:08:43Z</time>
      </trkpt>
      <trkpt lat="44.36368" lon="6.23731">
        <ele>1626.207275</ele>
        <time>2011-06-28T11:09:03Z</time>
      </trkpt>
      <trkpt lat="44.3637" lon="6.23729">
        <ele>1625.24585</ele>
        <time>2011-06-28T11:09:17Z</time>
      </trkpt>
      <trkpt lat="44.3637" lon="6.23727">
        <ele>1626.687988</ele>
        <time>2011-06-28T11:09:30Z</time>
      </trkpt>
      <trkpt lat="44.36367" lon="6.23731">
        <ele>1625.24585</ele>
        <time>2011-06-28T11:09:57Z</time>
      </trkpt>
      <trkpt lat="44.36366" lon="6.23726">
        <ele>1626.207275</ele>
        <time>2011-06-28T11:10:22Z</time>
      </trkpt>
      <trkpt lat="44.36366" lon="6.23724">
        <ele>1626.207275</ele>
        <time>2011-06-28T11:10:35Z</time>
      </trkpt>
      <trkpt lat="44.36366" lon="6.23731">
        <ele>1626.207275</ele>
        <time>2011-06-28T11:10:45Z</time>
      </trkpt>
      <trkpt lat="44.36363" lon="6.23751">
        <ele>1626.687988</ele>
        <time>2011-06-28T11:11:01Z</time>
      </trkpt>
      <trkpt lat="44.36365" lon="6.23751">
        <ele>1625.24585</ele>
        <time>2011-06-28T11:11:07Z</time>
      </trkpt>
      <trkpt lat="44.36364" lon="6.23751">
        <ele>1626.687988</ele>
        <time>2011-06-28T11:11:09Z</time>
      </trkpt>
      <trkpt lat="44.36364" lon="6.23751">
        <ele>1624.765381</ele>
        <time>2011-06-28T11:11:49Z</time>
      </trkpt>
      <trkpt lat="44.36364" lon="6.23752">
        <ele>1626.207275</ele>
        <time>2011-06-28T11:15:30Z</time>
      </trkpt>
      <trkpt lat="44.36364" lon="6.23752">
        <ele>1626.687988</ele>
        <time>2011-06-28T11:15:39Z</time>
      </trkpt>
      <trkpt lat="44.36364" lon="6.23752">
        <ele>1624.765381</ele>
        <time>2011-06-28T11:15:41Z</time>
      </trkpt>
      <trkpt lat="44.36364" lon="6.23752">
        <ele>1625.726563</ele>
        <time>2011-06-28T11:15:55Z</time>
      </trkpt>
      <trkpt lat="44.36364" lon="6.23752">
        <ele>1624.765381</ele>
        <time>2011-06-28T11:16:14Z</time>
      </trkpt>
      <trkpt lat="44.36365" lon="6.23752">
        <ele>1624.284668</ele>
        <time>2011-06-28T11:16:58Z</time>
      </trkpt>
      <trkpt lat="44.36364" lon="6.23752">
        <ele>1626.687988</ele>
        <time>2011-06-28T11:17:19Z</time>
      </trkpt>
      <trkpt lat="44.36364" lon="6.23752">
        <ele>1625.24585</ele>
        <time>2011-06-28T11:17:23Z</time>
      </trkpt>
      <trkpt lat="44.36365" lon="6.23753">
        <ele>1625.726563</ele>
        <time>2011-06-28T11:18:08Z</time>
      </trkpt>
      <trkpt lat="44.36365" lon="6.23752">
        <ele>1625.726563</ele>
        <time>2011-06-28T11:19:22Z</time>
      </trkpt>
      <trkpt lat="44.36364" lon="6.23749">
        <ele>1627.168701</ele>
        <time>2011-06-28T11:19:45Z</time>
      </trkpt>
      <trkpt lat="44.36366" lon="6.23751">
        <ele>1627.168701</ele>
        <time>2011-06-28T11:20:04Z</time>
      </trkpt>
      <trkpt lat="44.36365" lon="6.2375">
        <ele>1627.64917</ele>
        <time>2011-06-28T11:20:18Z</time>
      </trkpt>
      <trkpt lat="44.36365" lon="6.23748">
        <ele>1627.168701</ele>
        <time>2011-06-28T11:20:32Z</time>
      </trkpt>
      <trkpt lat="44.36365" lon="6.2374">
        <ele>1626.687988</ele>
        <time>2011-06-28T11:20:42Z</time>
      </trkpt>
      <trkpt lat="44.36366" lon="6.23736">
        <ele>1626.207275</ele>
        <time>2011-06-28T11:20:44Z</time>
      </trkpt>
      <trkpt lat="44.36367" lon="6.23734">
        <ele>1626.687988</ele>
        <time>2011-06-28T11:20:45Z</time>
      </trkpt>
      <trkpt lat="44.36382" lon="6.23692">
        <ele>1625.24585</ele>
        <time>2011-06-28T11:20:57Z</time>
      </trkpt>
      <trkpt lat="44.3639" lon="6.23674">
        <ele>1624.284668</ele>
        <time>2011-06-28T11:21:02Z</time>
      </trkpt>
      <trkpt lat="44.36392" lon="6.23656">
        <ele>1622.842773</ele>
        <time>2011-06-28T11:21:05Z</time>
      </trkpt>
      <trkpt lat="44.36398" lon="6.23638">
        <ele>1622.842773</ele>
        <time>2011-06-28T11:21:09Z</time>
      </trkpt>
      <trkpt lat="44.364" lon="6.23634">
        <ele>1622.362061</ele>
        <time>2011-06-28T11:21:11Z</time>
      </trkpt>
      <trkpt lat="44.36402" lon="6.23626">
        <ele>1621.881348</ele>
        <time>2011-06-28T11:21:13Z</time>
      </trkpt>
      <trkpt lat="44.36403" lon="6.23618">
        <ele>1621.400635</ele>
        <time>2011-06-28T11:21:15Z</time>
      </trkpt>
      <trkpt lat="44.36403" lon="6.23591">
        <ele>1619.95874</ele>
        <time>2011-06-28T11:21:19Z</time>
      </trkpt>
      <trkpt lat="44.36402" lon="6.23564">
        <ele>1618.997559</ele>
        <time>2011-06-28T11:21:23Z</time>
      </trkpt>
      <trkpt lat="44.364" lon="6.23536">
        <ele>1616.594238</ele>
        <time>2011-06-28T11:21:27Z</time>
      </trkpt>
      <trkpt lat="44.36402" lon="6.23516">
        <ele>1615.633057</ele>
        <time>2011-06-28T11:21:30Z</time>
      </trkpt>
      <trkpt lat="44.36411" lon="6.2348">
        <ele>1613.710205</ele>
        <time>2011-06-28T11:21:35Z</time>
      </trkpt>
      <trkpt lat="44.36422" lon="6.23448">
        <ele>1613.710205</ele>
        <time>2011-06-28T11:21:41Z</time>
      </trkpt>
      <trkpt lat="44.3643" lon="6.23424">
        <ele>1612.268311</ele>
        <time>2011-06-28T11:21:49Z</time>
      </trkpt>
      <trkpt lat="44.36435" lon="6.2341">
        <ele>1614.671631</ele>
        <time>2011-06-28T11:21:53Z</time>
      </trkpt>
      <trkpt lat="44.36439" lon="6.23399">
        <ele>1614.190918</ele>
        <time>2011-06-28T11:21:55Z</time>
      </trkpt>
      <trkpt lat="44.36449" lon="6.23378">
        <ele>1615.633057</ele>
        <time>2011-06-28T11:22:02Z</time>
      </trkpt>
      <trkpt lat="44.36454" lon="6.2337">
        <ele>1615.633057</ele>
        <time>2011-06-28T11:22:13Z</time>
      </trkpt>
      <trkpt lat="44.36454" lon="6.2337">
        <ele>1615.152344</ele>
        <time>2011-06-28T11:22:39Z</time>
      </trkpt>
      <trkpt lat="44.36459" lon="6.23367">
        <ele>1614.190918</ele>
        <time>2011-06-28T11:22:42Z</time>
      </trkpt>
      <trkpt lat="44.36465" lon="6.23368">
        <ele>1611.306885</ele>
        <time>2011-06-28T11:22:44Z</time>
      </trkpt>
      <trkpt lat="44.36467" lon="6.23369">
        <ele>1610.345459</ele>
        <time>2011-06-28T11:22:45Z</time>
      </trkpt>
      <trkpt lat="44.36474" lon="6.23372">
        <ele>1611.787598</ele>
        <time>2011-06-28T11:22:48Z</time>
      </trkpt>
      <trkpt lat="44.365" lon="6.23376">
        <ele>1606.980957</ele>
        <time>2011-06-28T11:22:57Z</time>
      </trkpt>
      <trkpt lat="44.36502" lon="6.23376">
        <ele>1606.980957</ele>
        <time>2011-06-28T11:22:58Z</time>
      </trkpt>
      <trkpt lat="44.36516" lon="6.23379">
        <ele>1604.097168</ele>
        <time>2011-06-28T11:23:04Z</time>
      </trkpt>
      <trkpt lat="44.36519" lon="6.2338">
        <ele>1604.097168</ele>
        <time>2011-06-28T11:23:05Z</time>
      </trkpt>
      <trkpt lat="44.3653" lon="6.23383">
        <ele>1602.174316</ele>
        <time>2011-06-28T11:23:09Z</time>
      </trkpt>
      <trkpt lat="44.36538" lon="6.23385">
        <ele>1602.174316</ele>
        <time>2011-06-28T11:23:12Z</time>
      </trkpt>
      <trkpt lat="44.36544" lon="6.23385">
        <ele>1600.732422</ele>
        <time>2011-06-28T11:23:15Z</time>
      </trkpt>
      <trkpt lat="44.36559" lon="6.23386">
        <ele>1599.290527</ele>
        <time>2011-06-28T11:23:21Z</time>
      </trkpt>
      <trkpt lat="44.36567" lon="6.23386">
        <ele>1597.36792</ele>
        <time>2011-06-28T11:23:24Z</time>
      </trkpt>
      <trkpt lat="44.36584" lon="6.23388">
        <ele>1594.964355</ele>
        <time>2011-06-28T11:23:28Z</time>
      </trkpt>
      <trkpt lat="44.36603" lon="6.23392">
        <ele>1593.041748</ele>
        <time>2011-06-28T11:23:35Z</time>
      </trkpt>
      <trkpt lat="44.36614" lon="6.23395">
        <ele>1589.677246</ele>
        <time>2011-06-28T11:23:41Z</time>
      </trkpt>
      <trkpt lat="44.36616" lon="6.23396">
        <ele>1589.677246</ele>
        <time>2011-06-28T11:23:42Z</time>
      </trkpt>
      <trkpt lat="44.36634" lon="6.23413">
        <ele>1586.312744</ele>
        <time>2011-06-28T11:23:48Z</time>
      </trkpt>
      <trkpt lat="44.36636" lon="6.23415">
        <ele>1586.312744</ele>
        <time>2011-06-28T11:23:49Z</time>
      </trkpt>
      <trkpt lat="44.36643" lon="6.23423">
        <ele>1584.87085</ele>
        <time>2011-06-28T11:23:53Z</time>
      </trkpt>
      <trkpt lat="44.36656" lon="6.23433">
        <ele>1581.986816</ele>
        <time>2011-06-28T11:24:01Z</time>
      </trkpt>
      <trkpt lat="44.36676" lon="6.23441">
        <ele>1577.660645</ele>
        <time>2011-06-28T11:24:11Z</time>
      </trkpt>
      <trkpt lat="44.36687" lon="6.23446">
        <ele>1574.296143</ele>
        <time>2011-06-28T11:24:16Z</time>
      </trkpt>
      <trkpt lat="44.36689" lon="6.23447">
        <ele>1574.296143</ele>
        <time>2011-06-28T11:24:17Z</time>
      </trkpt>
      <trkpt lat="44.36704" lon="6.23453">
        <ele>1571.412109</ele>
        <time>2011-06-28T11:24:22Z</time>
      </trkpt>
      <trkpt lat="44.36709" lon="6.23454">
        <ele>1569.970215</ele>
        <time>2011-06-28T11:24:26Z</time>
      </trkpt>
      <trkpt lat="44.36716" lon="6.23456">
        <ele>1568.52832</ele>
        <time>2011-06-28T11:24:30Z</time>
      </trkpt>
      <trkpt lat="44.36729" lon="6.23454">
        <ele>1568.047607</ele>
        <time>2011-06-28T11:24:34Z</time>
      </trkpt>
      <trkpt lat="44.36736" lon="6.23436">
        <ele>1565.644531</ele>
        <time>2011-06-28T11:24:40Z</time>
      </trkpt>
      <trkpt lat="44.36732" lon="6.23453">
        <ele>1565.644531</ele>
        <time>2011-06-28T11:24:49Z</time>
      </trkpt>
      <trkpt lat="44.36732" lon="6.23453">
        <ele>1566.605713</ele>
        <time>2011-06-28T11:25:01Z</time>
      </trkpt>
      <trkpt lat="44.36732" lon="6.23453">
        <ele>1566.125</ele>
        <time>2011-06-28T11:25:04Z</time>
      </trkpt>
      <trkpt lat="44.36751" lon="6.23445">
        <ele>1564.683105</ele>
        <time>2011-06-28T11:25:16Z</time>
      </trkpt>
      <trkpt lat="44.36765" lon="6.23446">
        <ele>1561.318359</ele>
        <time>2011-06-28T11:25:23Z</time>
      </trkpt>
      <trkpt lat="44.36767" lon="6.23446">
        <ele>1561.318359</ele>
        <time>2011-06-28T11:25:24Z</time>
      </trkpt>
      <trkpt lat="44.36789" lon="6.23446">
        <ele>1556.992432</ele>
        <time>2011-06-28T11:25:33Z</time>
      </trkpt>
      <trkpt lat="44.36808" lon="6.23445">
        <ele>1554.589111</ele>
        <time>2011-06-28T11:25:42Z</time>
      </trkpt>
      <trkpt lat="44.36821" lon="6.23445">
        <ele>1551.705322</ele>
        <time>2011-06-28T11:25:50Z</time>
      </trkpt>
      <trkpt lat="44.36831" lon="6.23444">
        <ele>1548.821289</ele>
        <time>2011-06-28T11:25:58Z</time>
      </trkpt>
      <trkpt lat="44.36836" lon="6.23444">
        <ele>1546.417969</ele>
        <time>2011-06-28T11:26:04Z</time>
      </trkpt>
      <trkpt lat="44.36847" lon="6.2344">
        <ele>1544.014648</ele>
        <time>2011-06-28T11:26:10Z</time>
      </trkpt>
      <trkpt lat="44.36853" lon="6.23436">
        <ele>1542.092041</ele>
        <time>2011-06-28T11:26:14Z</time>
      </trkpt>
      <trkpt lat="44.3686" lon="6.2343">
        <ele>1538.727539</ele>
        <time>2011-06-28T11:26:21Z</time>
      </trkpt>
      <trkpt lat="44.3686" lon="6.2343">
        <ele>1538.727539</ele>
        <time>2011-06-28T11:26:34Z</time>
      </trkpt>
      <trkpt lat="44.3686" lon="6.2343">
        <ele>1536.804688</ele>
        <time>2011-06-28T11:26:46Z</time>
      </trkpt>
      <trkpt lat="44.3686" lon="6.2343">
        <ele>1534.401611</ele>
        <time>2011-06-28T11:27:00Z</time>
      </trkpt>
      <trkpt lat="44.3686" lon="6.2343">
        <ele>1532.959473</ele>
        <time>2011-06-28T11:27:13Z</time>
      </trkpt>
      <trkpt lat="44.3686" lon="6.2343">
        <ele>1532.959473</ele>
        <time>2011-06-28T11:27:16Z</time>
      </trkpt>
      <trkpt lat="44.36902" lon="6.23413">
        <ele>1529.594727</ele>
        <time>2011-06-28T11:27:25Z</time>
      </trkpt>
      <trkpt lat="44.36903" lon="6.23414">
        <ele>1529.594727</ele>
        <time>2011-06-28T11:27:26Z</time>
      </trkpt>
      <trkpt lat="44.36912" lon="6.23425">
        <ele>1526.710938</ele>
        <time>2011-06-28T11:27:32Z</time>
      </trkpt>
      <trkpt lat="44.36921" lon="6.23433">
        <ele>1524.307617</ele>
        <time>2011-06-28T11:27:36Z</time>
      </trkpt>
      <trkpt lat="44.36946" lon="6.23438">
        <ele>1521.423584</ele>
        <time>2011-06-28T11:27:43Z</time>
      </trkpt>
      <trkpt lat="44.36952" lon="6.23439">
        <ele>1520.462402</ele>
        <time>2011-06-28T11:27:45Z</time>
      </trkpt>
      <trkpt lat="44.36955" lon="6.23439">
        <ele>1519.501221</ele>
        <time>2011-06-28T11:27:46Z</time>
      </trkpt>
      <trkpt lat="44.36968" lon="6.2344">
        <ele>1518.059082</ele>
        <time>2011-06-28T11:27:49Z</time>
      </trkpt>
      <trkpt lat="44.36982" lon="6.23441">
        <ele>1516.136475</ele>
        <time>2011-06-28T11:27:52Z</time>
      </trkpt>
      <trkpt lat="44.37015" lon="6.23442">
        <ele>1514.213623</ele>
        <time>2011-06-28T11:27:59Z</time>
      </trkpt>
      <trkpt lat="44.37051" lon="6.23441">
        <ele>1510.368408</ele>
        <time>2011-06-28T11:28:08Z</time>
      </trkpt>
      <trkpt lat="44.37059" lon="6.23443">
        <ele>1508.926514</ele>
        <time>2011-06-28T11:28:10Z</time>
      </trkpt>
      <trkpt lat="44.37078" lon="6.23447">
        <ele>1507.003906</ele>
        <time>2011-06-28T11:28:14Z</time>
      </trkpt>
      <trkpt lat="44.37092" lon="6.23448">
        <ele>1504.600586</ele>
        <time>2011-06-28T11:28:17Z</time>
      </trkpt>
      <trkpt lat="44.37103" lon="6.23448">
        <ele>1503.639404</ele>
        <time>2011-06-28T11:28:19Z</time>
      </trkpt>
      <trkpt lat="44.37112" lon="6.23447">
        <ele>1502.197266</ele>
        <time>2011-06-28T11:28:21Z</time>
      </trkpt>
      <trkpt lat="44.37143" lon="6.23445">
        <ele>1497.871338</ele>
        <time>2011-06-28T11:28:30Z</time>
      </trkpt>
      <trkpt lat="44.37148" lon="6.23445">
        <ele>1497.871338</ele>
        <time>2011-06-28T11:28:31Z</time>
      </trkpt>
      <trkpt lat="44.37174" lon="6.23449">
        <ele>1494.506592</ele>
        <time>2011-06-28T11:28:37Z</time>
      </trkpt>
      <trkpt lat="44.37178" lon="6.23449">
        <ele>1494.506592</ele>
        <time>2011-06-28T11:28:38Z</time>
      </trkpt>
      <trkpt lat="44.37205" lon="6.23451">
        <ele>1490.661377</ele>
        <time>2011-06-28T11:28:46Z</time>
      </trkpt>
      <trkpt lat="44.37208" lon="6.23451">
        <ele>1490.661377</ele>
        <time>2011-06-28T11:28:47Z</time>
      </trkpt>
      <trkpt lat="44.37224" lon="6.23452">
        <ele>1487.777588</ele>
        <time>2011-06-28T11:28:54Z</time>
      </trkpt>
      <trkpt lat="44.37237" lon="6.23453">
        <ele>1484.413086</ele>
        <time>2011-06-28T11:29:00Z</time>
      </trkpt>
      <trkpt lat="44.3724" lon="6.23454">
        <ele>1484.413086</ele>
        <time>2011-06-28T11:29:01Z</time>
      </trkpt>
      <trkpt lat="44.37245" lon="6.23455">
        <ele>1482.970703</ele>
        <time>2011-06-28T11:29:03Z</time>
      </trkpt>
      <trkpt lat="44.37267" lon="6.2346">
        <ele>1478.64502</ele>
        <time>2011-06-28T11:29:11Z</time>
      </trkpt>
      <trkpt lat="44.37285" lon="6.23462">
        <ele>1476.722412</ele>
        <time>2011-06-28T11:29:15Z</time>
      </trkpt>
      <trkpt lat="44.37307" lon="6.23466">
        <ele>1474.319092</ele>
        <time>2011-06-28T11:29:22Z</time>
      </trkpt>
      <trkpt lat="44.37312" lon="6.23468">
        <ele>1473.838379</ele>
        <time>2011-06-28T11:29:24Z</time>
      </trkpt>
      <trkpt lat="44.37329" lon="6.23478">
        <ele>1470.95459</ele>
        <time>2011-06-28T11:29:29Z</time>
      </trkpt>
      <trkpt lat="44.37345" lon="6.23488">
        <ele>1468.070557</ele>
        <time>2011-06-28T11:29:33Z</time>
      </trkpt>
      <trkpt lat="44.37361" lon="6.23499">
        <ele>1465.667236</ele>
        <time>2011-06-28T11:29:38Z</time>
      </trkpt>
      <trkpt lat="44.37403" lon="6.23518">
        <ele>1461.822021</ele>
        <time>2011-06-28T11:29:50Z</time>
      </trkpt>
      <trkpt lat="44.37409" lon="6.23521">
        <ele>1460.860596</ele>
        <time>2011-06-28T11:29:52Z</time>
      </trkpt>
      <trkpt lat="44.37425" lon="6.23526">
        <ele>1457.496094</ele>
        <time>2011-06-28T11:29:58Z</time>
      </trkpt>
      <trkpt lat="44.37429" lon="6.23527">
        <ele>1457.496094</ele>
        <time>2011-06-28T11:29:59Z</time>
      </trkpt>
      <trkpt lat="44.37438" lon="6.23529">
        <ele>1456.053955</ele>
        <time>2011-06-28T11:30:01Z</time>
      </trkpt>
      <trkpt lat="44.37445" lon="6.23531">
        <ele>1454.131592</ele>
        <time>2011-06-28T11:30:03Z</time>
      </trkpt>
      <trkpt lat="44.37457" lon="6.23533">
        <ele>1452.689453</ele>
        <time>2011-06-28T11:30:06Z</time>
      </trkpt>
      <trkpt lat="44.37476" lon="6.23534">
        <ele>1448.843994</ele>
        <time>2011-06-28T11:30:12Z</time>
      </trkpt>
      <trkpt lat="44.3748" lon="6.23534">
        <ele>1448.843994</ele>
        <time>2011-06-28T11:30:13Z</time>
      </trkpt>
      <trkpt lat="44.37502" lon="6.23537">
        <ele>1446.440918</ele>
        <time>2011-06-28T11:30:21Z</time>
      </trkpt>
      <trkpt lat="44.37528" lon="6.23545">
        <ele>1443.076172</ele>
        <time>2011-06-28T11:30:28Z</time>
      </trkpt>
      <trkpt lat="44.37555" lon="6.23556">
        <ele>1441.153564</ele>
        <time>2011-06-28T11:30:35Z</time>
      </trkpt>
      <trkpt lat="44.37571" lon="6.23562">
        <ele>1438.269775</ele>
        <time>2011-06-28T11:30:39Z</time>
      </trkpt>
      <trkpt lat="44.37593" lon="6.23571">
        <ele>1434.905029</ele>
        <time>2011-06-28T11:30:45Z</time>
      </trkpt>
      <trkpt lat="44.37628" lon="6.23581">
        <ele>1432.020996</ele>
        <time>2011-06-28T11:30:55Z</time>
      </trkpt>
      <trkpt lat="44.37648" lon="6.23577">
        <ele>1428.175781</ele>
        <time>2011-06-28T11:31:03Z</time>
      </trkpt>
      <trkpt lat="44.37648" lon="6.23577">
        <ele>1428.175781</ele>
        <time>2011-06-28T11:31:04Z</time>
      </trkpt>
      <trkpt lat="44.37668" lon="6.23566">
        <ele>1426.733887</ele>
        <time>2011-06-28T11:31:17Z</time>
      </trkpt>
      <trkpt lat="44.37686" lon="6.23548">
        <ele>1425.291748</ele>
        <time>2011-06-28T11:31:26Z</time>
      </trkpt>
      <trkpt lat="44.37685" lon="6.23538">
        <ele>1424.811279</ele>
        <time>2011-06-28T11:31:30Z</time>
      </trkpt>
      <trkpt lat="44.3769" lon="6.23528">
        <ele>1425.291748</ele>
        <time>2011-06-28T11:31:35Z</time>
      </trkpt>
      <trkpt lat="44.37698" lon="6.23519">
        <ele>1425.772461</ele>
        <time>2011-06-28T11:31:39Z</time>
      </trkpt>
      <trkpt lat="44.37703" lon="6.23517">
        <ele>1424.811279</ele>
        <time>2011-06-28T11:31:49Z</time>
      </trkpt>
      <trkpt lat="44.37728" lon="6.23499">
        <ele>1421.927246</ele>
        <time>2011-06-28T11:31:57Z</time>
      </trkpt>
      <trkpt lat="44.3778" lon="6.23487">
        <ele>1417.601074</ele>
        <time>2011-06-28T11:32:11Z</time>
      </trkpt>
      <trkpt lat="44.37781" lon="6.23487">
        <ele>1417.601074</ele>
        <time>2011-06-28T11:32:12Z</time>
      </trkpt>
      <trkpt lat="44.37806" lon="6.23473">
        <ele>1416.15918</ele>
        <time>2011-06-28T11:32:24Z</time>
      </trkpt>
      <trkpt lat="44.37821" lon="6.23451">
        <ele>1411.833496</ele>
        <time>2011-06-28T11:32:32Z</time>
      </trkpt>
      <trkpt lat="44.37823" lon="6.23447">
        <ele>1411.833496</ele>
        <time>2011-06-28T11:32:33Z</time>
      </trkpt>
      <trkpt lat="44.37835" lon="6.23423">
        <ele>1408.46875</ele>
        <time>2011-06-28T11:32:39Z</time>
      </trkpt>
      <trkpt lat="44.37838" lon="6.23419">
        <ele>1408.46875</ele>
        <time>2011-06-28T11:32:40Z</time>
      </trkpt>
      <trkpt lat="44.37849" lon="6.23398">
        <ele>1406.546143</ele>
        <time>2011-06-28T11:32:46Z</time>
      </trkpt>
      <trkpt lat="44.37865" lon="6.23372">
        <ele>1403.181396</ele>
        <time>2011-06-28T11:32:55Z</time>
      </trkpt>
      <trkpt lat="44.37882" lon="6.23335">
        <ele>1404.143066</ele>
        <time>2011-06-28T11:33:07Z</time>
      </trkpt>
      <trkpt lat="44.37882" lon="6.23335">
        <ele>1404.623535</ele>
        <time>2011-06-28T11:33:08Z</time>
      </trkpt>
      <trkpt lat="44.37884" lon="6.23324">
        <ele>1405.584961</ele>
        <time>2011-06-28T11:33:16Z</time>
      </trkpt>
      <trkpt lat="44.37886" lon="6.23314">
        <ele>1406.06543</ele>
        <time>2011-06-28T11:33:21Z</time>
      </trkpt>
      <trkpt lat="44.37887" lon="6.23311">
        <ele>1407.026855</ele>
        <time>2011-06-28T11:33:24Z</time>
      </trkpt>
      <trkpt lat="44.37887" lon="6.23311">
        <ele>1407.026855</ele>
        <time>2011-06-28T11:33:27Z</time>
      </trkpt>
      <trkpt lat="44.37891" lon="6.23302">
        <ele>1407.026855</ele>
        <time>2011-06-28T11:33:30Z</time>
      </trkpt>
      <trkpt lat="44.37896" lon="6.23294">
        <ele>1407.507568</ele>
        <time>2011-06-28T11:33:34Z</time>
      </trkpt>
      <trkpt lat="44.37906" lon="6.23285">
        <ele>1409.910645</ele>
        <time>2011-06-28T11:33:48Z</time>
      </trkpt>
      <trkpt lat="44.37906" lon="6.23285">
        <ele>1409.430176</ele>
        <time>2011-06-28T11:33:51Z</time>
      </trkpt>
      <trkpt lat="44.37906" lon="6.23285">
        <ele>1409.910645</ele>
        <time>2011-06-28T11:33:53Z</time>
      </trkpt>
      <trkpt lat="44.37916" lon="6.23277">
        <ele>1409.910645</ele>
        <time>2011-06-28T11:33:57Z</time>
      </trkpt>
      <trkpt lat="44.37924" lon="6.23272">
        <ele>1409.910645</ele>
        <time>2011-06-28T11:34:01Z</time>
      </trkpt>
      <trkpt lat="44.37931" lon="6.23267">
        <ele>1410.87207</ele>
        <time>2011-06-28T11:34:08Z</time>
      </trkpt>
      <trkpt lat="44.37933" lon="6.23266">
        <ele>1411.352783</ele>
        <time>2011-06-28T11:34:12Z</time>
      </trkpt>
      <trkpt lat="44.37954" lon="6.23251">
        <ele>1410.87207</ele>
        <time>2011-06-28T11:34:26Z</time>
      </trkpt>
      <trkpt lat="44.37971" lon="6.23233">
        <ele>1407.507568</ele>
        <time>2011-06-28T11:34:38Z</time>
      </trkpt>
      <trkpt lat="44.37977" lon="6.23224">
        <ele>1406.546143</ele>
        <time>2011-06-28T11:34:42Z</time>
      </trkpt>
      <trkpt lat="44.3798" lon="6.2322">
        <ele>1405.584961</ele>
        <time>2011-06-28T11:34:44Z</time>
      </trkpt>
      <trkpt lat="44.38001" lon="6.2319">
        <ele>1402.219971</ele>
        <time>2011-06-28T11:34:53Z</time>
      </trkpt>
      <trkpt lat="44.38021" lon="6.23164">
        <ele>1399.336182</ele>
        <time>2011-06-28T11:35:03Z</time>
      </trkpt>
      <trkpt lat="44.38044" lon="6.2313">
        <ele>1395.97168</ele>
        <time>2011-06-28T11:35:16Z</time>
      </trkpt>
      <trkpt lat="44.3805" lon="6.2312">
        <ele>1393.568359</ele>
        <time>2011-06-28T11:35:19Z</time>
      </trkpt>
      <trkpt lat="44.38062" lon="6.23096">
        <ele>1391.165039</ele>
        <time>2011-06-28T11:35:28Z</time>
      </trkpt>
      <trkpt lat="44.38067" lon="6.23085">
        <ele>1390.684326</ele>
        <time>2011-06-28T11:35:32Z</time>
      </trkpt>
      <trkpt lat="44.3807" lon="6.2308">
        <ele>1391.165039</ele>
        <time>2011-06-28T11:35:35Z</time>
      </trkpt>
      <trkpt lat="44.3807" lon="6.23076">
        <ele>1390.203857</ele>
        <time>2011-06-28T11:35:47Z</time>
      </trkpt>
      <trkpt lat="44.3807" lon="6.23076">
        <ele>1390.684326</ele>
        <time>2011-06-28T11:35:49Z</time>
      </trkpt>
      <trkpt lat="44.3807" lon="6.23079">
        <ele>1390.684326</ele>
        <time>2011-06-28T11:35:53Z</time>
      </trkpt>
      <trkpt lat="44.38071" lon="6.23084">
        <ele>1391.645752</ele>
        <time>2011-06-28T11:35:55Z</time>
      </trkpt>
      <trkpt lat="44.38076" lon="6.23089">
        <ele>1390.203857</ele>
        <time>2011-06-28T11:35:56Z</time>
      </trkpt>
      <trkpt lat="44.38081" lon="6.23096">
        <ele>1389.242432</ele>
        <time>2011-06-28T11:35:59Z</time>
      </trkpt>
      <trkpt lat="44.38086" lon="6.23095">
        <ele>1389.242432</ele>
        <time>2011-06-28T11:36:02Z</time>
      </trkpt>
      <trkpt lat="44.38091" lon="6.23092">
        <ele>1390.684326</ele>
        <time>2011-06-28T11:36:06Z</time>
      </trkpt>
      <trkpt lat="44.38095" lon="6.23088">
        <ele>1390.684326</ele>
        <time>2011-06-28T11:36:10Z</time>
      </trkpt>
      <trkpt lat="44.38106" lon="6.23065">
        <ele>1391.645752</ele>
        <time>2011-06-28T11:36:24Z</time>
      </trkpt>
      <trkpt lat="44.38121" lon="6.23045">
        <ele>1393.568359</ele>
        <time>2011-06-28T11:36:39Z</time>
      </trkpt>
      <trkpt lat="44.38123" lon="6.23042">
        <ele>1392.126465</ele>
        <time>2011-06-28T11:36:41Z</time>
      </trkpt>
      <trkpt lat="44.38133" lon="6.23021">
        <ele>1393.568359</ele>
        <time>2011-06-28T11:36:56Z</time>
      </trkpt>
      <trkpt lat="44.38144" lon="6.22988">
        <ele>1393.568359</ele>
        <time>2011-06-28T11:37:17Z</time>
      </trkpt>
      <trkpt lat="44.38159" lon="6.22956">
        <ele>1393.568359</ele>
        <time>2011-06-28T11:37:38Z</time>
      </trkpt>
      <trkpt lat="44.38175" lon="6.22934">
        <ele>1392.126465</ele>
        <time>2011-06-28T11:37:54Z</time>
      </trkpt>
      <trkpt lat="44.38187" lon="6.22907">
        <ele>1391.645752</ele>
        <time>2011-06-28T11:38:10Z</time>
      </trkpt>
      <trkpt lat="44.38189" lon="6.22902">
        <ele>1392.126465</ele>
        <time>2011-06-28T11:38:22Z</time>
      </trkpt>
      <trkpt lat="44.38193" lon="6.2289">
        <ele>1390.684326</ele>
        <time>2011-06-28T11:38:33Z</time>
      </trkpt>
      <trkpt lat="44.38199" lon="6.22875">
        <ele>1387.800293</ele>
        <time>2011-06-28T11:38:39Z</time>
      </trkpt>
      <trkpt lat="44.38198" lon="6.22864">
        <ele>1384.916504</ele>
        <time>2011-06-28T11:38:43Z</time>
      </trkpt>
      <trkpt lat="44.38185" lon="6.22845">
        <ele>1383.474365</ele>
        <time>2011-06-28T11:38:53Z</time>
      </trkpt>
      <trkpt lat="44.38171" lon="6.22831">
        <ele>1380.109863</ele>
        <time>2011-06-28T11:39:01Z</time>
      </trkpt>
      <trkpt lat="44.38167" lon="6.22826">
        <ele>1379.148438</ele>
        <time>2011-06-28T11:39:03Z</time>
      </trkpt>
      <trkpt lat="44.3816" lon="6.2282">
        <ele>1377.226074</ele>
        <time>2011-06-28T11:39:05Z</time>
      </trkpt>
      <trkpt lat="44.38149" lon="6.22802">
        <ele>1373.861328</ele>
        <time>2011-06-28T11:39:11Z</time>
      </trkpt>
      <trkpt lat="44.38147" lon="6.22798">
        <ele>1373.861328</ele>
        <time>2011-06-28T11:39:12Z</time>
      </trkpt>
      <trkpt lat="44.3814" lon="6.2278">
        <ele>1371.457764</ele>
        <time>2011-06-28T11:39:17Z</time>
      </trkpt>
      <trkpt lat="44.38131" lon="6.22735">
        <ele>1369.5354</ele>
        <time>2011-06-28T11:39:29Z</time>
      </trkpt>
      <trkpt lat="44.3813" lon="6.22727">
        <ele>1369.5354</ele>
        <time>2011-06-28T11:39:31Z</time>
      </trkpt>
      <trkpt lat="44.38132" lon="6.22709">
        <ele>1369.5354</ele>
        <time>2011-06-28T11:39:42Z</time>
      </trkpt>
      <trkpt lat="44.38132" lon="6.22709">
        <ele>1370.496582</ele>
        <time>2011-06-28T11:39:49Z</time>
      </trkpt>
      <trkpt lat="44.38132" lon="6.22709">
        <ele>1369.5354</ele>
        <time>2011-06-28T11:39:52Z</time>
      </trkpt>
      <trkpt lat="44.38137" lon="6.22704">
        <ele>1369.054688</ele>
        <time>2011-06-28T11:39:56Z</time>
      </trkpt>
      <trkpt lat="44.3814" lon="6.22703">
        <ele>1367.612549</ele>
        <time>2011-06-28T11:39:58Z</time>
      </trkpt>
      <trkpt lat="44.38156" lon="6.22708">
        <ele>1364.248047</ele>
        <time>2011-06-28T11:40:07Z</time>
      </trkpt>
      <trkpt lat="44.38159" lon="6.22713">
        <ele>1362.325439</ele>
        <time>2011-06-28T11:40:10Z</time>
      </trkpt>
      <trkpt lat="44.38159" lon="6.22716">
        <ele>1361.364258</ele>
        <time>2011-06-28T11:40:12Z</time>
      </trkpt>
      <trkpt lat="44.38159" lon="6.22722">
        <ele>1360.402832</ele>
        <time>2011-06-28T11:40:16Z</time>
      </trkpt>
      <trkpt lat="44.38159" lon="6.22726">
        <ele>1359.44165</ele>
        <time>2011-06-28T11:40:18Z</time>
      </trkpt>
      <trkpt lat="44.38163" lon="6.22731">
        <ele>1357.999756</ele>
        <time>2011-06-28T11:40:21Z</time>
      </trkpt>
      <trkpt lat="44.38166" lon="6.22731">
        <ele>1357.03833</ele>
        <time>2011-06-28T11:40:23Z</time>
      </trkpt>
      <trkpt lat="44.38169" lon="6.22731">
        <ele>1357.519043</ele>
        <time>2011-06-28T11:40:25Z</time>
      </trkpt>
      <trkpt lat="44.38175" lon="6.22731">
        <ele>1356.557617</ele>
        <time>2011-06-28T11:40:28Z</time>
      </trkpt>
      <trkpt lat="44.38181" lon="6.22732">
        <ele>1355.596191</ele>
        <time>2011-06-28T11:40:32Z</time>
      </trkpt>
      <trkpt lat="44.38189" lon="6.22736">
        <ele>1353.673584</ele>
        <time>2011-06-28T11:40:36Z</time>
      </trkpt>
      <trkpt lat="44.38199" lon="6.22737">
        <ele>1352.231445</ele>
        <time>2011-06-28T11:40:41Z</time>
      </trkpt>
      <trkpt lat="44.38217" lon="6.22735">
        <ele>1349.347656</ele>
        <time>2011-06-28T11:40:48Z</time>
      </trkpt>
      <trkpt lat="44.38221" lon="6.2273">
        <ele>1347.905762</ele>
        <time>2011-06-28T11:40:50Z</time>
      </trkpt>
      <trkpt lat="44.38223" lon="6.22717">
        <ele>1345.021729</ele>
        <time>2011-06-28T11:40:57Z</time>
      </trkpt>
      <trkpt lat="44.38222" lon="6.22713">
        <ele>1343.099121</ele>
        <time>2011-06-28T11:41:00Z</time>
      </trkpt>
      <trkpt lat="44.38214" lon="6.22707">
        <ele>1341.176514</ele>
        <time>2011-06-28T11:41:05Z</time>
      </trkpt>
      <trkpt lat="44.38212" lon="6.22694">
        <ele>1341.176514</ele>
        <time>2011-06-28T11:41:09Z</time>
      </trkpt>
      <trkpt lat="44.38224" lon="6.22654">
        <ele>1338.29248</ele>
        <time>2011-06-28T11:41:21Z</time>
      </trkpt>
      <trkpt lat="44.38232" lon="6.22647">
        <ele>1336.850342</ele>
        <time>2011-06-28T11:41:24Z</time>
      </trkpt>
      <trkpt lat="44.38248" lon="6.2265">
        <ele>1333.966553</ele>
        <time>2011-06-28T11:41:30Z</time>
      </trkpt>
      <trkpt lat="44.3826" lon="6.22642">
        <ele>1332.524658</ele>
        <time>2011-06-28T11:41:37Z</time>
      </trkpt>
      <trkpt lat="44.38263" lon="6.22632">
        <ele>1329.159912</ele>
        <time>2011-06-28T11:41:41Z</time>
      </trkpt>
      <trkpt lat="44.38264" lon="6.22618">
        <ele>1326.756836</ele>
        <time>2011-06-28T11:41:46Z</time>
      </trkpt>
      <trkpt lat="44.38262" lon="6.22599">
        <ele>1325.314697</ele>
        <time>2011-06-28T11:41:52Z</time>
      </trkpt>
      <trkpt lat="44.38262" lon="6.22597">
        <ele>1324.353516</ele>
        <time>2011-06-28T11:41:56Z</time>
      </trkpt>
      <trkpt lat="44.38287" lon="6.22592">
        <ele>1321.469238</ele>
        <time>2011-06-28T11:42:04Z</time>
      </trkpt>
      <trkpt lat="44.38314" lon="6.22585">
        <ele>1318.104736</ele>
        <time>2011-06-28T11:42:13Z</time>
      </trkpt>
      <trkpt lat="44.38327" lon="6.22577">
        <ele>1315.220947</ele>
        <time>2011-06-28T11:42:18Z</time>
      </trkpt>
      <trkpt lat="44.38335" lon="6.22572">
        <ele>1314.259521</ele>
        <time>2011-06-28T11:42:22Z</time>
      </trkpt>
      <trkpt lat="44.38349" lon="6.22561">
        <ele>1311.856445</ele>
        <time>2011-06-28T11:42:26Z</time>
      </trkpt>
      <trkpt lat="44.38366" lon="6.22548">
        <ele>1309.933594</ele>
        <time>2011-06-28T11:42:34Z</time>
      </trkpt>
      <trkpt lat="44.38396" lon="6.22537">
        <ele>1308.491699</ele>
        <time>2011-06-28T11:42:48Z</time>
      </trkpt>
      <trkpt lat="44.38415" lon="6.22521">
        <ele>1307.049561</ele>
        <time>2011-06-28T11:42:56Z</time>
      </trkpt>
      <trkpt lat="44.3842" lon="6.22514">
        <ele>1306.088135</ele>
        <time>2011-06-28T11:42:58Z</time>
      </trkpt>
      <trkpt lat="44.38425" lon="6.22511">
        <ele>1305.126953</ele>
        <time>2011-06-28T11:42:59Z</time>
      </trkpt>
      <trkpt lat="44.38446" lon="6.22505">
        <ele>1304.165771</ele>
        <time>2011-06-28T11:43:05Z</time>
      </trkpt>
      <trkpt lat="44.38456" lon="6.22496">
        <ele>1303.204346</ele>
        <time>2011-06-28T11:43:09Z</time>
      </trkpt>
      <trkpt lat="44.38462" lon="6.22492">
        <ele>1303.204346</ele>
        <time>2011-06-28T11:43:12Z</time>
      </trkpt>
      <trkpt lat="44.38468" lon="6.22489">
        <ele>1301.762451</ele>
        <time>2011-06-28T11:43:14Z</time>
      </trkpt>
      <trkpt lat="44.38471" lon="6.22487">
        <ele>1301.762451</ele>
        <time>2011-06-28T11:43:15Z</time>
      </trkpt>
      <trkpt lat="44.38471" lon="6.22487">
        <ele>1301.281738</ele>
        <time>2011-06-28T11:43:24Z</time>
      </trkpt>
      <trkpt lat="44.38483" lon="6.22482">
        <ele>1300.801025</ele>
        <time>2011-06-28T11:43:28Z</time>
      </trkpt>
      <trkpt lat="44.38505" lon="6.22481">
        <ele>1297.917236</ele>
        <time>2011-06-28T11:43:35Z</time>
      </trkpt>
      <trkpt lat="44.38517" lon="6.22482">
        <ele>1296.955811</ele>
        <time>2011-06-28T11:43:40Z</time>
      </trkpt>
      <trkpt lat="44.38556" lon="6.22483">
        <ele>1293.591309</ele>
        <time>2011-06-28T11:43:52Z</time>
      </trkpt>
      <trkpt lat="44.38568" lon="6.22483">
        <ele>1292.630127</ele>
        <time>2011-06-28T11:43:56Z</time>
      </trkpt>
      <trkpt lat="44.38582" lon="6.22481">
        <ele>1291.668457</ele>
        <time>2011-06-28T11:44:08Z</time>
      </trkpt>
      <trkpt lat="44.38594" lon="6.22473">
        <ele>1290.226563</ele>
        <time>2011-06-28T11:44:28Z</time>
      </trkpt>
      <trkpt lat="44.38596" lon="6.22471">
        <ele>1289.74585</ele>
        <time>2011-06-28T11:44:29Z</time>
      </trkpt>
      <trkpt lat="44.38598" lon="6.22469">
        <ele>1289.74585</ele>
        <time>2011-06-28T11:44:31Z</time>
      </trkpt>
      <trkpt lat="44.38603" lon="6.22459">
        <ele>1288.784668</ele>
        <time>2011-06-28T11:44:35Z</time>
      </trkpt>
      <trkpt lat="44.38606" lon="6.22454">
        <ele>1287.342529</ele>
        <time>2011-06-28T11:44:37Z</time>
      </trkpt>
      <trkpt lat="44.38609" lon="6.22428">
        <ele>1284.939453</ele>
        <time>2011-06-28T11:44:44Z</time>
      </trkpt>
      <trkpt lat="44.38605" lon="6.2241">
        <ele>1283.497314</ele>
        <time>2011-06-28T11:44:48Z</time>
      </trkpt>
      <trkpt lat="44.38597" lon="6.22394">
        <ele>1281.094238</ele>
        <time>2011-06-28T11:44:52Z</time>
      </trkpt>
      <trkpt lat="44.38593" lon="6.2238">
        <ele>1280.132813</ele>
        <time>2011-06-28T11:44:54Z</time>
      </trkpt>
      <trkpt lat="44.38589" lon="6.22363">
        <ele>1277.729492</ele>
        <time>2011-06-28T11:45:00Z</time>
      </trkpt>
      <trkpt lat="44.38587" lon="6.22354">
        <ele>1278.210205</ele>
        <time>2011-06-28T11:45:03Z</time>
      </trkpt>
      <trkpt lat="44.38586" lon="6.22352">
        <ele>1276.287598</ele>
        <time>2011-06-28T11:45:06Z</time>
      </trkpt>
      <trkpt lat="44.38585" lon="6.22346">
        <ele>1274.845459</ele>
        <time>2011-06-28T11:45:09Z</time>
      </trkpt>
      <trkpt lat="44.38585" lon="6.22346">
        <ele>1274.364746</ele>
        <time>2011-06-28T11:45:11Z</time>
      </trkpt>
      <trkpt lat="44.38581" lon="6.22335">
        <ele>1273.884033</ele>
        <time>2011-06-28T11:45:14Z</time>
      </trkpt>
      <trkpt lat="44.38577" lon="6.2233">
        <ele>1273.884033</ele>
        <time>2011-06-28T11:45:17Z</time>
      </trkpt>
      <trkpt lat="44.38563" lon="6.22326">
        <ele>1272.442139</ele>
        <time>2011-06-28T11:45:21Z</time>
      </trkpt>
      <trkpt lat="44.38546" lon="6.22325">
        <ele>1270.038818</ele>
        <time>2011-06-28T11:45:27Z</time>
      </trkpt>
      <trkpt lat="44.38539" lon="6.22324">
        <ele>1269.077637</ele>
        <time>2011-06-28T11:45:29Z</time>
      </trkpt>
      <trkpt lat="44.3854" lon="6.22315">
        <ele>1269.077637</ele>
        <time>2011-06-28T11:45:33Z</time>
      </trkpt>
      <trkpt lat="44.38543" lon="6.22302">
        <ele>1267.635498</ele>
        <time>2011-06-28T11:45:36Z</time>
      </trkpt>
      <trkpt lat="44.38547" lon="6.22276">
        <ele>1265.232422</ele>
        <time>2011-06-28T11:45:46Z</time>
      </trkpt>
      <trkpt lat="44.38547" lon="6.22276">
        <ele>1268.116211</ele>
        <time>2011-06-28T11:45:48Z</time>
      </trkpt>
      <trkpt lat="44.38547" lon="6.22277">
        <ele>1266.674316</ele>
        <time>2011-06-28T11:46:03Z</time>
      </trkpt>
      <trkpt lat="44.38547" lon="6.22277">
        <ele>1265.713135</ele>
        <time>2011-06-28T11:46:11Z</time>
      </trkpt>
      <trkpt lat="44.38547" lon="6.22276">
        <ele>1267.155029</ele>
        <time>2011-06-28T11:46:18Z</time>
      </trkpt>
      <trkpt lat="44.3855" lon="6.22275">
        <ele>1266.193604</ele>
        <time>2011-06-28T11:46:20Z</time>
      </trkpt>
      <trkpt lat="44.38583" lon="6.22264">
        <ele>1263.309814</ele>
        <time>2011-06-28T11:46:30Z</time>
      </trkpt>
      <trkpt lat="44.38596" lon="6.22258">
        <ele>1261.387207</ele>
        <time>2011-06-28T11:46:35Z</time>
      </trkpt>
      <trkpt lat="44.38623" lon="6.2223">
        <ele>1258.022461</ele>
        <time>2011-06-28T11:46:44Z</time>
      </trkpt>
      <trkpt lat="44.38627" lon="6.22226">
        <ele>1256.580322</ele>
        <time>2011-06-28T11:46:46Z</time>
      </trkpt>
      <trkpt lat="44.38643" lon="6.22207">
        <ele>1254.657715</ele>
        <time>2011-06-28T11:46:53Z</time>
      </trkpt>
      <trkpt lat="44.38636" lon="6.22185">
        <ele>1251.293213</ele>
        <time>2011-06-28T11:47:00Z</time>
      </trkpt>
      <trkpt lat="44.38616" lon="6.22168">
        <ele>1249.370605</ele>
        <time>2011-06-28T11:47:09Z</time>
      </trkpt>
      <trkpt lat="44.38608" lon="6.22157">
        <ele>1248.40918</ele>
        <time>2011-06-28T11:47:13Z</time>
      </trkpt>
      <trkpt lat="44.38609" lon="6.22133">
        <ele>1246.967285</ele>
        <time>2011-06-28T11:47:16Z</time>
      </trkpt>
      <trkpt lat="44.38613" lon="6.22128">
        <ele>1246.486816</ele>
        <time>2011-06-28T11:47:18Z</time>
      </trkpt>
      <trkpt lat="44.38624" lon="6.2212">
        <ele>1245.044678</ele>
        <time>2011-06-28T11:47:22Z</time>
      </trkpt>
      <trkpt lat="44.38644" lon="6.22128">
        <ele>1243.121826</ele>
        <time>2011-06-28T11:47:25Z</time>
      </trkpt>
      <trkpt lat="44.3866" lon="6.22131">
        <ele>1240.238037</ele>
        <time>2011-06-28T11:47:29Z</time>
      </trkpt>
      <trkpt lat="44.38663" lon="6.22131">
        <ele>1240.238037</ele>
        <time>2011-06-28T11:47:30Z</time>
      </trkpt>
      <trkpt lat="44.38704" lon="6.2214">
        <ele>1236.873291</ele>
        <time>2011-06-28T11:47:40Z</time>
      </trkpt>
      <trkpt lat="44.38714" lon="6.22142">
        <ele>1235.431396</ele>
        <time>2011-06-28T11:47:43Z</time>
      </trkpt>
      <trkpt lat="44.38756" lon="6.22137">
        <ele>1231.586182</ele>
        <time>2011-06-28T11:47:54Z</time>
      </trkpt>
      <trkpt lat="44.38759" lon="6.22136">
        <ele>1231.586182</ele>
        <time>2011-06-28T11:47:55Z</time>
      </trkpt>
      <trkpt lat="44.38769" lon="6.22134">
        <ele>1231.105713</ele>
        <time>2011-06-28T11:47:58Z</time>
      </trkpt>
      <trkpt lat="44.38772" lon="6.22144">
        <ele>1229.663574</ele>
        <time>2011-06-28T11:48:04Z</time>
      </trkpt>
      <trkpt lat="44.38734" lon="6.22161">
        <ele>1226.298828</ele>
        <time>2011-06-28T11:48:17Z</time>
      </trkpt>
      <trkpt lat="44.38731" lon="6.22163">
        <ele>1226.298828</ele>
        <time>2011-06-28T11:48:18Z</time>
      </trkpt>
      <trkpt lat="44.3874" lon="6.22182">
        <ele>1224.376221</ele>
        <time>2011-06-28T11:48:26Z</time>
      </trkpt>
      <trkpt lat="44.38743" lon="6.22181">
        <ele>1224.376221</ele>
        <time>2011-06-28T11:48:27Z</time>
      </trkpt>
      <trkpt lat="44.38763" lon="6.22178">
        <ele>1221.492188</ele>
        <time>2011-06-28T11:48:33Z</time>
      </trkpt>
      <trkpt lat="44.38797" lon="6.22176">
        <ele>1218.127686</ele>
        <time>2011-06-28T11:48:40Z</time>
      </trkpt>
      <trkpt lat="44.38804" lon="6.2218">
        <ele>1217.166504</ele>
        <time>2011-06-28T11:48:42Z</time>
      </trkpt>
      <trkpt lat="44.38816" lon="6.22185">
        <ele>1215.724609</ele>
        <time>2011-06-28T11:48:45Z</time>
      </trkpt>
      <trkpt lat="44.38834" lon="6.22185">
        <ele>1214.282471</ele>
        <time>2011-06-28T11:48:49Z</time>
      </trkpt>
      <trkpt lat="44.38844" lon="6.22185">
        <ele>1213.801758</ele>
        <time>2011-06-28T11:48:51Z</time>
      </trkpt>
      <trkpt lat="44.38872" lon="6.22183">
        <ele>1210.917725</ele>
        <time>2011-06-28T11:48:58Z</time>
      </trkpt>
      <trkpt lat="44.38895" lon="6.22171">
        <ele>1207.553223</ele>
        <time>2011-06-28T11:49:04Z</time>
      </trkpt>
      <trkpt lat="44.38897" lon="6.22169">
        <ele>1207.553223</ele>
        <time>2011-06-28T11:49:05Z</time>
      </trkpt>
      <trkpt lat="44.3891" lon="6.22154">
        <ele>1205.630615</ele>
        <time>2011-06-28T11:49:09Z</time>
      </trkpt>
      <trkpt lat="44.3892" lon="6.22144">
        <ele>1203.708008</ele>
        <time>2011-06-28T11:49:12Z</time>
      </trkpt>
      <trkpt lat="44.38937" lon="6.22125">
        <ele>1200.823975</ele>
        <time>2011-06-28T11:49:17Z</time>
      </trkpt>
      <trkpt lat="44.38941" lon="6.22121">
        <ele>1199.862793</ele>
        <time>2011-06-28T11:49:19Z</time>
      </trkpt>
      <trkpt lat="44.38954" lon="6.22108">
        <ele>1198.420654</ele>
        <time>2011-06-28T11:49:23Z</time>
      </trkpt>
      <trkpt lat="44.38967" lon="6.22103">
        <ele>1196.498291</ele>
        <time>2011-06-28T11:49:26Z</time>
      </trkpt>
      <trkpt lat="44.38996" lon="6.22094">
        <ele>1193.133301</ele>
        <time>2011-06-28T11:49:34Z</time>
      </trkpt>
      <trkpt lat="44.39005" lon="6.22089">
        <ele>1192.172119</ele>
        <time>2011-06-28T11:49:37Z</time>
      </trkpt>
      <trkpt lat="44.39022" lon="6.22082">
        <ele>1190.72998</ele>
        <time>2011-06-28T11:49:42Z</time>
      </trkpt>
      <trkpt lat="44.3904" lon="6.22077">
        <ele>1188.326904</ele>
        <time>2011-06-28T11:49:47Z</time>
      </trkpt>
      <trkpt lat="44.39048" lon="6.2207">
        <ele>1187.365479</ele>
        <time>2011-06-28T11:49:49Z</time>
      </trkpt>
      <trkpt lat="44.39068" lon="6.22043">
        <ele>1184.962402</ele>
        <time>2011-06-28T11:49:56Z</time>
      </trkpt>
      <trkpt lat="44.39085" lon="6.22027">
        <ele>1182.078369</ele>
        <time>2011-06-28T11:50:01Z</time>
      </trkpt>
      <trkpt lat="44.39091" lon="6.22022">
        <ele>1181.117188</ele>
        <time>2011-06-28T11:50:03Z</time>
      </trkpt>
      <trkpt lat="44.39112" lon="6.22015">
        <ele>1178.23291</ele>
        <time>2011-06-28T11:50:09Z</time>
      </trkpt>
      <trkpt lat="44.39114" lon="6.22014">
        <ele>1178.23291</ele>
        <time>2011-06-28T11:50:10Z</time>
      </trkpt>
      <trkpt lat="44.39139" lon="6.22007">
        <ele>1174.387695</ele>
        <time>2011-06-28T11:50:18Z</time>
      </trkpt>
      <trkpt lat="44.3915" lon="6.22001">
        <ele>1172.945801</ele>
        <time>2011-06-28T11:50:21Z</time>
      </trkpt>
      <trkpt lat="44.3916" lon="6.21984">
        <ele>1170.54248</ele>
        <time>2011-06-28T11:50:26Z</time>
      </trkpt>
      <trkpt lat="44.39162" lon="6.21952">
        <ele>1166.697266</ele>
        <time>2011-06-28T11:50:34Z</time>
      </trkpt>
      <trkpt lat="44.39161" lon="6.21928">
        <ele>1165.255371</ele>
        <time>2011-06-28T11:50:39Z</time>
      </trkpt>
      <trkpt lat="44.39137" lon="6.21897">
        <ele>1162.371094</ele>
        <time>2011-06-28T11:50:50Z</time>
      </trkpt>
      <trkpt lat="44.39133" lon="6.21895">
        <ele>1161.409912</ele>
        <time>2011-06-28T11:50:51Z</time>
      </trkpt>
      <trkpt lat="44.39118" lon="6.21885">
        <ele>1159.487305</ele>
        <time>2011-06-28T11:50:55Z</time>
      </trkpt>
      <trkpt lat="44.39094" lon="6.21859">
        <ele>1156.122559</ele>
        <time>2011-06-28T11:51:03Z</time>
      </trkpt>
      <trkpt lat="44.3909" lon="6.21853">
        <ele>1156.122559</ele>
        <time>2011-06-28T11:51:04Z</time>
      </trkpt>
      <trkpt lat="44.39075" lon="6.21835">
        <ele>1154.200195</ele>
        <time>2011-06-28T11:51:09Z</time>
      </trkpt>
      <trkpt lat="44.39063" lon="6.21824">
        <ele>1152.758057</ele>
        <time>2011-06-28T11:51:14Z</time>
      </trkpt>
      <trkpt lat="44.39063" lon="6.21815">
        <ele>1152.277344</ele>
        <time>2011-06-28T11:51:18Z</time>
      </trkpt>
      <trkpt lat="44.39071" lon="6.21814">
        <ele>1151.796875</ele>
        <time>2011-06-28T11:51:23Z</time>
      </trkpt>
      <trkpt lat="44.3909" lon="6.21834">
        <ele>1150.835449</ele>
        <time>2011-06-28T11:51:32Z</time>
      </trkpt>
      <trkpt lat="44.39126" lon="6.21854">
        <ele>1147.470703</ele>
        <time>2011-06-28T11:51:43Z</time>
      </trkpt>
      <trkpt lat="44.39134" lon="6.21856">
        <ele>1145.548096</ele>
        <time>2011-06-28T11:51:45Z</time>
      </trkpt>
      <trkpt lat="44.39165" lon="6.21854">
        <ele>1143.144775</ele>
        <time>2011-06-28T11:51:53Z</time>
      </trkpt>
      <trkpt lat="44.39196" lon="6.21841">
        <ele>1139.780273</ele>
        <time>2011-06-28T11:52:01Z</time>
      </trkpt>
      <trkpt lat="44.39199" lon="6.21838">
        <ele>1139.780273</ele>
        <time>2011-06-28T11:52:02Z</time>
      </trkpt>
      <trkpt lat="44.39213" lon="6.21817">
        <ele>1136.415771</ele>
        <time>2011-06-28T11:52:08Z</time>
      </trkpt>
      <trkpt lat="44.3924" lon="6.21798">
        <ele>1133.531738</ele>
        <time>2011-06-28T11:52:16Z</time>
      </trkpt>
      <trkpt lat="44.39244" lon="6.21785">
        <ele>1132.089844</ele>
        <time>2011-06-28T11:52:19Z</time>
      </trkpt>
      <trkpt lat="44.39237" lon="6.21779">
        <ele>1131.128418</ele>
        <time>2011-06-28T11:52:25Z</time>
      </trkpt>
      <trkpt lat="44.39207" lon="6.21794">
        <ele>1128.725098</ele>
        <time>2011-06-28T11:52:36Z</time>
      </trkpt>
      <trkpt lat="44.39204" lon="6.21795">
        <ele>1128.725098</ele>
        <time>2011-06-28T11:52:37Z</time>
      </trkpt>
      <trkpt lat="44.39189" lon="6.21794">
        <ele>1127.763672</ele>
        <time>2011-06-28T11:52:41Z</time>
      </trkpt>
      <trkpt lat="44.39188" lon="6.21771">
        <ele>1126.321777</ele>
        <time>2011-06-28T11:52:46Z</time>
      </trkpt>
      <trkpt lat="44.39203" lon="6.21757">
        <ele>1123.918457</ele>
        <time>2011-06-28T11:52:51Z</time>
      </trkpt>
      <trkpt lat="44.39217" lon="6.21744">
        <ele>1121.99585</ele>
        <time>2011-06-28T11:52:56Z</time>
      </trkpt>
      <trkpt lat="44.3924" lon="6.21721">
        <ele>1118.631348</ele>
        <time>2011-06-28T11:53:03Z</time>
      </trkpt>
      <trkpt lat="44.3926" lon="6.21697">
        <ele>1115.747314</ele>
        <time>2011-06-28T11:53:09Z</time>
      </trkpt>
      <trkpt lat="44.39277" lon="6.21683">
        <ele>1114.305176</ele>
        <time>2011-06-28T11:53:13Z</time>
      </trkpt>
      <trkpt lat="44.39289" lon="6.21673">
        <ele>1111.9021</ele>
        <time>2011-06-28T11:53:16Z</time>
      </trkpt>
      <trkpt lat="44.39301" lon="6.21665">
        <ele>1110.459961</ele>
        <time>2011-06-28T11:53:19Z</time>
      </trkpt>
      <trkpt lat="44.39316" lon="6.21656">
        <ele>1109.979248</ele>
        <time>2011-06-28T11:53:22Z</time>
      </trkpt>
      <trkpt lat="44.3932" lon="6.21636">
        <ele>1110.940674</ele>
        <time>2011-06-28T11:53:26Z</time>
      </trkpt>
      <trkpt lat="44.39316" lon="6.2158">
        <ele>1111.421387</ele>
        <time>2011-06-28T11:53:40Z</time>
      </trkpt>
      <trkpt lat="44.39307" lon="6.21485">
        <ele>1110.940674</ele>
        <time>2011-06-28T11:53:58Z</time>
      </trkpt>
      <trkpt lat="44.39298" lon="6.21428">
        <ele>1108.056885</ele>
        <time>2011-06-28T11:54:10Z</time>
      </trkpt>
      <trkpt lat="44.39289" lon="6.21376">
        <ele>1104.692139</ele>
        <time>2011-06-28T11:54:19Z</time>
      </trkpt>
      <trkpt lat="44.39287" lon="6.21363">
        <ele>1103.730957</ele>
        <time>2011-06-28T11:54:21Z</time>
      </trkpt>
      <trkpt lat="44.39279" lon="6.21292">
        <ele>1100.846924</ele>
        <time>2011-06-28T11:54:33Z</time>
      </trkpt>
      <trkpt lat="44.39287" lon="6.21247">
        <ele>1099.404785</ele>
        <time>2011-06-28T11:54:44Z</time>
      </trkpt>
      <trkpt lat="44.39287" lon="6.21247">
        <ele>1098.924072</ele>
        <time>2011-06-28T11:55:08Z</time>
      </trkpt>
      <trkpt lat="44.39287" lon="6.21247">
        <ele>1098.443359</ele>
        <time>2011-06-28T11:55:25Z</time>
      </trkpt>
      <trkpt lat="44.39287" lon="6.21244">
        <ele>1098.443359</ele>
        <time>2011-06-28T11:55:28Z</time>
      </trkpt>
      <trkpt lat="44.39286" lon="6.21238">
        <ele>1097.962891</ele>
        <time>2011-06-28T11:55:33Z</time>
      </trkpt>
      <trkpt lat="44.39286" lon="6.21238">
        <ele>1096.520996</ele>
        <time>2011-06-28T11:55:35Z</time>
      </trkpt>
      <trkpt lat="44.39286" lon="6.21238">
        <ele>1096.520996</ele>
        <time>2011-06-28T11:55:37Z</time>
      </trkpt>
      <trkpt lat="44.39286" lon="6.21238">
        <ele>1095.55957</ele>
        <time>2011-06-28T11:55:40Z</time>
      </trkpt>
      <trkpt lat="44.39294" lon="6.21128">
        <ele>1092.675781</ele>
        <time>2011-06-28T11:55:45Z</time>
      </trkpt>
      <trkpt lat="44.39299" lon="6.2111">
        <ele>1091.233643</ele>
        <time>2011-06-28T11:55:47Z</time>
      </trkpt>
      <trkpt lat="44.39313" lon="6.21071">
        <ele>1088.830566</ele>
        <time>2011-06-28T11:55:51Z</time>
      </trkpt>
      <trkpt lat="44.39324" lon="6.21036">
        <ele>1088.349854</ele>
        <time>2011-06-28T11:55:55Z</time>
      </trkpt>
      <trkpt lat="44.39334" lon="6.21001">
        <ele>1086.427246</ele>
        <time>2011-06-28T11:56:00Z</time>
      </trkpt>
      <trkpt lat="44.39328" lon="6.20972">
        <ele>1084.023926</ele>
        <time>2011-06-28T11:56:03Z</time>
      </trkpt>
      <trkpt lat="44.39332" lon="6.2095">
        <ele>1083.542969</ele>
        <time>2011-06-28T11:56:06Z</time>
      </trkpt>
      <trkpt lat="44.39331" lon="6.20927">
        <ele>1082.101074</ele>
        <time>2011-06-28T11:56:10Z</time>
      </trkpt>
      <trkpt lat="44.39326" lon="6.20916">
        <ele>1080.65918</ele>
        <time>2011-06-28T11:56:12Z</time>
      </trkpt>
      <trkpt lat="44.39305" lon="6.20893">
        <ele>1077.775146</ele>
        <time>2011-06-28T11:56:17Z</time>
      </trkpt>
      <trkpt lat="44.39295" lon="6.20878">
        <ele>1076.333252</ele>
        <time>2011-06-28T11:56:21Z</time>
      </trkpt>
      <trkpt lat="44.39292" lon="6.20851">
        <ele>1074.891357</ele>
        <time>2011-06-28T11:56:24Z</time>
      </trkpt>
      <trkpt lat="44.39297" lon="6.20835">
        <ele>1075.852539</ele>
        <time>2011-06-28T11:56:27Z</time>
      </trkpt>
      <trkpt lat="44.39312" lon="6.20822">
        <ele>1075.371826</ele>
        <time>2011-06-28T11:56:31Z</time>
      </trkpt>
      <trkpt lat="44.39361" lon="6.20829">
        <ele>1075.852539</ele>
        <time>2011-06-28T11:56:43Z</time>
      </trkpt>
      <trkpt lat="44.3939" lon="6.20846">
        <ele>1075.852539</ele>
        <time>2011-06-28T11:56:51Z</time>
      </trkpt>
      <trkpt lat="44.39412" lon="6.20853">
        <ele>1077.294678</ele>
        <time>2011-06-28T11:56:57Z</time>
      </trkpt>
      <trkpt lat="44.39424" lon="6.20846">
        <ele>1076.333252</ele>
        <time>2011-06-28T11:57:01Z</time>
      </trkpt>
      <trkpt lat="44.39427" lon="6.20844">
        <ele>1076.813965</ele>
        <time>2011-06-28T11:57:02Z</time>
      </trkpt>
      <trkpt lat="44.39433" lon="6.20827">
        <ele>1076.333252</ele>
        <time>2011-06-28T11:57:06Z</time>
      </trkpt>
      <trkpt lat="44.39438" lon="6.20811">
        <ele>1077.294678</ele>
        <time>2011-06-28T11:57:09Z</time>
      </trkpt>
      <trkpt lat="44.39445" lon="6.2077">
        <ele>1076.813965</ele>
        <time>2011-06-28T11:57:16Z</time>
      </trkpt>
      <trkpt lat="44.39465" lon="6.20704">
        <ele>1076.333252</ele>
        <time>2011-06-28T11:57:28Z</time>
      </trkpt>
      <trkpt lat="44.39495" lon="6.20627">
        <ele>1076.333252</ele>
        <time>2011-06-28T11:57:45Z</time>
      </trkpt>
      <trkpt lat="44.39516" lon="6.20587">
        <ele>1076.813965</ele>
        <time>2011-06-28T11:57:55Z</time>
      </trkpt>
      <trkpt lat="44.39657" lon="6.20477">
        <ele>1076.813965</ele>
        <time>2011-06-28T11:58:39Z</time>
      </trkpt>
      <trkpt lat="44.3965" lon="6.2041">
        <ele>1077.294678</ele>
        <time>2011-06-28T11:58:52Z</time>
      </trkpt>
      <trkpt lat="44.39648" lon="6.20385">
        <ele>1076.813965</ele>
        <time>2011-06-28T11:58:56Z</time>
      </trkpt>
      <trkpt lat="44.39672" lon="6.20312">
        <ele>1077.294678</ele>
        <time>2011-06-28T11:59:10Z</time>
      </trkpt>
      <trkpt lat="44.39695" lon="6.20267">
        <ele>1076.813965</ele>
        <time>2011-06-28T11:59:20Z</time>
      </trkpt>
      <trkpt lat="44.39745" lon="6.20212">
        <ele>1077.294678</ele>
        <time>2011-06-28T11:59:35Z</time>
      </trkpt>
      <trkpt lat="44.39773" lon="6.20177">
        <ele>1076.813965</ele>
        <time>2011-06-28T11:59:44Z</time>
      </trkpt>
      <trkpt lat="44.39786" lon="6.20149">
        <ele>1077.294678</ele>
        <time>2011-06-28T11:59:50Z</time>
      </trkpt>
      <trkpt lat="44.3979" lon="6.20126">
        <ele>1076.813965</ele>
        <time>2011-06-28T11:59:54Z</time>
      </trkpt>
      <trkpt lat="44.39803" lon="6.19998">
        <ele>1076.813965</ele>
        <time>2011-06-28T12:00:16Z</time>
      </trkpt>
      <trkpt lat="44.39804" lon="6.19986">
        <ele>1076.813965</ele>
        <time>2011-06-28T12:00:18Z</time>
      </trkpt>
      <trkpt lat="44.39811" lon="6.19963">
        <ele>1076.813965</ele>
        <time>2011-06-28T12:00:22Z</time>
      </trkpt>
      <trkpt lat="44.39823" lon="6.19937">
        <ele>1076.813965</ele>
        <time>2011-06-28T12:00:27Z</time>
      </trkpt>
      <trkpt lat="44.39831" lon="6.1989">
        <ele>1077.294678</ele>
        <time>2011-06-28T12:00:35Z</time>
      </trkpt>
      <trkpt lat="44.39832" lon="6.1987">
        <ele>1077.775146</ele>
        <time>2011-06-28T12:00:38Z</time>
      </trkpt>
      <trkpt lat="44.39829" lon="6.19779">
        <ele>1077.294678</ele>
        <time>2011-06-28T12:00:53Z</time>
      </trkpt>
      <trkpt lat="44.39829" lon="6.19673">
        <ele>1077.294678</ele>
        <time>2011-06-28T12:01:10Z</time>
      </trkpt>
      <trkpt lat="44.39841" lon="6.19556">
        <ele>1078.736572</ele>
        <time>2011-06-28T12:01:29Z</time>
      </trkpt>
      <trkpt lat="44.39837" lon="6.19485">
        <ele>1079.217041</ele>
        <time>2011-06-28T12:01:43Z</time>
      </trkpt>
      <trkpt lat="44.39838" lon="6.19456">
        <ele>1079.217041</ele>
        <time>2011-06-28T12:01:48Z</time>
      </trkpt>
      <trkpt lat="44.39838" lon="6.19373">
        <ele>1079.697754</ele>
        <time>2011-06-28T12:02:03Z</time>
      </trkpt>
      <trkpt lat="44.3984" lon="6.19309">
        <ele>1080.178467</ele>
        <time>2011-06-28T12:02:15Z</time>
      </trkpt>
      <trkpt lat="44.39848" lon="6.19228">
        <ele>1081.139893</ele>
        <time>2011-06-28T12:02:31Z</time>
      </trkpt>
      <trkpt lat="44.39821" lon="6.1918">
        <ele>1081.139893</ele>
        <time>2011-06-28T12:02:42Z</time>
      </trkpt>
      <trkpt lat="44.39805" lon="6.19157">
        <ele>1081.139893</ele>
        <time>2011-06-28T12:02:47Z</time>
      </trkpt>
      <trkpt lat="44.39758" lon="6.19084">
        <ele>1080.65918</ele>
        <time>2011-06-28T12:03:03Z</time>
      </trkpt>
      <trkpt lat="44.39747" lon="6.19067">
        <ele>1081.139893</ele>
        <time>2011-06-28T12:03:07Z</time>
      </trkpt>
      <trkpt lat="44.39728" lon="6.19052">
        <ele>1080.65918</ele>
        <time>2011-06-28T12:03:12Z</time>
      </trkpt>
      <trkpt lat="44.39703" lon="6.19047">
        <ele>1079.697754</ele>
        <time>2011-06-28T12:03:17Z</time>
      </trkpt>
      <trkpt lat="44.39676" lon="6.19024">
        <ele>1077.775146</ele>
        <time>2011-06-28T12:03:22Z</time>
      </trkpt>
      <trkpt lat="44.39657" lon="6.18994">
        <ele>1075.852539</ele>
        <time>2011-06-28T12:03:26Z</time>
      </trkpt>
      <trkpt lat="44.39652" lon="6.18985">
        <ele>1074.891357</ele>
        <time>2011-06-28T12:03:27Z</time>
      </trkpt>
      <trkpt lat="44.39647" lon="6.18921">
        <ele>1072.488037</ele>
        <time>2011-06-28T12:03:33Z</time>
      </trkpt>
      <trkpt lat="44.39679" lon="6.18804">
        <ele>1067.681152</ele>
        <time>2011-06-28T12:03:43Z</time>
      </trkpt>
      <trkpt lat="44.39683" lon="6.18793">
        <ele>1067.681152</ele>
        <time>2011-06-28T12:03:44Z</time>
      </trkpt>
      <trkpt lat="44.39692" lon="6.18771">
        <ele>1066.239258</ele>
        <time>2011-06-28T12:03:46Z</time>
      </trkpt>
      <trkpt lat="44.39711" lon="6.18732">
        <ele>1065.758789</ele>
        <time>2011-06-28T12:03:50Z</time>
      </trkpt>
      <trkpt lat="44.39717" lon="6.1869">
        <ele>1063.835938</ele>
        <time>2011-06-28T12:03:54Z</time>
      </trkpt>
      <trkpt lat="44.3971" lon="6.18657">
        <ele>1061.432861</ele>
        <time>2011-06-28T12:03:57Z</time>
      </trkpt>
      <trkpt lat="44.39696" lon="6.18624">
        <ele>1060.471436</ele>
        <time>2011-06-28T12:04:00Z</time>
      </trkpt>
      <trkpt lat="44.39687" lon="6.1859">
        <ele>1057.587646</ele>
        <time>2011-06-28T12:04:03Z</time>
      </trkpt>
      <trkpt lat="44.39687" lon="6.18542">
        <ele>1055.184326</ele>
        <time>2011-06-28T12:04:07Z</time>
      </trkpt>
      <trkpt lat="44.39685" lon="6.18523">
        <ele>1053.742432</ele>
        <time>2011-06-28T12:04:09Z</time>
      </trkpt>
      <trkpt lat="44.39665" lon="6.18488">
        <ele>1051.338867</ele>
        <time>2011-06-28T12:04:14Z</time>
      </trkpt>
      <trkpt lat="44.39656" lon="6.18484">
        <ele>1049.41626</ele>
        <time>2011-06-28T12:04:15Z</time>
      </trkpt>
      <trkpt lat="44.3964" lon="6.18475">
        <ele>1048.454834</ele>
        <time>2011-06-28T12:04:17Z</time>
      </trkpt>
      <trkpt lat="44.3956" lon="6.18434">
        <ele>1047.493652</ele>
        <time>2011-06-28T12:04:28Z</time>
      </trkpt>
      <trkpt lat="44.39533" lon="6.18392">
        <ele>1046.051758</ele>
        <time>2011-06-28T12:04:34Z</time>
      </trkpt>
      <trkpt lat="44.3952" lon="6.18355">
        <ele>1046.532471</ele>
        <time>2011-06-28T12:04:39Z</time>
      </trkpt>
      <trkpt lat="44.39516" lon="6.18341">
        <ele>1046.532471</ele>
        <time>2011-06-28T12:04:41Z</time>
      </trkpt>
      <trkpt lat="44.39534" lon="6.18277">
        <ele>1046.532471</ele>
        <time>2011-06-28T12:04:51Z</time>
      </trkpt>
      <trkpt lat="44.39537" lon="6.18273">
        <ele>1046.532471</ele>
        <time>2011-06-28T12:04:52Z</time>
      </trkpt>
      <trkpt lat="44.39562" lon="6.18248">
        <ele>1046.051758</ele>
        <time>2011-06-28T12:04:58Z</time>
      </trkpt>
      <trkpt lat="44.39573" lon="6.18235">
        <ele>1045.571045</ele>
        <time>2011-06-28T12:05:01Z</time>
      </trkpt>
      <trkpt lat="44.39584" lon="6.18203">
        <ele>1045.571045</ele>
        <time>2011-06-28T12:05:06Z</time>
      </trkpt>
      <trkpt lat="44.39587" lon="6.18154">
        <ele>1044.609619</ele>
        <time>2011-06-28T12:05:13Z</time>
      </trkpt>
      <trkpt lat="44.39592" lon="6.18119">
        <ele>1044.12915</ele>
        <time>2011-06-28T12:05:18Z</time>
      </trkpt>
      <trkpt lat="44.39587" lon="6.18081">
        <ele>1043.167725</ele>
        <time>2011-06-28T12:05:23Z</time>
      </trkpt>
      <trkpt lat="44.39564" lon="6.18024">
        <ele>1041.245117</ele>
        <time>2011-06-28T12:05:31Z</time>
      </trkpt>
      <trkpt lat="44.39517" lon="6.17904">
        <ele>1039.803223</ele>
        <time>2011-06-28T12:05:48Z</time>
      </trkpt>
      <trkpt lat="44.39499" lon="6.17852">
        <ele>1039.803223</ele>
        <time>2011-06-28T12:05:56Z</time>
      </trkpt>
      <trkpt lat="44.39483" lon="6.17755">
        <ele>1036.919189</ele>
        <time>2011-06-28T12:06:08Z</time>
      </trkpt>
      <trkpt lat="44.39474" lon="6.17686">
        <ele>1036.438721</ele>
        <time>2011-06-28T12:06:16Z</time>
      </trkpt>
      <trkpt lat="44.39438" lon="6.17588">
        <ele>1036.438721</ele>
        <time>2011-06-28T12:06:29Z</time>
      </trkpt>
      <trkpt lat="44.39411" lon="6.17568">
        <ele>1035.957764</ele>
        <time>2011-06-28T12:06:34Z</time>
      </trkpt>
      <trkpt lat="44.39399" lon="6.17562">
        <ele>1034.996582</ele>
        <time>2011-06-28T12:06:36Z</time>
      </trkpt>
      <trkpt lat="44.39389" lon="6.17554">
        <ele>1033.07373</ele>
        <time>2011-06-28T12:06:38Z</time>
      </trkpt>
      <trkpt lat="44.3937" lon="6.17504">
        <ele>1034.035156</ele>
        <time>2011-06-28T12:06:45Z</time>
      </trkpt>
      <trkpt lat="44.39386" lon="6.1748">
        <ele>1032.112549</ele>
        <time>2011-06-28T12:06:49Z</time>
      </trkpt>
      <trkpt lat="44.394" lon="6.17459">
        <ele>1031.631836</ele>
        <time>2011-06-28T12:06:53Z</time>
      </trkpt>
      <trkpt lat="44.39414" lon="6.17444">
        <ele>1030.189941</ele>
        <time>2011-06-28T12:06:56Z</time>
      </trkpt>
      <trkpt lat="44.3946" lon="6.17424">
        <ele>1029.709229</ele>
        <time>2011-06-28T12:07:03Z</time>
      </trkpt>
      <trkpt lat="44.39513" lon="6.17374">
        <ele>1027.306152</ele>
        <time>2011-06-28T12:07:12Z</time>
      </trkpt>
      <trkpt lat="44.39529" lon="6.17351">
        <ele>1026.344727</ele>
        <time>2011-06-28T12:07:16Z</time>
      </trkpt>
      <trkpt lat="44.39541" lon="6.17331">
        <ele>1025.383301</ele>
        <time>2011-06-28T12:07:20Z</time>
      </trkpt>
      <trkpt lat="44.39545" lon="6.17324">
        <ele>1023.941406</ele>
        <time>2011-06-28T12:07:22Z</time>
      </trkpt>
      <trkpt lat="44.39549" lon="6.17313">
        <ele>1021.538086</ele>
        <time>2011-06-28T12:07:24Z</time>
      </trkpt>
      <trkpt lat="44.39579" lon="6.17326">
        <ele>1021.057617</ele>
        <time>2011-06-28T12:07:25Z</time>
      </trkpt>
      <trkpt lat="44.39596" lon="6.1732">
        <ele>1019.615479</ele>
        <time>2011-06-28T12:07:28Z</time>
      </trkpt>
      <trkpt lat="44.39605" lon="6.17324">
        <ele>1017.212158</ele>
        <time>2011-06-28T12:07:30Z</time>
      </trkpt>
      <trkpt lat="44.3962" lon="6.17346">
        <ele>1015.770264</ele>
        <time>2011-06-28T12:07:34Z</time>
      </trkpt>
      <trkpt lat="44.39652" lon="6.17364">
        <ele>1014.808838</ele>
        <time>2011-06-28T12:07:40Z</time>
      </trkpt>
      <trkpt lat="44.39663" lon="6.17346">
        <ele>1016.250732</ele>
        <time>2011-06-28T12:07:43Z</time>
      </trkpt>
      <trkpt lat="44.39668" lon="6.17331">
        <ele>1017.212158</ele>
        <time>2011-06-28T12:07:47Z</time>
      </trkpt>
      <trkpt lat="44.39687" lon="6.17306">
        <ele>1018.17334</ele>
        <time>2011-06-28T12:07:57Z</time>
      </trkpt>
      <trkpt lat="44.39691" lon="6.17301">
        <ele>1016.731445</ele>
        <time>2011-06-28T12:07:59Z</time>
      </trkpt>
      <trkpt lat="44.39703" lon="6.17293">
        <ele>1018.17334</ele>
        <time>2011-06-28T12:08:05Z</time>
      </trkpt>
      <trkpt lat="44.39711" lon="6.17288">
        <ele>1018.17334</ele>
        <time>2011-06-28T12:08:09Z</time>
      </trkpt>
      <trkpt lat="44.39722" lon="6.17275">
        <ele>1017.692627</ele>
        <time>2011-06-28T12:08:17Z</time>
      </trkpt>
      <trkpt lat="44.39739" lon="6.17245">
        <ele>1021.057617</ele>
        <time>2011-06-28T12:08:31Z</time>
      </trkpt>
      <trkpt lat="44.39752" lon="6.17211">
        <ele>1022.499512</ele>
        <time>2011-06-28T12:08:46Z</time>
      </trkpt>
      <trkpt lat="44.39772" lon="6.17158">
        <ele>1023.941406</ele>
        <time>2011-06-28T12:09:08Z</time>
      </trkpt>
      <trkpt lat="44.39787" lon="6.17125">
        <ele>1025.864014</ele>
        <time>2011-06-28T12:09:24Z</time>
      </trkpt>
      <trkpt lat="44.39788" lon="6.17122">
        <ele>1026.825439</ele>
        <time>2011-06-28T12:09:37Z</time>
      </trkpt>
      <trkpt lat="44.39788" lon="6.17122">
        <ele>1027.786621</ele>
        <time>2011-06-28T12:09:55Z</time>
      </trkpt>
    </trkseg>
  </trk>
</gpx>